<?xml version="1.0" encoding="UTF-8" standalone="no" ?>
<gpx xmlns="http://www.topografix.com/GPX/1/1" xmlns:xsi="http://www.w3.org/2001/XMLSchema-instance" xsi:schemaLocation="http://www.topografix.com/GPX/1/1 http://www.topografix.com/GPX/1/1/gpx.xsd" version="1.1" creator="VisuGPX - https://www.visugpx.com">
  <metadata>
    <name>Etang du Corra - Foret de Saint Germain</name>
  </metadata>
  <trk>
    <name><![CDATA[Etang du Corra - Foret de Saint Germain_1]]></name>
    <trkseg>
      <trkpt lat="48.97729" lon="2.08915">
        <ele>14.2</ele>
        <time>2022-02-15T08:51:39Z</time>
      </trkpt>
      <trkpt lat="48.97728" lon="2.08908">
        <ele>15.5</ele>
        <time>2022-02-15T08:51:43Z</time>
      </trkpt>
      <trkpt lat="48.97726" lon="2.08902">
        <ele>17.4</ele>
        <time>2022-02-15T08:51:59Z</time>
      </trkpt>
      <trkpt lat="48.97726" lon="2.08894">
        <ele>20.1</ele>
        <time>2022-02-15T08:52:04Z</time>
      </trkpt>
      <trkpt lat="48.9773" lon="2.0889">
        <ele>23.1</ele>
        <time>2022-02-15T08:52:31Z</time>
      </trkpt>
      <trkpt lat="48.97733" lon="2.08896">
        <ele>15.3</ele>
        <time>2022-02-15T08:52:49Z</time>
      </trkpt>
      <trkpt lat="48.97737" lon="2.08893">
        <ele>15.9</ele>
        <time>2022-02-15T08:53:01Z</time>
      </trkpt>
      <trkpt lat="48.97742" lon="2.08893">
        <ele>16</ele>
        <time>2022-02-15T08:53:07Z</time>
      </trkpt>
      <trkpt lat="48.97747" lon="2.08897">
        <ele>15.9</ele>
        <time>2022-02-15T08:53:15Z</time>
      </trkpt>
      <trkpt lat="48.9775" lon="2.08903">
        <ele>15.9</ele>
        <time>2022-02-15T08:53:18Z</time>
      </trkpt>
      <trkpt lat="48.97754" lon="2.08909">
        <ele>15.5</ele>
        <time>2022-02-15T08:53:22Z</time>
      </trkpt>
      <trkpt lat="48.97759" lon="2.08915">
        <ele>15.1</ele>
        <time>2022-02-15T08:53:25Z</time>
      </trkpt>
      <trkpt lat="48.97763" lon="2.0892">
        <ele>15.3</ele>
        <time>2022-02-15T08:53:28Z</time>
      </trkpt>
      <trkpt lat="48.97766" lon="2.08924">
        <ele>15.5</ele>
        <time>2022-02-15T08:53:31Z</time>
      </trkpt>
      <trkpt lat="48.9777" lon="2.08929">
        <ele>15.2</ele>
        <time>2022-02-15T08:53:35Z</time>
      </trkpt>
      <trkpt lat="48.97775" lon="2.08932">
        <ele>13.7</ele>
        <time>2022-02-15T08:53:40Z</time>
      </trkpt>
      <trkpt lat="48.97779" lon="2.08934">
        <ele>12</ele>
        <time>2022-02-15T08:53:45Z</time>
      </trkpt>
      <trkpt lat="48.97783" lon="2.08937">
        <ele>11.2</ele>
        <time>2022-02-15T08:53:48Z</time>
      </trkpt>
      <trkpt lat="48.97787" lon="2.08943">
        <ele>10.8</ele>
        <time>2022-02-15T08:53:51Z</time>
      </trkpt>
      <trkpt lat="48.97791" lon="2.08948">
        <ele>10.7</ele>
        <time>2022-02-15T08:53:53Z</time>
      </trkpt>
      <trkpt lat="48.97796" lon="2.08954">
        <ele>10.9</ele>
        <time>2022-02-15T08:53:56Z</time>
      </trkpt>
      <trkpt lat="48.97801" lon="2.08959">
        <ele>12.2</ele>
        <time>2022-02-15T08:53:59Z</time>
      </trkpt>
      <trkpt lat="48.97806" lon="2.0896">
        <ele>13.8</ele>
        <time>2022-02-15T08:54:01Z</time>
      </trkpt>
      <trkpt lat="48.97811" lon="2.08963">
        <ele>15</ele>
        <time>2022-02-15T08:54:05Z</time>
      </trkpt>
      <trkpt lat="48.97816" lon="2.08966">
        <ele>15.4</ele>
        <time>2022-02-15T08:54:09Z</time>
      </trkpt>
      <trkpt lat="48.97821" lon="2.08968">
        <ele>15.8</ele>
        <time>2022-02-15T08:54:12Z</time>
      </trkpt>
      <trkpt lat="48.97827" lon="2.08971">
        <ele>16.3</ele>
        <time>2022-02-15T08:54:17Z</time>
      </trkpt>
      <trkpt lat="48.97832" lon="2.08973">
        <ele>16.4</ele>
        <time>2022-02-15T08:54:21Z</time>
      </trkpt>
      <trkpt lat="48.97837" lon="2.08975">
        <ele>16.3</ele>
        <time>2022-02-15T08:54:24Z</time>
      </trkpt>
      <trkpt lat="48.97841" lon="2.08978">
        <ele>16.5</ele>
        <time>2022-02-15T08:54:28Z</time>
      </trkpt>
      <trkpt lat="48.97847" lon="2.08979">
        <ele>17.2</ele>
        <time>2022-02-15T08:54:32Z</time>
      </trkpt>
      <trkpt lat="48.97851" lon="2.08983">
        <ele>17.3</ele>
        <time>2022-02-15T08:54:35Z</time>
      </trkpt>
      <trkpt lat="48.97855" lon="2.08988">
        <ele>17.1</ele>
        <time>2022-02-15T08:54:39Z</time>
      </trkpt>
      <trkpt lat="48.97858" lon="2.08993">
        <ele>17.1</ele>
        <time>2022-02-15T08:54:42Z</time>
      </trkpt>
      <trkpt lat="48.97861" lon="2.08998">
        <ele>17.2</ele>
        <time>2022-02-15T08:54:46Z</time>
      </trkpt>
      <trkpt lat="48.97865" lon="2.09002">
        <ele>17.3</ele>
        <time>2022-02-15T08:54:49Z</time>
      </trkpt>
      <trkpt lat="48.97869" lon="2.09008">
        <ele>17.4</ele>
        <time>2022-02-15T08:54:52Z</time>
      </trkpt>
      <trkpt lat="48.97873" lon="2.09016">
        <ele>18</ele>
        <time>2022-02-15T08:54:56Z</time>
      </trkpt>
      <trkpt lat="48.97875" lon="2.09023">
        <ele>18.7</ele>
        <time>2022-02-15T08:55:00Z</time>
      </trkpt>
      <trkpt lat="48.97875" lon="2.09031">
        <ele>19.5</ele>
        <time>2022-02-15T08:55:03Z</time>
      </trkpt>
      <trkpt lat="48.97875" lon="2.09038">
        <ele>20.5</ele>
        <time>2022-02-15T08:55:07Z</time>
      </trkpt>
      <trkpt lat="48.97876" lon="2.09045">
        <ele>21.2</ele>
        <time>2022-02-15T08:55:10Z</time>
      </trkpt>
      <trkpt lat="48.97876" lon="2.09054">
        <ele>21.2</ele>
        <time>2022-02-15T08:55:15Z</time>
      </trkpt>
      <trkpt lat="48.97875" lon="2.09062">
        <ele>20.5</ele>
        <time>2022-02-15T08:55:19Z</time>
      </trkpt>
      <trkpt lat="48.97874" lon="2.0907">
        <ele>19.4</ele>
        <time>2022-02-15T08:55:22Z</time>
      </trkpt>
      <trkpt lat="48.97874" lon="2.09078">
        <ele>18.3</ele>
        <time>2022-02-15T08:55:26Z</time>
      </trkpt>
      <trkpt lat="48.97873" lon="2.09086">
        <ele>18</ele>
        <time>2022-02-15T08:55:30Z</time>
      </trkpt>
      <trkpt lat="48.97872" lon="2.09093">
        <ele>17.6</ele>
        <time>2022-02-15T08:55:33Z</time>
      </trkpt>
      <trkpt lat="48.9787" lon="2.091">
        <ele>17.1</ele>
        <time>2022-02-15T08:55:37Z</time>
      </trkpt>
      <trkpt lat="48.97868" lon="2.09108">
        <ele>16</ele>
        <time>2022-02-15T08:55:40Z</time>
      </trkpt>
      <trkpt lat="48.97866" lon="2.09115">
        <ele>15.5</ele>
        <time>2022-02-15T08:55:44Z</time>
      </trkpt>
      <trkpt lat="48.97863" lon="2.09122">
        <ele>15.7</ele>
        <time>2022-02-15T08:55:48Z</time>
      </trkpt>
      <trkpt lat="48.97861" lon="2.0913">
        <ele>16.2</ele>
        <time>2022-02-15T08:55:52Z</time>
      </trkpt>
      <trkpt lat="48.97859" lon="2.09137">
        <ele>17.3</ele>
        <time>2022-02-15T08:55:56Z</time>
      </trkpt>
      <trkpt lat="48.97857" lon="2.09145">
        <ele>18.7</ele>
        <time>2022-02-15T08:56:00Z</time>
      </trkpt>
      <trkpt lat="48.97854" lon="2.09151">
        <ele>19.2</ele>
        <time>2022-02-15T08:56:02Z</time>
      </trkpt>
      <trkpt lat="48.97851" lon="2.09157">
        <ele>19.8</ele>
        <time>2022-02-15T08:56:06Z</time>
      </trkpt>
      <trkpt lat="48.97848" lon="2.09164">
        <ele>20.1</ele>
        <time>2022-02-15T08:56:10Z</time>
      </trkpt>
      <trkpt lat="48.97845" lon="2.0917">
        <ele>19.9</ele>
        <time>2022-02-15T08:56:14Z</time>
      </trkpt>
      <trkpt lat="48.97841" lon="2.09176">
        <ele>19.3</ele>
        <time>2022-02-15T08:56:17Z</time>
      </trkpt>
      <trkpt lat="48.97837" lon="2.09183">
        <ele>19.2</ele>
        <time>2022-02-15T08:56:21Z</time>
      </trkpt>
      <trkpt lat="48.97834" lon="2.09188">
        <ele>19.7</ele>
        <time>2022-02-15T08:56:24Z</time>
      </trkpt>
      <trkpt lat="48.9783" lon="2.09193">
        <ele>20.3</ele>
        <time>2022-02-15T08:56:28Z</time>
      </trkpt>
      <trkpt lat="48.97827" lon="2.09197">
        <ele>20.7</ele>
        <time>2022-02-15T08:56:30Z</time>
      </trkpt>
      <trkpt lat="48.97824" lon="2.09204">
        <ele>21.6</ele>
        <time>2022-02-15T08:56:34Z</time>
      </trkpt>
      <trkpt lat="48.97821" lon="2.0921">
        <ele>22.9</ele>
        <time>2022-02-15T08:56:38Z</time>
      </trkpt>
      <trkpt lat="48.97819" lon="2.09217">
        <ele>24.1</ele>
        <time>2022-02-15T08:56:43Z</time>
      </trkpt>
      <trkpt lat="48.97815" lon="2.09224">
        <ele>25.5</ele>
        <time>2022-02-15T08:56:47Z</time>
      </trkpt>
      <trkpt lat="48.97811" lon="2.09231">
        <ele>26.1</ele>
        <time>2022-02-15T08:56:50Z</time>
      </trkpt>
      <trkpt lat="48.97808" lon="2.09238">
        <ele>26.5</ele>
        <time>2022-02-15T08:56:54Z</time>
      </trkpt>
      <trkpt lat="48.97806" lon="2.09244">
        <ele>26.6</ele>
        <time>2022-02-15T08:56:57Z</time>
      </trkpt>
      <trkpt lat="48.97805" lon="2.09251">
        <ele>26.6</ele>
        <time>2022-02-15T08:57:01Z</time>
      </trkpt>
      <trkpt lat="48.97804" lon="2.0926">
        <ele>26.4</ele>
        <time>2022-02-15T08:57:04Z</time>
      </trkpt>
      <trkpt lat="48.97802" lon="2.0927">
        <ele>26.1</ele>
        <time>2022-02-15T08:57:09Z</time>
      </trkpt>
      <trkpt lat="48.97801" lon="2.09278">
        <ele>26.2</ele>
        <time>2022-02-15T08:57:13Z</time>
      </trkpt>
      <trkpt lat="48.97799" lon="2.09287">
        <ele>26.9</ele>
        <time>2022-02-15T08:57:17Z</time>
      </trkpt>
      <trkpt lat="48.97799" lon="2.09294">
        <ele>28.1</ele>
        <time>2022-02-15T08:57:20Z</time>
      </trkpt>
      <trkpt lat="48.97798" lon="2.09302">
        <ele>29</ele>
        <time>2022-02-15T08:57:24Z</time>
      </trkpt>
      <trkpt lat="48.97796" lon="2.09311">
        <ele>29.2</ele>
        <time>2022-02-15T08:57:29Z</time>
      </trkpt>
      <trkpt lat="48.97797" lon="2.09319">
        <ele>27.8</ele>
        <time>2022-02-15T08:57:32Z</time>
      </trkpt>
      <trkpt lat="48.97798" lon="2.09327">
        <ele>25.3</ele>
        <time>2022-02-15T08:57:35Z</time>
      </trkpt>
      <trkpt lat="48.97798" lon="2.09335">
        <ele>22.4</ele>
        <time>2022-02-15T08:57:38Z</time>
      </trkpt>
      <trkpt lat="48.97798" lon="2.09344">
        <ele>20.8</ele>
        <time>2022-02-15T08:57:42Z</time>
      </trkpt>
      <trkpt lat="48.97799" lon="2.09351">
        <ele>20.7</ele>
        <time>2022-02-15T08:57:44Z</time>
      </trkpt>
      <trkpt lat="48.97799" lon="2.09358">
        <ele>21</ele>
        <time>2022-02-15T08:57:47Z</time>
      </trkpt>
      <trkpt lat="48.97798" lon="2.09365">
        <ele>21.4</ele>
        <time>2022-02-15T08:57:51Z</time>
      </trkpt>
      <trkpt lat="48.97798" lon="2.09374">
        <ele>21.3</ele>
        <time>2022-02-15T08:57:55Z</time>
      </trkpt>
      <trkpt lat="48.97799" lon="2.09381">
        <ele>20.8</ele>
        <time>2022-02-15T08:57:58Z</time>
      </trkpt>
      <trkpt lat="48.97801" lon="2.09387">
        <ele>20.9</ele>
        <time>2022-02-15T08:58:00Z</time>
      </trkpt>
      <trkpt lat="48.97802" lon="2.09394">
        <ele>21.6</ele>
        <time>2022-02-15T08:58:03Z</time>
      </trkpt>
      <trkpt lat="48.97803" lon="2.09403">
        <ele>22.8</ele>
        <time>2022-02-15T08:58:07Z</time>
      </trkpt>
      <trkpt lat="48.97803" lon="2.0941">
        <ele>23.1</ele>
        <time>2022-02-15T08:58:10Z</time>
      </trkpt>
      <trkpt lat="48.97805" lon="2.09421">
        <ele>22.8</ele>
        <time>2022-02-15T08:58:14Z</time>
      </trkpt>
      <trkpt lat="48.97806" lon="2.0943">
        <ele>23.4</ele>
        <time>2022-02-15T08:58:18Z</time>
      </trkpt>
      <trkpt lat="48.97806" lon="2.09437">
        <ele>23.9</ele>
        <time>2022-02-15T08:58:22Z</time>
      </trkpt>
      <trkpt lat="48.97808" lon="2.09446">
        <ele>24.4</ele>
        <time>2022-02-15T08:58:25Z</time>
      </trkpt>
      <trkpt lat="48.9781" lon="2.09454">
        <ele>24.2</ele>
        <time>2022-02-15T08:58:29Z</time>
      </trkpt>
      <trkpt lat="48.97812" lon="2.09461">
        <ele>24.4</ele>
        <time>2022-02-15T08:58:33Z</time>
      </trkpt>
      <trkpt lat="48.97814" lon="2.09472">
        <ele>24.2</ele>
        <time>2022-02-15T08:58:37Z</time>
      </trkpt>
      <trkpt lat="48.97814" lon="2.09481">
        <ele>24</ele>
        <time>2022-02-15T08:58:41Z</time>
      </trkpt>
      <trkpt lat="48.97814" lon="2.09489">
        <ele>24</ele>
        <time>2022-02-15T08:58:45Z</time>
      </trkpt>
      <trkpt lat="48.97815" lon="2.09498">
        <ele>23.8</ele>
        <time>2022-02-15T08:58:48Z</time>
      </trkpt>
      <trkpt lat="48.97814" lon="2.09506">
        <ele>23.6</ele>
        <time>2022-02-15T08:58:52Z</time>
      </trkpt>
      <trkpt lat="48.97814" lon="2.09515">
        <ele>24.2</ele>
        <time>2022-02-15T08:58:57Z</time>
      </trkpt>
      <trkpt lat="48.97814" lon="2.09524">
        <ele>25.3</ele>
        <time>2022-02-15T08:59:00Z</time>
      </trkpt>
      <trkpt lat="48.97814" lon="2.09532">
        <ele>26.2</ele>
        <time>2022-02-15T08:59:04Z</time>
      </trkpt>
      <trkpt lat="48.97815" lon="2.0954">
        <ele>26.5</ele>
        <time>2022-02-15T08:59:08Z</time>
      </trkpt>
      <trkpt lat="48.97814" lon="2.09547">
        <ele>27.2</ele>
        <time>2022-02-15T08:59:11Z</time>
      </trkpt>
      <trkpt lat="48.97814" lon="2.09554">
        <ele>28.2</ele>
        <time>2022-02-15T08:59:13Z</time>
      </trkpt>
      <trkpt lat="48.97814" lon="2.09562">
        <ele>29.1</ele>
        <time>2022-02-15T08:59:17Z</time>
      </trkpt>
      <trkpt lat="48.97814" lon="2.09571">
        <ele>29.7</ele>
        <time>2022-02-15T08:59:21Z</time>
      </trkpt>
      <trkpt lat="48.97815" lon="2.09579">
        <ele>29.7</ele>
        <time>2022-02-15T08:59:24Z</time>
      </trkpt>
      <trkpt lat="48.97815" lon="2.09588">
        <ele>29.1</ele>
        <time>2022-02-15T08:59:28Z</time>
      </trkpt>
      <trkpt lat="48.97815" lon="2.09597">
        <ele>28.8</ele>
        <time>2022-02-15T08:59:32Z</time>
      </trkpt>
      <trkpt lat="48.97814" lon="2.09606">
        <ele>29.1</ele>
        <time>2022-02-15T08:59:36Z</time>
      </trkpt>
      <trkpt lat="48.97813" lon="2.09614">
        <ele>30.1</ele>
        <time>2022-02-15T08:59:40Z</time>
      </trkpt>
      <trkpt lat="48.97812" lon="2.09621">
        <ele>30.5</ele>
        <time>2022-02-15T08:59:43Z</time>
      </trkpt>
      <trkpt lat="48.97812" lon="2.09628">
        <ele>30.8</ele>
        <time>2022-02-15T08:59:45Z</time>
      </trkpt>
      <trkpt lat="48.9781" lon="2.09637">
        <ele>29.8</ele>
        <time>2022-02-15T08:59:49Z</time>
      </trkpt>
      <trkpt lat="48.97808" lon="2.09645">
        <ele>28.8</ele>
        <time>2022-02-15T08:59:53Z</time>
      </trkpt>
      <trkpt lat="48.97808" lon="2.09652">
        <ele>27.6</ele>
        <time>2022-02-15T08:59:56Z</time>
      </trkpt>
      <trkpt lat="48.97807" lon="2.09659">
        <ele>26.5</ele>
        <time>2022-02-15T08:59:59Z</time>
      </trkpt>
      <trkpt lat="48.97806" lon="2.09667">
        <ele>25.9</ele>
        <time>2022-02-15T09:00:02Z</time>
      </trkpt>
      <trkpt lat="48.97804" lon="2.09674">
        <ele>25.3</ele>
        <time>2022-02-15T09:00:06Z</time>
      </trkpt>
      <trkpt lat="48.97802" lon="2.09682">
        <ele>25.8</ele>
        <time>2022-02-15T09:00:09Z</time>
      </trkpt>
      <trkpt lat="48.97801" lon="2.0969">
        <ele>25.9</ele>
        <time>2022-02-15T09:00:12Z</time>
      </trkpt>
      <trkpt lat="48.978" lon="2.09698">
        <ele>27</ele>
        <time>2022-02-15T09:00:16Z</time>
      </trkpt>
      <trkpt lat="48.97799" lon="2.09706">
        <ele>27.6</ele>
        <time>2022-02-15T09:00:19Z</time>
      </trkpt>
      <trkpt lat="48.97797" lon="2.09714">
        <ele>27.6</ele>
        <time>2022-02-15T09:00:23Z</time>
      </trkpt>
      <trkpt lat="48.97796" lon="2.0972">
        <ele>26.2</ele>
        <time>2022-02-15T09:00:26Z</time>
      </trkpt>
      <trkpt lat="48.97794" lon="2.09727">
        <ele>25.4</ele>
        <time>2022-02-15T09:00:30Z</time>
      </trkpt>
      <trkpt lat="48.97793" lon="2.09734">
        <ele>25.1</ele>
        <time>2022-02-15T09:00:33Z</time>
      </trkpt>
      <trkpt lat="48.97792" lon="2.09741">
        <ele>25.4</ele>
        <time>2022-02-15T09:00:36Z</time>
      </trkpt>
      <trkpt lat="48.97791" lon="2.09748">
        <ele>25.1</ele>
        <time>2022-02-15T09:00:40Z</time>
      </trkpt>
      <trkpt lat="48.97788" lon="2.09756">
        <ele>24.7</ele>
        <time>2022-02-15T09:00:43Z</time>
      </trkpt>
      <trkpt lat="48.97786" lon="2.09765">
        <ele>24.9</ele>
        <time>2022-02-15T09:00:47Z</time>
      </trkpt>
      <trkpt lat="48.97785" lon="2.09772">
        <ele>25.6</ele>
        <time>2022-02-15T09:00:51Z</time>
      </trkpt>
      <trkpt lat="48.97783" lon="2.09779">
        <ele>26.5</ele>
        <time>2022-02-15T09:00:54Z</time>
      </trkpt>
      <trkpt lat="48.97781" lon="2.09786">
        <ele>27.2</ele>
        <time>2022-02-15T09:00:57Z</time>
      </trkpt>
      <trkpt lat="48.97779" lon="2.09794">
        <ele>27.3</ele>
        <time>2022-02-15T09:01:01Z</time>
      </trkpt>
      <trkpt lat="48.97778" lon="2.09803">
        <ele>26.6</ele>
        <time>2022-02-15T09:01:04Z</time>
      </trkpt>
      <trkpt lat="48.97776" lon="2.09811">
        <ele>25.6</ele>
        <time>2022-02-15T09:01:08Z</time>
      </trkpt>
      <trkpt lat="48.97775" lon="2.09819">
        <ele>25.4</ele>
        <time>2022-02-15T09:01:12Z</time>
      </trkpt>
      <trkpt lat="48.97773" lon="2.09827">
        <ele>25.1</ele>
        <time>2022-02-15T09:01:16Z</time>
      </trkpt>
      <trkpt lat="48.97773" lon="2.09835">
        <ele>25.2</ele>
        <time>2022-02-15T09:01:19Z</time>
      </trkpt>
      <trkpt lat="48.97772" lon="2.09843">
        <ele>25.5</ele>
        <time>2022-02-15T09:01:22Z</time>
      </trkpt>
      <trkpt lat="48.97771" lon="2.09851">
        <ele>25.4</ele>
        <time>2022-02-15T09:01:26Z</time>
      </trkpt>
      <trkpt lat="48.97771" lon="2.0986">
        <ele>25.1</ele>
        <time>2022-02-15T09:01:30Z</time>
      </trkpt>
      <trkpt lat="48.9777" lon="2.09868">
        <ele>24.2</ele>
        <time>2022-02-15T09:01:33Z</time>
      </trkpt>
      <trkpt lat="48.9777" lon="2.09876">
        <ele>23.4</ele>
        <time>2022-02-15T09:01:37Z</time>
      </trkpt>
      <trkpt lat="48.97769" lon="2.09883">
        <ele>22.9</ele>
        <time>2022-02-15T09:01:40Z</time>
      </trkpt>
      <trkpt lat="48.97768" lon="2.09891">
        <ele>22.9</ele>
        <time>2022-02-15T09:01:43Z</time>
      </trkpt>
      <trkpt lat="48.97766" lon="2.09899">
        <ele>23.4</ele>
        <time>2022-02-15T09:01:47Z</time>
      </trkpt>
      <trkpt lat="48.97764" lon="2.09907">
        <ele>24.2</ele>
        <time>2022-02-15T09:01:51Z</time>
      </trkpt>
      <trkpt lat="48.97762" lon="2.09916">
        <ele>24.5</ele>
        <time>2022-02-15T09:01:55Z</time>
      </trkpt>
      <trkpt lat="48.97761" lon="2.09925">
        <ele>24.1</ele>
        <time>2022-02-15T09:01:59Z</time>
      </trkpt>
      <trkpt lat="48.97761" lon="2.09933">
        <ele>23.7</ele>
        <time>2022-02-15T09:02:02Z</time>
      </trkpt>
      <trkpt lat="48.97759" lon="2.09942">
        <ele>23.1</ele>
        <time>2022-02-15T09:02:07Z</time>
      </trkpt>
      <trkpt lat="48.97756" lon="2.09949">
        <ele>22.8</ele>
        <time>2022-02-15T09:02:10Z</time>
      </trkpt>
      <trkpt lat="48.97753" lon="2.09954">
        <ele>22.6</ele>
        <time>2022-02-15T09:02:13Z</time>
      </trkpt>
      <trkpt lat="48.97748" lon="2.09961">
        <ele>22.8</ele>
        <time>2022-02-15T09:02:17Z</time>
      </trkpt>
      <trkpt lat="48.97742" lon="2.09965">
        <ele>23.3</ele>
        <time>2022-02-15T09:02:21Z</time>
      </trkpt>
      <trkpt lat="48.97738" lon="2.09968">
        <ele>23.9</ele>
        <time>2022-02-15T09:02:23Z</time>
      </trkpt>
      <trkpt lat="48.97734" lon="2.09972">
        <ele>24.6</ele>
        <time>2022-02-15T09:02:27Z</time>
      </trkpt>
      <trkpt lat="48.97729" lon="2.09976">
        <ele>24.1</ele>
        <time>2022-02-15T09:02:30Z</time>
      </trkpt>
      <trkpt lat="48.97723" lon="2.09978">
        <ele>22</ele>
        <time>2022-02-15T09:02:33Z</time>
      </trkpt>
      <trkpt lat="48.97719" lon="2.0998">
        <ele>20.8</ele>
        <time>2022-02-15T09:02:36Z</time>
      </trkpt>
      <trkpt lat="48.97714" lon="2.09981">
        <ele>20.2</ele>
        <time>2022-02-15T09:02:39Z</time>
      </trkpt>
      <trkpt lat="48.97709" lon="2.0998">
        <ele>20.8</ele>
        <time>2022-02-15T09:02:43Z</time>
      </trkpt>
      <trkpt lat="48.97704" lon="2.09978">
        <ele>22.7</ele>
        <time>2022-02-15T09:02:45Z</time>
      </trkpt>
      <trkpt lat="48.97699" lon="2.09977">
        <ele>24.9</ele>
        <time>2022-02-15T09:02:49Z</time>
      </trkpt>
      <trkpt lat="48.97693" lon="2.09973">
        <ele>25.1</ele>
        <time>2022-02-15T09:02:53Z</time>
      </trkpt>
      <trkpt lat="48.97688" lon="2.0997">
        <ele>25.2</ele>
        <time>2022-02-15T09:02:56Z</time>
      </trkpt>
      <trkpt lat="48.97683" lon="2.09966">
        <ele>25.9</ele>
        <time>2022-02-15T09:02:59Z</time>
      </trkpt>
      <trkpt lat="48.97678" lon="2.09964">
        <ele>27</ele>
        <time>2022-02-15T09:03:03Z</time>
      </trkpt>
      <trkpt lat="48.97673" lon="2.09961">
        <ele>27.8</ele>
        <time>2022-02-15T09:03:06Z</time>
      </trkpt>
      <trkpt lat="48.97667" lon="2.0996">
        <ele>28.1</ele>
        <time>2022-02-15T09:03:10Z</time>
      </trkpt>
      <trkpt lat="48.97661" lon="2.0996">
        <ele>27.5</ele>
        <time>2022-02-15T09:03:14Z</time>
      </trkpt>
      <trkpt lat="48.97656" lon="2.09958">
        <ele>26.4</ele>
        <time>2022-02-15T09:03:18Z</time>
      </trkpt>
      <trkpt lat="48.9765" lon="2.09956">
        <ele>25.5</ele>
        <time>2022-02-15T09:03:22Z</time>
      </trkpt>
      <trkpt lat="48.97646" lon="2.09952">
        <ele>25.4</ele>
        <time>2022-02-15T09:03:24Z</time>
      </trkpt>
      <trkpt lat="48.97641" lon="2.09949">
        <ele>25.6</ele>
        <time>2022-02-15T09:03:28Z</time>
      </trkpt>
      <trkpt lat="48.97637" lon="2.09946">
        <ele>25.5</ele>
        <time>2022-02-15T09:03:32Z</time>
      </trkpt>
      <trkpt lat="48.97632" lon="2.09943">
        <ele>24.7</ele>
        <time>2022-02-15T09:03:35Z</time>
      </trkpt>
      <trkpt lat="48.97627" lon="2.0994">
        <ele>24.6</ele>
        <time>2022-02-15T09:03:39Z</time>
      </trkpt>
      <trkpt lat="48.97622" lon="2.09938">
        <ele>24.6</ele>
        <time>2022-02-15T09:03:43Z</time>
      </trkpt>
      <trkpt lat="48.97616" lon="2.09937">
        <ele>25.4</ele>
        <time>2022-02-15T09:03:47Z</time>
      </trkpt>
      <trkpt lat="48.97611" lon="2.09935">
        <ele>26.4</ele>
        <time>2022-02-15T09:03:50Z</time>
      </trkpt>
      <trkpt lat="48.97605" lon="2.09934">
        <ele>26.9</ele>
        <time>2022-02-15T09:03:55Z</time>
      </trkpt>
      <trkpt lat="48.976" lon="2.09932">
        <ele>25.7</ele>
        <time>2022-02-15T09:03:59Z</time>
      </trkpt>
      <trkpt lat="48.97594" lon="2.0993">
        <ele>25</ele>
        <time>2022-02-15T09:04:03Z</time>
      </trkpt>
      <trkpt lat="48.97589" lon="2.09927">
        <ele>25.1</ele>
        <time>2022-02-15T09:04:07Z</time>
      </trkpt>
      <trkpt lat="48.97583" lon="2.09927">
        <ele>25.8</ele>
        <time>2022-02-15T09:04:10Z</time>
      </trkpt>
      <trkpt lat="48.97578" lon="2.09929">
        <ele>26.4</ele>
        <time>2022-02-15T09:04:14Z</time>
      </trkpt>
      <trkpt lat="48.97575" lon="2.09936">
        <ele>26.8</ele>
        <time>2022-02-15T09:04:18Z</time>
      </trkpt>
      <trkpt lat="48.97574" lon="2.09942">
        <ele>27.6</ele>
        <time>2022-02-15T09:04:21Z</time>
      </trkpt>
      <trkpt lat="48.97573" lon="2.09951">
        <ele>27.1</ele>
        <time>2022-02-15T09:04:24Z</time>
      </trkpt>
      <trkpt lat="48.97571" lon="2.09958">
        <ele>26.2</ele>
        <time>2022-02-15T09:04:27Z</time>
      </trkpt>
      <trkpt lat="48.97569" lon="2.09966">
        <ele>24.7</ele>
        <time>2022-02-15T09:04:31Z</time>
      </trkpt>
      <trkpt lat="48.97566" lon="2.09974">
        <ele>24.3</ele>
        <time>2022-02-15T09:04:35Z</time>
      </trkpt>
      <trkpt lat="48.97564" lon="2.09981">
        <ele>24.2</ele>
        <time>2022-02-15T09:04:38Z</time>
      </trkpt>
      <trkpt lat="48.97562" lon="2.09989">
        <ele>24.6</ele>
        <time>2022-02-15T09:04:42Z</time>
      </trkpt>
      <trkpt lat="48.9756" lon="2.09996">
        <ele>25.1</ele>
        <time>2022-02-15T09:04:45Z</time>
      </trkpt>
      <trkpt lat="48.97558" lon="2.10004">
        <ele>26.3</ele>
        <time>2022-02-15T09:04:49Z</time>
      </trkpt>
      <trkpt lat="48.97556" lon="2.10011">
        <ele>27.5</ele>
        <time>2022-02-15T09:04:53Z</time>
      </trkpt>
      <trkpt lat="48.97554" lon="2.10019">
        <ele>28.4</ele>
        <time>2022-02-15T09:04:56Z</time>
      </trkpt>
      <trkpt lat="48.97552" lon="2.10027">
        <ele>28.8</ele>
        <time>2022-02-15T09:05:00Z</time>
      </trkpt>
      <trkpt lat="48.9755" lon="2.10035">
        <ele>29.1</ele>
        <time>2022-02-15T09:05:04Z</time>
      </trkpt>
      <trkpt lat="48.97548" lon="2.10043">
        <ele>29.1</ele>
        <time>2022-02-15T09:05:07Z</time>
      </trkpt>
      <trkpt lat="48.97546" lon="2.10052">
        <ele>28.5</ele>
        <time>2022-02-15T09:05:11Z</time>
      </trkpt>
      <trkpt lat="48.9753" lon="2.1007">
        <ele>28.2</ele>
        <time>2022-02-15T09:05:28Z</time>
      </trkpt>
      <trkpt lat="48.97524" lon="2.10068">
        <ele>30.3</ele>
        <time>2022-02-15T09:05:32Z</time>
      </trkpt>
      <trkpt lat="48.97519" lon="2.10068">
        <ele>32.4</ele>
        <time>2022-02-15T09:05:36Z</time>
      </trkpt>
      <trkpt lat="48.97513" lon="2.10067">
        <ele>34.4</ele>
        <time>2022-02-15T09:05:40Z</time>
      </trkpt>
      <trkpt lat="48.97508" lon="2.10066">
        <ele>35.2</ele>
        <time>2022-02-15T09:05:44Z</time>
      </trkpt>
      <trkpt lat="48.97503" lon="2.10064">
        <ele>35</ele>
        <time>2022-02-15T09:05:47Z</time>
      </trkpt>
      <trkpt lat="48.97497" lon="2.10064">
        <ele>34.8</ele>
        <time>2022-02-15T09:05:51Z</time>
      </trkpt>
      <trkpt lat="48.97493" lon="2.10064">
        <ele>34.9</ele>
        <time>2022-02-15T09:05:55Z</time>
      </trkpt>
      <trkpt lat="48.97487" lon="2.10065">
        <ele>35.6</ele>
        <time>2022-02-15T09:05:58Z</time>
      </trkpt>
      <trkpt lat="48.97482" lon="2.10063">
        <ele>35.4</ele>
        <time>2022-02-15T09:06:02Z</time>
      </trkpt>
      <trkpt lat="48.97478" lon="2.10062">
        <ele>34.9</ele>
        <time>2022-02-15T09:06:06Z</time>
      </trkpt>
      <trkpt lat="48.97473" lon="2.10061">
        <ele>34.4</ele>
        <time>2022-02-15T09:06:10Z</time>
      </trkpt>
      <trkpt lat="48.97468" lon="2.1006">
        <ele>33.5</ele>
        <time>2022-02-15T09:06:13Z</time>
      </trkpt>
      <trkpt lat="48.97462" lon="2.1006">
        <ele>33.4</ele>
        <time>2022-02-15T09:06:18Z</time>
      </trkpt>
      <trkpt lat="48.97457" lon="2.10059">
        <ele>33.5</ele>
        <time>2022-02-15T09:06:21Z</time>
      </trkpt>
      <trkpt lat="48.97452" lon="2.10059">
        <ele>33.5</ele>
        <time>2022-02-15T09:06:24Z</time>
      </trkpt>
      <trkpt lat="48.97447" lon="2.10058">
        <ele>32.3</ele>
        <time>2022-02-15T09:06:28Z</time>
      </trkpt>
      <trkpt lat="48.97441" lon="2.10056">
        <ele>31.9</ele>
        <time>2022-02-15T09:06:32Z</time>
      </trkpt>
      <trkpt lat="48.97437" lon="2.10056">
        <ele>32.5</ele>
        <time>2022-02-15T09:06:35Z</time>
      </trkpt>
      <trkpt lat="48.97432" lon="2.10055">
        <ele>33.5</ele>
        <time>2022-02-15T09:06:39Z</time>
      </trkpt>
      <trkpt lat="48.97427" lon="2.10054">
        <ele>33.8</ele>
        <time>2022-02-15T09:06:42Z</time>
      </trkpt>
      <trkpt lat="48.97421" lon="2.10053">
        <ele>33.2</ele>
        <time>2022-02-15T09:06:46Z</time>
      </trkpt>
      <trkpt lat="48.97417" lon="2.10052">
        <ele>32.9</ele>
        <time>2022-02-15T09:06:50Z</time>
      </trkpt>
      <trkpt lat="48.97411" lon="2.10052">
        <ele>33.1</ele>
        <time>2022-02-15T09:06:54Z</time>
      </trkpt>
      <trkpt lat="48.97406" lon="2.10051">
        <ele>32.9</ele>
        <time>2022-02-15T09:06:57Z</time>
      </trkpt>
      <trkpt lat="48.97401" lon="2.10051">
        <ele>31.9</ele>
        <time>2022-02-15T09:07:01Z</time>
      </trkpt>
      <trkpt lat="48.97396" lon="2.1005">
        <ele>31.7</ele>
        <time>2022-02-15T09:07:05Z</time>
      </trkpt>
      <trkpt lat="48.9739" lon="2.10049">
        <ele>32.3</ele>
        <time>2022-02-15T09:07:09Z</time>
      </trkpt>
      <trkpt lat="48.97385" lon="2.10048">
        <ele>33</ele>
        <time>2022-02-15T09:07:12Z</time>
      </trkpt>
      <trkpt lat="48.97379" lon="2.10049">
        <ele>33.1</ele>
        <time>2022-02-15T09:07:17Z</time>
      </trkpt>
      <trkpt lat="48.97374" lon="2.10049">
        <ele>32.4</ele>
        <time>2022-02-15T09:07:21Z</time>
      </trkpt>
      <trkpt lat="48.97369" lon="2.1005">
        <ele>31.1</ele>
        <time>2022-02-15T09:07:25Z</time>
      </trkpt>
      <trkpt lat="48.97363" lon="2.10049">
        <ele>31.1</ele>
        <time>2022-02-15T09:07:28Z</time>
      </trkpt>
      <trkpt lat="48.97358" lon="2.10047">
        <ele>33.2</ele>
        <time>2022-02-15T09:07:32Z</time>
      </trkpt>
      <trkpt lat="48.97353" lon="2.10044">
        <ele>35.1</ele>
        <time>2022-02-15T09:07:36Z</time>
      </trkpt>
      <trkpt lat="48.97348" lon="2.10044">
        <ele>36.1</ele>
        <time>2022-02-15T09:07:39Z</time>
      </trkpt>
      <trkpt lat="48.97342" lon="2.10043">
        <ele>36.2</ele>
        <time>2022-02-15T09:07:44Z</time>
      </trkpt>
      <trkpt lat="48.97336" lon="2.10041">
        <ele>35.6</ele>
        <time>2022-02-15T09:07:47Z</time>
      </trkpt>
      <trkpt lat="48.97331" lon="2.10038">
        <ele>35.4</ele>
        <time>2022-02-15T09:07:51Z</time>
      </trkpt>
      <trkpt lat="48.97326" lon="2.10037">
        <ele>35.9</ele>
        <time>2022-02-15T09:07:55Z</time>
      </trkpt>
      <trkpt lat="48.97322" lon="2.10036">
        <ele>36.8</ele>
        <time>2022-02-15T09:07:59Z</time>
      </trkpt>
      <trkpt lat="48.97316" lon="2.10034">
        <ele>37.8</ele>
        <time>2022-02-15T09:08:03Z</time>
      </trkpt>
      <trkpt lat="48.97311" lon="2.10034">
        <ele>38.5</ele>
        <time>2022-02-15T09:08:06Z</time>
      </trkpt>
      <trkpt lat="48.97306" lon="2.10034">
        <ele>39.1</ele>
        <time>2022-02-15T09:08:10Z</time>
      </trkpt>
      <trkpt lat="48.973" lon="2.10034">
        <ele>41.3</ele>
        <time>2022-02-15T09:08:14Z</time>
      </trkpt>
      <trkpt lat="48.97294" lon="2.10033">
        <ele>44.2</ele>
        <time>2022-02-15T09:08:18Z</time>
      </trkpt>
      <trkpt lat="48.97289" lon="2.10033">
        <ele>45</ele>
        <time>2022-02-15T09:08:22Z</time>
      </trkpt>
      <trkpt lat="48.97284" lon="2.10033">
        <ele>44.9</ele>
        <time>2022-02-15T09:08:25Z</time>
      </trkpt>
      <trkpt lat="48.97278" lon="2.10033">
        <ele>44.4</ele>
        <time>2022-02-15T09:08:28Z</time>
      </trkpt>
      <trkpt lat="48.97272" lon="2.10032">
        <ele>43.6</ele>
        <time>2022-02-15T09:08:32Z</time>
      </trkpt>
      <trkpt lat="48.97267" lon="2.1003">
        <ele>43</ele>
        <time>2022-02-15T09:08:36Z</time>
      </trkpt>
      <trkpt lat="48.97261" lon="2.10029">
        <ele>42.8</ele>
        <time>2022-02-15T09:08:40Z</time>
      </trkpt>
      <trkpt lat="48.97256" lon="2.10028">
        <ele>42.9</ele>
        <time>2022-02-15T09:08:44Z</time>
      </trkpt>
      <trkpt lat="48.97221" lon="2.10028">
        <ele>46.6</ele>
        <time>2022-02-15T09:09:07Z</time>
      </trkpt>
      <trkpt lat="48.97216" lon="2.10028">
        <ele>46.5</ele>
        <time>2022-02-15T09:09:10Z</time>
      </trkpt>
      <trkpt lat="48.9721" lon="2.10027">
        <ele>44.3</ele>
        <time>2022-02-15T09:09:15Z</time>
      </trkpt>
      <trkpt lat="48.97204" lon="2.10028">
        <ele>42.1</ele>
        <time>2022-02-15T09:09:18Z</time>
      </trkpt>
      <trkpt lat="48.972" lon="2.10027">
        <ele>41.4</ele>
        <time>2022-02-15T09:09:22Z</time>
      </trkpt>
      <trkpt lat="48.97195" lon="2.10028">
        <ele>41.4</ele>
        <time>2022-02-15T09:09:26Z</time>
      </trkpt>
      <trkpt lat="48.9719" lon="2.10028">
        <ele>41.3</ele>
        <time>2022-02-15T09:09:29Z</time>
      </trkpt>
      <trkpt lat="48.97184" lon="2.10027">
        <ele>41</ele>
        <time>2022-02-15T09:09:32Z</time>
      </trkpt>
      <trkpt lat="48.97178" lon="2.10026">
        <ele>40.8</ele>
        <time>2022-02-15T09:09:36Z</time>
      </trkpt>
      <trkpt lat="48.97179" lon="2.10033">
        <ele>40.7</ele>
        <time>2022-02-15T09:09:42Z</time>
      </trkpt>
      <trkpt lat="48.97175" lon="2.10028">
        <ele>36.5</ele>
        <time>2022-02-15T09:11:45Z</time>
      </trkpt>
      <trkpt lat="48.97168" lon="2.10034">
        <ele>30.2</ele>
        <time>2022-02-15T09:12:19Z</time>
      </trkpt>
      <trkpt lat="48.97163" lon="2.10039">
        <ele>31.1</ele>
        <time>2022-02-15T09:12:24Z</time>
      </trkpt>
      <trkpt lat="48.97159" lon="2.10043">
        <ele>32.6</ele>
        <time>2022-02-15T09:12:27Z</time>
      </trkpt>
      <trkpt lat="48.97154" lon="2.10048">
        <ele>33.8</ele>
        <time>2022-02-15T09:12:31Z</time>
      </trkpt>
      <trkpt lat="48.9715" lon="2.10051">
        <ele>36.3</ele>
        <time>2022-02-15T09:12:34Z</time>
      </trkpt>
      <trkpt lat="48.97145" lon="2.10054">
        <ele>37.6</ele>
        <time>2022-02-15T09:12:39Z</time>
      </trkpt>
      <trkpt lat="48.9714" lon="2.10055">
        <ele>36.1</ele>
        <time>2022-02-15T09:12:42Z</time>
      </trkpt>
      <trkpt lat="48.97135" lon="2.10057">
        <ele>33.2</ele>
        <time>2022-02-15T09:12:46Z</time>
      </trkpt>
      <trkpt lat="48.97131" lon="2.10062">
        <ele>32.5</ele>
        <time>2022-02-15T09:12:50Z</time>
      </trkpt>
      <trkpt lat="48.97127" lon="2.10068">
        <ele>34.7</ele>
        <time>2022-02-15T09:12:54Z</time>
      </trkpt>
      <trkpt lat="48.97127" lon="2.10078">
        <ele>38.1</ele>
        <time>2022-02-15T09:12:57Z</time>
      </trkpt>
      <trkpt lat="48.97125" lon="2.10085">
        <ele>41.8</ele>
        <time>2022-02-15T09:13:00Z</time>
      </trkpt>
      <trkpt lat="48.97123" lon="2.10091">
        <ele>43.4</ele>
        <time>2022-02-15T09:13:03Z</time>
      </trkpt>
      <trkpt lat="48.9712" lon="2.10099">
        <ele>43.8</ele>
        <time>2022-02-15T09:13:07Z</time>
      </trkpt>
      <trkpt lat="48.97117" lon="2.10106">
        <ele>42.6</ele>
        <time>2022-02-15T09:13:09Z</time>
      </trkpt>
      <trkpt lat="48.97113" lon="2.10111">
        <ele>42.2</ele>
        <time>2022-02-15T09:13:13Z</time>
      </trkpt>
      <trkpt lat="48.97109" lon="2.10116">
        <ele>42.8</ele>
        <time>2022-02-15T09:13:17Z</time>
      </trkpt>
      <trkpt lat="48.97106" lon="2.1012">
        <ele>43.2</ele>
        <time>2022-02-15T09:13:20Z</time>
      </trkpt>
      <trkpt lat="48.97102" lon="2.10126">
        <ele>43</ele>
        <time>2022-02-15T09:13:23Z</time>
      </trkpt>
      <trkpt lat="48.97098" lon="2.1013">
        <ele>42.8</ele>
        <time>2022-02-15T09:13:26Z</time>
      </trkpt>
      <trkpt lat="48.97093" lon="2.10134">
        <ele>43.6</ele>
        <time>2022-02-15T09:13:30Z</time>
      </trkpt>
      <trkpt lat="48.97088" lon="2.10138">
        <ele>44.9</ele>
        <time>2022-02-15T09:13:34Z</time>
      </trkpt>
      <trkpt lat="48.97085" lon="2.10143">
        <ele>46.2</ele>
        <time>2022-02-15T09:13:37Z</time>
      </trkpt>
      <trkpt lat="48.97082" lon="2.10148">
        <ele>47</ele>
        <time>2022-02-15T09:13:40Z</time>
      </trkpt>
      <trkpt lat="48.97078" lon="2.10154">
        <ele>48</ele>
        <time>2022-02-15T09:13:44Z</time>
      </trkpt>
      <trkpt lat="48.97074" lon="2.10159">
        <ele>47.5</ele>
        <time>2022-02-15T09:13:47Z</time>
      </trkpt>
      <trkpt lat="48.97068" lon="2.10163">
        <ele>47.2</ele>
        <time>2022-02-15T09:13:52Z</time>
      </trkpt>
      <trkpt lat="48.97064" lon="2.10167">
        <ele>47.1</ele>
        <time>2022-02-15T09:13:55Z</time>
      </trkpt>
      <trkpt lat="48.97059" lon="2.1017">
        <ele>47.4</ele>
        <time>2022-02-15T09:13:58Z</time>
      </trkpt>
      <trkpt lat="48.97055" lon="2.10176">
        <ele>47.7</ele>
        <time>2022-02-15T09:14:02Z</time>
      </trkpt>
      <trkpt lat="48.97051" lon="2.10183">
        <ele>48.1</ele>
        <time>2022-02-15T09:14:06Z</time>
      </trkpt>
      <trkpt lat="48.97048" lon="2.1019">
        <ele>48</ele>
        <time>2022-02-15T09:14:10Z</time>
      </trkpt>
      <trkpt lat="48.97045" lon="2.10196">
        <ele>47.4</ele>
        <time>2022-02-15T09:14:12Z</time>
      </trkpt>
      <trkpt lat="48.97043" lon="2.10203">
        <ele>46</ele>
        <time>2022-02-15T09:14:15Z</time>
      </trkpt>
      <trkpt lat="48.9704" lon="2.10209">
        <ele>45.3</ele>
        <time>2022-02-15T09:14:19Z</time>
      </trkpt>
      <trkpt lat="48.97037" lon="2.10217">
        <ele>44.8</ele>
        <time>2022-02-15T09:14:22Z</time>
      </trkpt>
      <trkpt lat="48.97036" lon="2.10226">
        <ele>43.8</ele>
        <time>2022-02-15T09:14:26Z</time>
      </trkpt>
      <trkpt lat="48.97037" lon="2.10235">
        <ele>42.9</ele>
        <time>2022-02-15T09:14:29Z</time>
      </trkpt>
      <trkpt lat="48.97038" lon="2.10243">
        <ele>42.1</ele>
        <time>2022-02-15T09:14:33Z</time>
      </trkpt>
      <trkpt lat="48.97039" lon="2.10251">
        <ele>41.7</ele>
        <time>2022-02-15T09:14:35Z</time>
      </trkpt>
      <trkpt lat="48.97041" lon="2.1026">
        <ele>41.7</ele>
        <time>2022-02-15T09:14:39Z</time>
      </trkpt>
      <trkpt lat="48.97042" lon="2.10269">
        <ele>42.3</ele>
        <time>2022-02-15T09:14:43Z</time>
      </trkpt>
      <trkpt lat="48.97042" lon="2.10276">
        <ele>42.4</ele>
        <time>2022-02-15T09:14:47Z</time>
      </trkpt>
      <trkpt lat="48.97041" lon="2.10285">
        <ele>42</ele>
        <time>2022-02-15T09:14:50Z</time>
      </trkpt>
      <trkpt lat="48.97042" lon="2.10293">
        <ele>41.7</ele>
        <time>2022-02-15T09:14:54Z</time>
      </trkpt>
      <trkpt lat="48.97045" lon="2.103">
        <ele>41.3</ele>
        <time>2022-02-15T09:14:57Z</time>
      </trkpt>
      <trkpt lat="48.97051" lon="2.10303">
        <ele>40.5</ele>
        <time>2022-02-15T09:15:01Z</time>
      </trkpt>
      <trkpt lat="48.97056" lon="2.10304">
        <ele>38.7</ele>
        <time>2022-02-15T09:15:04Z</time>
      </trkpt>
      <trkpt lat="48.9706" lon="2.10308">
        <ele>37.5</ele>
        <time>2022-02-15T09:15:08Z</time>
      </trkpt>
      <trkpt lat="48.97064" lon="2.10313">
        <ele>36.5</ele>
        <time>2022-02-15T09:15:12Z</time>
      </trkpt>
      <trkpt lat="48.97067" lon="2.10319">
        <ele>35.2</ele>
        <time>2022-02-15T09:15:15Z</time>
      </trkpt>
      <trkpt lat="48.9707" lon="2.10326">
        <ele>34.6</ele>
        <time>2022-02-15T09:15:18Z</time>
      </trkpt>
      <trkpt lat="48.97074" lon="2.10332">
        <ele>33.9</ele>
        <time>2022-02-15T09:15:22Z</time>
      </trkpt>
      <trkpt lat="48.97079" lon="2.10336">
        <ele>32.7</ele>
        <time>2022-02-15T09:15:26Z</time>
      </trkpt>
      <trkpt lat="48.97082" lon="2.10343">
        <ele>30.7</ele>
        <time>2022-02-15T09:15:30Z</time>
      </trkpt>
      <trkpt lat="48.97084" lon="2.10351">
        <ele>30.1</ele>
        <time>2022-02-15T09:15:34Z</time>
      </trkpt>
      <trkpt lat="48.97084" lon="2.10359">
        <ele>30.7</ele>
        <time>2022-02-15T09:15:36Z</time>
      </trkpt>
      <trkpt lat="48.97082" lon="2.10367">
        <ele>31.5</ele>
        <time>2022-02-15T09:15:39Z</time>
      </trkpt>
      <trkpt lat="48.97083" lon="2.10376">
        <ele>33</ele>
        <time>2022-02-15T09:15:42Z</time>
      </trkpt>
      <trkpt lat="48.97082" lon="2.10385">
        <ele>33.6</ele>
        <time>2022-02-15T09:15:46Z</time>
      </trkpt>
      <trkpt lat="48.97083" lon="2.10392">
        <ele>33.5</ele>
        <time>2022-02-15T09:15:49Z</time>
      </trkpt>
      <trkpt lat="48.97085" lon="2.104">
        <ele>32.7</ele>
        <time>2022-02-15T09:15:53Z</time>
      </trkpt>
      <trkpt lat="48.97086" lon="2.10408">
        <ele>32.3</ele>
        <time>2022-02-15T09:15:57Z</time>
      </trkpt>
      <trkpt lat="48.97088" lon="2.10416">
        <ele>33</ele>
        <time>2022-02-15T09:16:01Z</time>
      </trkpt>
      <trkpt lat="48.97088" lon="2.10423">
        <ele>34.3</ele>
        <time>2022-02-15T09:16:03Z</time>
      </trkpt>
      <trkpt lat="48.97088" lon="2.10431">
        <ele>35.8</ele>
        <time>2022-02-15T09:16:06Z</time>
      </trkpt>
      <trkpt lat="48.97089" lon="2.1044">
        <ele>36.7</ele>
        <time>2022-02-15T09:16:09Z</time>
      </trkpt>
      <trkpt lat="48.9709" lon="2.10448">
        <ele>36.7</ele>
        <time>2022-02-15T09:16:13Z</time>
      </trkpt>
      <trkpt lat="48.97091" lon="2.10458">
        <ele>35.9</ele>
        <time>2022-02-15T09:16:17Z</time>
      </trkpt>
      <trkpt lat="48.97091" lon="2.10467">
        <ele>35.3</ele>
        <time>2022-02-15T09:16:21Z</time>
      </trkpt>
      <trkpt lat="48.97093" lon="2.10476">
        <ele>35</ele>
        <time>2022-02-15T09:16:24Z</time>
      </trkpt>
      <trkpt lat="48.97094" lon="2.10484">
        <ele>35.2</ele>
        <time>2022-02-15T09:16:28Z</time>
      </trkpt>
      <trkpt lat="48.97093" lon="2.10491">
        <ele>35.9</ele>
        <time>2022-02-15T09:16:30Z</time>
      </trkpt>
      <trkpt lat="48.97094" lon="2.10499">
        <ele>36.5</ele>
        <time>2022-02-15T09:16:33Z</time>
      </trkpt>
      <trkpt lat="48.97094" lon="2.10507">
        <ele>37.4</ele>
        <time>2022-02-15T09:16:37Z</time>
      </trkpt>
      <trkpt lat="48.97095" lon="2.10515">
        <ele>38.2</ele>
        <time>2022-02-15T09:16:41Z</time>
      </trkpt>
      <trkpt lat="48.97096" lon="2.10523">
        <ele>38.9</ele>
        <time>2022-02-15T09:16:44Z</time>
      </trkpt>
      <trkpt lat="48.97096" lon="2.1053">
        <ele>39.2</ele>
        <time>2022-02-15T09:16:47Z</time>
      </trkpt>
      <trkpt lat="48.97098" lon="2.10537">
        <ele>39</ele>
        <time>2022-02-15T09:16:51Z</time>
      </trkpt>
      <trkpt lat="48.97098" lon="2.10546">
        <ele>39.7</ele>
        <time>2022-02-15T09:16:54Z</time>
      </trkpt>
      <trkpt lat="48.97098" lon="2.10553">
        <ele>40.5</ele>
        <time>2022-02-15T09:16:57Z</time>
      </trkpt>
      <trkpt lat="48.97098" lon="2.10561">
        <ele>41</ele>
        <time>2022-02-15T09:17:01Z</time>
      </trkpt>
      <trkpt lat="48.97098" lon="2.10569">
        <ele>41.1</ele>
        <time>2022-02-15T09:17:05Z</time>
      </trkpt>
      <trkpt lat="48.97097" lon="2.10576">
        <ele>41.5</ele>
        <time>2022-02-15T09:17:07Z</time>
      </trkpt>
      <trkpt lat="48.97098" lon="2.10583">
        <ele>42.3</ele>
        <time>2022-02-15T09:17:10Z</time>
      </trkpt>
      <trkpt lat="48.97097" lon="2.10592">
        <ele>43.7</ele>
        <time>2022-02-15T09:17:15Z</time>
      </trkpt>
      <trkpt lat="48.97097" lon="2.10599">
        <ele>44.1</ele>
        <time>2022-02-15T09:17:17Z</time>
      </trkpt>
      <trkpt lat="48.97097" lon="2.10607">
        <ele>43.9</ele>
        <time>2022-02-15T09:17:21Z</time>
      </trkpt>
      <trkpt lat="48.97097" lon="2.10616">
        <ele>42.4</ele>
        <time>2022-02-15T09:17:26Z</time>
      </trkpt>
      <trkpt lat="48.97096" lon="2.10625">
        <ele>41</ele>
        <time>2022-02-15T09:17:29Z</time>
      </trkpt>
      <trkpt lat="48.97096" lon="2.10633">
        <ele>40.6</ele>
        <time>2022-02-15T09:17:33Z</time>
      </trkpt>
      <trkpt lat="48.97096" lon="2.10643">
        <ele>40.7</ele>
        <time>2022-02-15T09:17:38Z</time>
      </trkpt>
      <trkpt lat="48.97096" lon="2.10651">
        <ele>40.8</ele>
        <time>2022-02-15T09:17:41Z</time>
      </trkpt>
      <trkpt lat="48.97096" lon="2.10659">
        <ele>40.4</ele>
        <time>2022-02-15T09:17:44Z</time>
      </trkpt>
      <trkpt lat="48.97096" lon="2.10666">
        <ele>39.7</ele>
        <time>2022-02-15T09:17:48Z</time>
      </trkpt>
      <trkpt lat="48.97096" lon="2.10675">
        <ele>40.1</ele>
        <time>2022-02-15T09:17:52Z</time>
      </trkpt>
      <trkpt lat="48.97097" lon="2.10682">
        <ele>41.5</ele>
        <time>2022-02-15T09:17:56Z</time>
      </trkpt>
      <trkpt lat="48.97096" lon="2.10691">
        <ele>43.2</ele>
        <time>2022-02-15T09:17:59Z</time>
      </trkpt>
      <trkpt lat="48.97096" lon="2.10699">
        <ele>43.8</ele>
        <time>2022-02-15T09:18:03Z</time>
      </trkpt>
      <trkpt lat="48.97096" lon="2.10709">
        <ele>44.1</ele>
        <time>2022-02-15T09:18:07Z</time>
      </trkpt>
      <trkpt lat="48.97096" lon="2.10716">
        <ele>44.5</ele>
        <time>2022-02-15T09:18:10Z</time>
      </trkpt>
      <trkpt lat="48.97096" lon="2.10725">
        <ele>45.1</ele>
        <time>2022-02-15T09:18:14Z</time>
      </trkpt>
      <trkpt lat="48.97096" lon="2.10733">
        <ele>44.6</ele>
        <time>2022-02-15T09:18:17Z</time>
      </trkpt>
      <trkpt lat="48.97096" lon="2.10741">
        <ele>43.3</ele>
        <time>2022-02-15T09:18:21Z</time>
      </trkpt>
      <trkpt lat="48.97097" lon="2.1075">
        <ele>42.1</ele>
        <time>2022-02-15T09:18:26Z</time>
      </trkpt>
      <trkpt lat="48.97097" lon="2.10759">
        <ele>40.9</ele>
        <time>2022-02-15T09:18:30Z</time>
      </trkpt>
      <trkpt lat="48.97097" lon="2.10766">
        <ele>40</ele>
        <time>2022-02-15T09:18:34Z</time>
      </trkpt>
      <trkpt lat="48.97098" lon="2.10774">
        <ele>38.6</ele>
        <time>2022-02-15T09:18:37Z</time>
      </trkpt>
      <trkpt lat="48.971" lon="2.10781">
        <ele>37.2</ele>
        <time>2022-02-15T09:18:41Z</time>
      </trkpt>
      <trkpt lat="48.97101" lon="2.10789">
        <ele>35.4</ele>
        <time>2022-02-15T09:18:45Z</time>
      </trkpt>
      <trkpt lat="48.97102" lon="2.10796">
        <ele>33.8</ele>
        <time>2022-02-15T09:18:49Z</time>
      </trkpt>
      <trkpt lat="48.97103" lon="2.10803">
        <ele>32.5</ele>
        <time>2022-02-15T09:18:52Z</time>
      </trkpt>
      <trkpt lat="48.97103" lon="2.10811">
        <ele>32.7</ele>
        <time>2022-02-15T09:18:55Z</time>
      </trkpt>
      <trkpt lat="48.97105" lon="2.1082">
        <ele>33.5</ele>
        <time>2022-02-15T09:18:59Z</time>
      </trkpt>
      <trkpt lat="48.97106" lon="2.10826">
        <ele>33.8</ele>
        <time>2022-02-15T09:19:03Z</time>
      </trkpt>
      <trkpt lat="48.97107" lon="2.10834">
        <ele>33.8</ele>
        <time>2022-02-15T09:19:06Z</time>
      </trkpt>
      <trkpt lat="48.97107" lon="2.10841">
        <ele>34.1</ele>
        <time>2022-02-15T09:19:09Z</time>
      </trkpt>
      <trkpt lat="48.97106" lon="2.10848">
        <ele>34.7</ele>
        <time>2022-02-15T09:19:12Z</time>
      </trkpt>
      <trkpt lat="48.97107" lon="2.10856">
        <ele>35.6</ele>
        <time>2022-02-15T09:19:16Z</time>
      </trkpt>
      <trkpt lat="48.97109" lon="2.10864">
        <ele>35.8</ele>
        <time>2022-02-15T09:19:20Z</time>
      </trkpt>
      <trkpt lat="48.97111" lon="2.10871">
        <ele>36</ele>
        <time>2022-02-15T09:19:23Z</time>
      </trkpt>
      <trkpt lat="48.97114" lon="2.10878">
        <ele>35.3</ele>
        <time>2022-02-15T09:19:27Z</time>
      </trkpt>
      <trkpt lat="48.97114" lon="2.10886">
        <ele>34.4</ele>
        <time>2022-02-15T09:19:31Z</time>
      </trkpt>
      <trkpt lat="48.97115" lon="2.10893">
        <ele>34.1</ele>
        <time>2022-02-15T09:19:34Z</time>
      </trkpt>
      <trkpt lat="48.97115" lon="2.10902">
        <ele>34.3</ele>
        <time>2022-02-15T09:19:38Z</time>
      </trkpt>
      <trkpt lat="48.97117" lon="2.1091">
        <ele>34.6</ele>
        <time>2022-02-15T09:19:42Z</time>
      </trkpt>
      <trkpt lat="48.97118" lon="2.10917">
        <ele>34.8</ele>
        <time>2022-02-15T09:19:46Z</time>
      </trkpt>
      <trkpt lat="48.9712" lon="2.10925">
        <ele>35</ele>
        <time>2022-02-15T09:19:49Z</time>
      </trkpt>
      <trkpt lat="48.9712" lon="2.10932">
        <ele>34.9</ele>
        <time>2022-02-15T09:19:52Z</time>
      </trkpt>
      <trkpt lat="48.97122" lon="2.1094">
        <ele>34.2</ele>
        <time>2022-02-15T09:19:56Z</time>
      </trkpt>
      <trkpt lat="48.97124" lon="2.10946">
        <ele>33.2</ele>
        <time>2022-02-15T09:19:58Z</time>
      </trkpt>
      <trkpt lat="48.97124" lon="2.10955">
        <ele>33</ele>
        <time>2022-02-15T09:20:02Z</time>
      </trkpt>
      <trkpt lat="48.97125" lon="2.10964">
        <ele>33.4</ele>
        <time>2022-02-15T09:20:07Z</time>
      </trkpt>
      <trkpt lat="48.97126" lon="2.10973">
        <ele>33.7</ele>
        <time>2022-02-15T09:20:11Z</time>
      </trkpt>
      <trkpt lat="48.97127" lon="2.10981">
        <ele>34.1</ele>
        <time>2022-02-15T09:20:14Z</time>
      </trkpt>
      <trkpt lat="48.97129" lon="2.10989">
        <ele>34.1</ele>
        <time>2022-02-15T09:20:18Z</time>
      </trkpt>
      <trkpt lat="48.9713" lon="2.10996">
        <ele>33.9</ele>
        <time>2022-02-15T09:20:22Z</time>
      </trkpt>
      <trkpt lat="48.97129" lon="2.11003">
        <ele>34</ele>
        <time>2022-02-15T09:20:24Z</time>
      </trkpt>
      <trkpt lat="48.97129" lon="2.11011">
        <ele>34.1</ele>
        <time>2022-02-15T09:20:27Z</time>
      </trkpt>
      <trkpt lat="48.97128" lon="2.11018">
        <ele>34.1</ele>
        <time>2022-02-15T09:20:30Z</time>
      </trkpt>
      <trkpt lat="48.97128" lon="2.11026">
        <ele>34</ele>
        <time>2022-02-15T09:20:33Z</time>
      </trkpt>
      <trkpt lat="48.97129" lon="2.11034">
        <ele>33.8</ele>
        <time>2022-02-15T09:20:37Z</time>
      </trkpt>
      <trkpt lat="48.9713" lon="2.11043">
        <ele>33.6</ele>
        <time>2022-02-15T09:20:41Z</time>
      </trkpt>
      <trkpt lat="48.97131" lon="2.11051">
        <ele>33.5</ele>
        <time>2022-02-15T09:20:44Z</time>
      </trkpt>
      <trkpt lat="48.97133" lon="2.11059">
        <ele>33.4</ele>
        <time>2022-02-15T09:20:48Z</time>
      </trkpt>
      <trkpt lat="48.97135" lon="2.11065">
        <ele>33.9</ele>
        <time>2022-02-15T09:20:51Z</time>
      </trkpt>
      <trkpt lat="48.97136" lon="2.11072">
        <ele>34.4</ele>
        <time>2022-02-15T09:20:55Z</time>
      </trkpt>
      <trkpt lat="48.97136" lon="2.1108">
        <ele>35.3</ele>
        <time>2022-02-15T09:20:59Z</time>
      </trkpt>
      <trkpt lat="48.97136" lon="2.11089">
        <ele>36.4</ele>
        <time>2022-02-15T09:21:02Z</time>
      </trkpt>
      <trkpt lat="48.97136" lon="2.11097">
        <ele>36.9</ele>
        <time>2022-02-15T09:21:06Z</time>
      </trkpt>
      <trkpt lat="48.97136" lon="2.11106">
        <ele>36.4</ele>
        <time>2022-02-15T09:21:10Z</time>
      </trkpt>
      <trkpt lat="48.97137" lon="2.11113">
        <ele>35.9</ele>
        <time>2022-02-15T09:21:14Z</time>
      </trkpt>
      <trkpt lat="48.97136" lon="2.11122">
        <ele>35.3</ele>
        <time>2022-02-15T09:21:18Z</time>
      </trkpt>
      <trkpt lat="48.97133" lon="2.11128">
        <ele>33.4</ele>
        <time>2022-02-15T09:21:23Z</time>
      </trkpt>
      <trkpt lat="48.97138" lon="2.11128">
        <ele>26.7</ele>
        <time>2022-02-15T09:21:40Z</time>
      </trkpt>
      <trkpt lat="48.97132" lon="2.1113">
        <ele>32.2</ele>
        <time>2022-02-15T09:23:43Z</time>
      </trkpt>
      <trkpt lat="48.97127" lon="2.11131">
        <ele>32.3</ele>
        <time>2022-02-15T09:23:47Z</time>
      </trkpt>
      <trkpt lat="48.97122" lon="2.11133">
        <ele>32.6</ele>
        <time>2022-02-15T09:23:50Z</time>
      </trkpt>
      <trkpt lat="48.97119" lon="2.11139">
        <ele>33.2</ele>
        <time>2022-02-15T09:23:55Z</time>
      </trkpt>
      <trkpt lat="48.97119" lon="2.11147">
        <ele>33.2</ele>
        <time>2022-02-15T09:23:59Z</time>
      </trkpt>
      <trkpt lat="48.97116" lon="2.11152">
        <ele>32.8</ele>
        <time>2022-02-15T09:24:04Z</time>
      </trkpt>
      <trkpt lat="48.97111" lon="2.11155">
        <ele>32.8</ele>
        <time>2022-02-15T09:24:16Z</time>
      </trkpt>
      <trkpt lat="48.97106" lon="2.11158">
        <ele>35.1</ele>
        <time>2022-02-15T09:24:20Z</time>
      </trkpt>
      <trkpt lat="48.97101" lon="2.11162">
        <ele>35.8</ele>
        <time>2022-02-15T09:24:23Z</time>
      </trkpt>
      <trkpt lat="48.97097" lon="2.11167">
        <ele>36.8</ele>
        <time>2022-02-15T09:24:27Z</time>
      </trkpt>
      <trkpt lat="48.97092" lon="2.11171">
        <ele>37.2</ele>
        <time>2022-02-15T09:24:31Z</time>
      </trkpt>
      <trkpt lat="48.97088" lon="2.11176">
        <ele>37.9</ele>
        <time>2022-02-15T09:24:36Z</time>
      </trkpt>
      <trkpt lat="48.97084" lon="2.11182">
        <ele>37.6</ele>
        <time>2022-02-15T09:24:40Z</time>
      </trkpt>
      <trkpt lat="48.97082" lon="2.11189">
        <ele>36.5</ele>
        <time>2022-02-15T09:24:45Z</time>
      </trkpt>
      <trkpt lat="48.97078" lon="2.11193">
        <ele>36.4</ele>
        <time>2022-02-15T09:24:48Z</time>
      </trkpt>
      <trkpt lat="48.97074" lon="2.11198">
        <ele>36.6</ele>
        <time>2022-02-15T09:24:52Z</time>
      </trkpt>
      <trkpt lat="48.97071" lon="2.11204">
        <ele>37.1</ele>
        <time>2022-02-15T09:24:56Z</time>
      </trkpt>
      <trkpt lat="48.97067" lon="2.11208">
        <ele>37.4</ele>
        <time>2022-02-15T09:25:00Z</time>
      </trkpt>
      <trkpt lat="48.97063" lon="2.11213">
        <ele>37.3</ele>
        <time>2022-02-15T09:25:04Z</time>
      </trkpt>
      <trkpt lat="48.97059" lon="2.11218">
        <ele>38</ele>
        <time>2022-02-15T09:25:08Z</time>
      </trkpt>
      <trkpt lat="48.97055" lon="2.11224">
        <ele>39.5</ele>
        <time>2022-02-15T09:25:13Z</time>
      </trkpt>
      <trkpt lat="48.97051" lon="2.11228">
        <ele>40.4</ele>
        <time>2022-02-15T09:25:17Z</time>
      </trkpt>
      <trkpt lat="48.97047" lon="2.11233">
        <ele>40.8</ele>
        <time>2022-02-15T09:25:21Z</time>
      </trkpt>
      <trkpt lat="48.97043" lon="2.11238">
        <ele>40.7</ele>
        <time>2022-02-15T09:25:25Z</time>
      </trkpt>
      <trkpt lat="48.97039" lon="2.11242">
        <ele>40</ele>
        <time>2022-02-15T09:25:29Z</time>
      </trkpt>
      <trkpt lat="48.97034" lon="2.11246">
        <ele>39.2</ele>
        <time>2022-02-15T09:25:32Z</time>
      </trkpt>
      <trkpt lat="48.9703" lon="2.11251">
        <ele>39.5</ele>
        <time>2022-02-15T09:25:36Z</time>
      </trkpt>
      <trkpt lat="48.97026" lon="2.11256">
        <ele>40.1</ele>
        <time>2022-02-15T09:25:40Z</time>
      </trkpt>
      <trkpt lat="48.97023" lon="2.11262">
        <ele>40.1</ele>
        <time>2022-02-15T09:25:44Z</time>
      </trkpt>
      <trkpt lat="48.97018" lon="2.11268">
        <ele>39.8</ele>
        <time>2022-02-15T09:25:49Z</time>
      </trkpt>
      <trkpt lat="48.97014" lon="2.11272">
        <ele>39.9</ele>
        <time>2022-02-15T09:25:52Z</time>
      </trkpt>
      <trkpt lat="48.9701" lon="2.11276">
        <ele>40</ele>
        <time>2022-02-15T09:25:56Z</time>
      </trkpt>
      <trkpt lat="48.97007" lon="2.11281">
        <ele>40.4</ele>
        <time>2022-02-15T09:26:00Z</time>
      </trkpt>
      <trkpt lat="48.97003" lon="2.11287">
        <ele>41</ele>
        <time>2022-02-15T09:26:03Z</time>
      </trkpt>
      <trkpt lat="48.97" lon="2.11293">
        <ele>41.9</ele>
        <time>2022-02-15T09:26:07Z</time>
      </trkpt>
      <trkpt lat="48.96996" lon="2.11298">
        <ele>42.2</ele>
        <time>2022-02-15T09:26:11Z</time>
      </trkpt>
      <trkpt lat="48.96992" lon="2.11303">
        <ele>42</ele>
        <time>2022-02-15T09:26:15Z</time>
      </trkpt>
      <trkpt lat="48.96989" lon="2.11307">
        <ele>41.6</ele>
        <time>2022-02-15T09:26:18Z</time>
      </trkpt>
      <trkpt lat="48.96984" lon="2.11313">
        <ele>41.1</ele>
        <time>2022-02-15T09:26:23Z</time>
      </trkpt>
      <trkpt lat="48.96981" lon="2.11318">
        <ele>40</ele>
        <time>2022-02-15T09:26:27Z</time>
      </trkpt>
      <trkpt lat="48.96977" lon="2.11324">
        <ele>39.2</ele>
        <time>2022-02-15T09:26:31Z</time>
      </trkpt>
      <trkpt lat="48.96974" lon="2.1133">
        <ele>39.1</ele>
        <time>2022-02-15T09:26:34Z</time>
      </trkpt>
      <trkpt lat="48.9697" lon="2.11335">
        <ele>39.1</ele>
        <time>2022-02-15T09:26:38Z</time>
      </trkpt>
      <trkpt lat="48.96967" lon="2.11341">
        <ele>38.5</ele>
        <time>2022-02-15T09:26:42Z</time>
      </trkpt>
      <trkpt lat="48.96963" lon="2.11346">
        <ele>37.3</ele>
        <time>2022-02-15T09:26:46Z</time>
      </trkpt>
      <trkpt lat="48.96958" lon="2.1135">
        <ele>37.5</ele>
        <time>2022-02-15T09:26:50Z</time>
      </trkpt>
      <trkpt lat="48.96954" lon="2.11354">
        <ele>38.5</ele>
        <time>2022-02-15T09:26:54Z</time>
      </trkpt>
      <trkpt lat="48.9695" lon="2.11359">
        <ele>39.1</ele>
        <time>2022-02-15T09:26:58Z</time>
      </trkpt>
      <trkpt lat="48.96948" lon="2.11365">
        <ele>38.9</ele>
        <time>2022-02-15T09:27:02Z</time>
      </trkpt>
      <trkpt lat="48.96945" lon="2.11371">
        <ele>38.9</ele>
        <time>2022-02-15T09:27:06Z</time>
      </trkpt>
      <trkpt lat="48.96941" lon="2.11378">
        <ele>39.7</ele>
        <time>2022-02-15T09:27:11Z</time>
      </trkpt>
      <trkpt lat="48.96937" lon="2.11382">
        <ele>40.8</ele>
        <time>2022-02-15T09:27:14Z</time>
      </trkpt>
      <trkpt lat="48.96932" lon="2.11384">
        <ele>40.8</ele>
        <time>2022-02-15T09:27:18Z</time>
      </trkpt>
      <trkpt lat="48.96927" lon="2.11389">
        <ele>39.8</ele>
        <time>2022-02-15T09:27:22Z</time>
      </trkpt>
      <trkpt lat="48.96924" lon="2.11394">
        <ele>38.9</ele>
        <time>2022-02-15T09:27:26Z</time>
      </trkpt>
      <trkpt lat="48.9692" lon="2.11399">
        <ele>38.6</ele>
        <time>2022-02-15T09:27:30Z</time>
      </trkpt>
      <trkpt lat="48.96917" lon="2.11405">
        <ele>39.4</ele>
        <time>2022-02-15T09:27:33Z</time>
      </trkpt>
      <trkpt lat="48.96913" lon="2.11412">
        <ele>39.7</ele>
        <time>2022-02-15T09:27:37Z</time>
      </trkpt>
      <trkpt lat="48.96909" lon="2.11417">
        <ele>39.6</ele>
        <time>2022-02-15T09:27:41Z</time>
      </trkpt>
      <trkpt lat="48.96905" lon="2.11421">
        <ele>39.4</ele>
        <time>2022-02-15T09:27:45Z</time>
      </trkpt>
      <trkpt lat="48.96901" lon="2.11425">
        <ele>39.4</ele>
        <time>2022-02-15T09:27:49Z</time>
      </trkpt>
      <trkpt lat="48.96898" lon="2.11432">
        <ele>38.9</ele>
        <time>2022-02-15T09:27:52Z</time>
      </trkpt>
      <trkpt lat="48.96894" lon="2.11438">
        <ele>38.7</ele>
        <time>2022-02-15T09:27:56Z</time>
      </trkpt>
      <trkpt lat="48.9689" lon="2.11443">
        <ele>38.7</ele>
        <time>2022-02-15T09:28:00Z</time>
      </trkpt>
      <trkpt lat="48.96886" lon="2.11448">
        <ele>39.4</ele>
        <time>2022-02-15T09:28:03Z</time>
      </trkpt>
      <trkpt lat="48.96883" lon="2.11453">
        <ele>39.5</ele>
        <time>2022-02-15T09:28:07Z</time>
      </trkpt>
      <trkpt lat="48.9688" lon="2.11458">
        <ele>39.6</ele>
        <time>2022-02-15T09:28:11Z</time>
      </trkpt>
      <trkpt lat="48.96876" lon="2.11463">
        <ele>40.6</ele>
        <time>2022-02-15T09:28:15Z</time>
      </trkpt>
      <trkpt lat="48.96871" lon="2.11467">
        <ele>40.6</ele>
        <time>2022-02-15T09:28:19Z</time>
      </trkpt>
      <trkpt lat="48.96867" lon="2.11472">
        <ele>40.5</ele>
        <time>2022-02-15T09:28:22Z</time>
      </trkpt>
      <trkpt lat="48.96863" lon="2.11477">
        <ele>41.4</ele>
        <time>2022-02-15T09:28:26Z</time>
      </trkpt>
      <trkpt lat="48.96859" lon="2.11482">
        <ele>43</ele>
        <time>2022-02-15T09:28:30Z</time>
      </trkpt>
      <trkpt lat="48.96855" lon="2.11485">
        <ele>42.8</ele>
        <time>2022-02-15T09:28:34Z</time>
      </trkpt>
      <trkpt lat="48.96851" lon="2.11489">
        <ele>42.4</ele>
        <time>2022-02-15T09:28:38Z</time>
      </trkpt>
      <trkpt lat="48.96846" lon="2.11493">
        <ele>42.6</ele>
        <time>2022-02-15T09:28:42Z</time>
      </trkpt>
      <trkpt lat="48.96843" lon="2.11498">
        <ele>43.5</ele>
        <time>2022-02-15T09:28:45Z</time>
      </trkpt>
      <trkpt lat="48.96839" lon="2.11504">
        <ele>43.1</ele>
        <time>2022-02-15T09:28:49Z</time>
      </trkpt>
      <trkpt lat="48.96835" lon="2.11509">
        <ele>42.7</ele>
        <time>2022-02-15T09:28:52Z</time>
      </trkpt>
      <trkpt lat="48.96832" lon="2.11515">
        <ele>42.7</ele>
        <time>2022-02-15T09:28:56Z</time>
      </trkpt>
      <trkpt lat="48.96829" lon="2.11521">
        <ele>42.8</ele>
        <time>2022-02-15T09:29:00Z</time>
      </trkpt>
      <trkpt lat="48.96826" lon="2.11529">
        <ele>41.6</ele>
        <time>2022-02-15T09:29:05Z</time>
      </trkpt>
      <trkpt lat="48.96823" lon="2.11534">
        <ele>40.5</ele>
        <time>2022-02-15T09:29:08Z</time>
      </trkpt>
      <trkpt lat="48.96818" lon="2.11539">
        <ele>40.4</ele>
        <time>2022-02-15T09:29:13Z</time>
      </trkpt>
      <trkpt lat="48.96814" lon="2.11544">
        <ele>42</ele>
        <time>2022-02-15T09:29:17Z</time>
      </trkpt>
      <trkpt lat="48.9681" lon="2.11547">
        <ele>42.9</ele>
        <time>2022-02-15T09:29:21Z</time>
      </trkpt>
      <trkpt lat="48.96804" lon="2.11549">
        <ele>41.4</ele>
        <time>2022-02-15T09:29:25Z</time>
      </trkpt>
      <trkpt lat="48.96799" lon="2.11551">
        <ele>41.4</ele>
        <time>2022-02-15T09:29:29Z</time>
      </trkpt>
      <trkpt lat="48.96794" lon="2.11549">
        <ele>42.7</ele>
        <time>2022-02-15T09:29:33Z</time>
      </trkpt>
      <trkpt lat="48.96789" lon="2.11547">
        <ele>43.4</ele>
        <time>2022-02-15T09:29:37Z</time>
      </trkpt>
      <trkpt lat="48.96784" lon="2.11546">
        <ele>42.8</ele>
        <time>2022-02-15T09:29:41Z</time>
      </trkpt>
      <trkpt lat="48.96779" lon="2.11545">
        <ele>42.1</ele>
        <time>2022-02-15T09:29:46Z</time>
      </trkpt>
      <trkpt lat="48.96774" lon="2.11543">
        <ele>41.7</ele>
        <time>2022-02-15T09:29:49Z</time>
      </trkpt>
      <trkpt lat="48.9677" lon="2.1154">
        <ele>42.5</ele>
        <time>2022-02-15T09:29:53Z</time>
      </trkpt>
      <trkpt lat="48.96765" lon="2.11537">
        <ele>44.8</ele>
        <time>2022-02-15T09:29:57Z</time>
      </trkpt>
      <trkpt lat="48.9676" lon="2.11534">
        <ele>46.8</ele>
        <time>2022-02-15T09:30:01Z</time>
      </trkpt>
      <trkpt lat="48.96755" lon="2.1153">
        <ele>47.5</ele>
        <time>2022-02-15T09:30:06Z</time>
      </trkpt>
      <trkpt lat="48.96749" lon="2.11527">
        <ele>47.5</ele>
        <time>2022-02-15T09:30:10Z</time>
      </trkpt>
      <trkpt lat="48.96744" lon="2.11524">
        <ele>47.1</ele>
        <time>2022-02-15T09:30:15Z</time>
      </trkpt>
      <trkpt lat="48.9674" lon="2.11521">
        <ele>47</ele>
        <time>2022-02-15T09:30:19Z</time>
      </trkpt>
      <trkpt lat="48.96735" lon="2.11519">
        <ele>48.4</ele>
        <time>2022-02-15T09:30:22Z</time>
      </trkpt>
      <trkpt lat="48.9673" lon="2.11518">
        <ele>49.7</ele>
        <time>2022-02-15T09:30:26Z</time>
      </trkpt>
      <trkpt lat="48.96725" lon="2.11514">
        <ele>50.5</ele>
        <time>2022-02-15T09:30:30Z</time>
      </trkpt>
      <trkpt lat="48.96721" lon="2.11511">
        <ele>51.7</ele>
        <time>2022-02-15T09:30:33Z</time>
      </trkpt>
      <trkpt lat="48.96716" lon="2.11509">
        <ele>53.3</ele>
        <time>2022-02-15T09:30:37Z</time>
      </trkpt>
      <trkpt lat="48.96711" lon="2.11506">
        <ele>54.3</ele>
        <time>2022-02-15T09:30:41Z</time>
      </trkpt>
      <trkpt lat="48.96705" lon="2.11503">
        <ele>54.9</ele>
        <time>2022-02-15T09:30:44Z</time>
      </trkpt>
      <trkpt lat="48.96701" lon="2.115">
        <ele>55</ele>
        <time>2022-02-15T09:30:48Z</time>
      </trkpt>
      <trkpt lat="48.96696" lon="2.11497">
        <ele>55.5</ele>
        <time>2022-02-15T09:30:52Z</time>
      </trkpt>
      <trkpt lat="48.96691" lon="2.11494">
        <ele>56</ele>
        <time>2022-02-15T09:30:56Z</time>
      </trkpt>
      <trkpt lat="48.96686" lon="2.11491">
        <ele>56.1</ele>
        <time>2022-02-15T09:31:01Z</time>
      </trkpt>
      <trkpt lat="48.9668" lon="2.11488">
        <ele>55.7</ele>
        <time>2022-02-15T09:31:05Z</time>
      </trkpt>
      <trkpt lat="48.96676" lon="2.11486">
        <ele>55.7</ele>
        <time>2022-02-15T09:31:09Z</time>
      </trkpt>
      <trkpt lat="48.9667" lon="2.11483">
        <ele>55.9</ele>
        <time>2022-02-15T09:31:14Z</time>
      </trkpt>
      <trkpt lat="48.96666" lon="2.1148">
        <ele>55.5</ele>
        <time>2022-02-15T09:31:18Z</time>
      </trkpt>
      <trkpt lat="48.96661" lon="2.11478">
        <ele>55.3</ele>
        <time>2022-02-15T09:31:22Z</time>
      </trkpt>
      <trkpt lat="48.96656" lon="2.11476">
        <ele>55.6</ele>
        <time>2022-02-15T09:31:25Z</time>
      </trkpt>
      <trkpt lat="48.96652" lon="2.11474">
        <ele>57.2</ele>
        <time>2022-02-15T09:31:29Z</time>
      </trkpt>
      <trkpt lat="48.96647" lon="2.1147">
        <ele>59.5</ele>
        <time>2022-02-15T09:31:33Z</time>
      </trkpt>
      <trkpt lat="48.96642" lon="2.11466">
        <ele>60.5</ele>
        <time>2022-02-15T09:31:38Z</time>
      </trkpt>
      <trkpt lat="48.96637" lon="2.11463">
        <ele>61.3</ele>
        <time>2022-02-15T09:31:41Z</time>
      </trkpt>
      <trkpt lat="48.96632" lon="2.11461">
        <ele>62</ele>
        <time>2022-02-15T09:31:46Z</time>
      </trkpt>
      <trkpt lat="48.96627" lon="2.11461">
        <ele>62</ele>
        <time>2022-02-15T09:31:50Z</time>
      </trkpt>
      <trkpt lat="48.96621" lon="2.11459">
        <ele>60.3</ele>
        <time>2022-02-15T09:31:54Z</time>
      </trkpt>
      <trkpt lat="48.96616" lon="2.11457">
        <ele>58</ele>
        <time>2022-02-15T09:31:58Z</time>
      </trkpt>
      <trkpt lat="48.96611" lon="2.11454">
        <ele>56.5</ele>
        <time>2022-02-15T09:32:02Z</time>
      </trkpt>
      <trkpt lat="48.96606" lon="2.11456">
        <ele>55.1</ele>
        <time>2022-02-15T09:32:06Z</time>
      </trkpt>
      <trkpt lat="48.96601" lon="2.11454">
        <ele>55.2</ele>
        <time>2022-02-15T09:32:10Z</time>
      </trkpt>
      <trkpt lat="48.96597" lon="2.11451">
        <ele>54.9</ele>
        <time>2022-02-15T09:32:14Z</time>
      </trkpt>
      <trkpt lat="48.96592" lon="2.11447">
        <ele>52.9</ele>
        <time>2022-02-15T09:32:19Z</time>
      </trkpt>
      <trkpt lat="48.96588" lon="2.11444">
        <ele>51.5</ele>
        <time>2022-02-15T09:32:23Z</time>
      </trkpt>
      <trkpt lat="48.96583" lon="2.11442">
        <ele>50.8</ele>
        <time>2022-02-15T09:32:27Z</time>
      </trkpt>
      <trkpt lat="48.96578" lon="2.1144">
        <ele>50.8</ele>
        <time>2022-02-15T09:32:31Z</time>
      </trkpt>
      <trkpt lat="48.96574" lon="2.11438">
        <ele>51.1</ele>
        <time>2022-02-15T09:32:35Z</time>
      </trkpt>
      <trkpt lat="48.96569" lon="2.11435">
        <ele>51.5</ele>
        <time>2022-02-15T09:32:39Z</time>
      </trkpt>
      <trkpt lat="48.96564" lon="2.11431">
        <ele>52.3</ele>
        <time>2022-02-15T09:32:43Z</time>
      </trkpt>
      <trkpt lat="48.96559" lon="2.1143">
        <ele>53.2</ele>
        <time>2022-02-15T09:32:47Z</time>
      </trkpt>
      <trkpt lat="48.96554" lon="2.11429">
        <ele>53.1</ele>
        <time>2022-02-15T09:32:51Z</time>
      </trkpt>
      <trkpt lat="48.96549" lon="2.11428">
        <ele>53.7</ele>
        <time>2022-02-15T09:32:54Z</time>
      </trkpt>
      <trkpt lat="48.96544" lon="2.11426">
        <ele>54</ele>
        <time>2022-02-15T09:32:59Z</time>
      </trkpt>
      <trkpt lat="48.9654" lon="2.11424">
        <ele>53.7</ele>
        <time>2022-02-15T09:33:02Z</time>
      </trkpt>
      <trkpt lat="48.96535" lon="2.11423">
        <ele>52.4</ele>
        <time>2022-02-15T09:33:06Z</time>
      </trkpt>
      <trkpt lat="48.96531" lon="2.1142">
        <ele>50.9</ele>
        <time>2022-02-15T09:33:10Z</time>
      </trkpt>
      <trkpt lat="48.96525" lon="2.11419">
        <ele>50</ele>
        <time>2022-02-15T09:33:14Z</time>
      </trkpt>
      <trkpt lat="48.96521" lon="2.11417">
        <ele>50.8</ele>
        <time>2022-02-15T09:33:18Z</time>
      </trkpt>
      <trkpt lat="48.96516" lon="2.11415">
        <ele>52.2</ele>
        <time>2022-02-15T09:33:21Z</time>
      </trkpt>
      <trkpt lat="48.96511" lon="2.11412">
        <ele>53.8</ele>
        <time>2022-02-15T09:33:25Z</time>
      </trkpt>
      <trkpt lat="48.96506" lon="2.1141">
        <ele>54.8</ele>
        <time>2022-02-15T09:33:29Z</time>
      </trkpt>
      <trkpt lat="48.96501" lon="2.11406">
        <ele>56.5</ele>
        <time>2022-02-15T09:33:33Z</time>
      </trkpt>
      <trkpt lat="48.96497" lon="2.11402">
        <ele>58.2</ele>
        <time>2022-02-15T09:33:37Z</time>
      </trkpt>
      <trkpt lat="48.96493" lon="2.11397">
        <ele>58.5</ele>
        <time>2022-02-15T09:33:41Z</time>
      </trkpt>
      <trkpt lat="48.96493" lon="2.11404">
        <ele>53.8</ele>
        <time>2022-02-15T09:33:49Z</time>
      </trkpt>
      <trkpt lat="48.96498" lon="2.11403">
        <ele>49.7</ele>
        <time>2022-02-15T09:34:05Z</time>
      </trkpt>
      <trkpt lat="48.96496" lon="2.11396">
        <ele>47.9</ele>
        <time>2022-02-15T09:36:08Z</time>
      </trkpt>
      <trkpt lat="48.96493" lon="2.1139">
        <ele>45.4</ele>
        <time>2022-02-15T09:36:17Z</time>
      </trkpt>
      <trkpt lat="48.9649" lon="2.11384">
        <ele>44.1</ele>
        <time>2022-02-15T09:36:24Z</time>
      </trkpt>
      <trkpt lat="48.96487" lon="2.11377">
        <ele>44.2</ele>
        <time>2022-02-15T09:36:29Z</time>
      </trkpt>
      <trkpt lat="48.96485" lon="2.11371">
        <ele>44.5</ele>
        <time>2022-02-15T09:36:33Z</time>
      </trkpt>
      <trkpt lat="48.96483" lon="2.11364">
        <ele>45.1</ele>
        <time>2022-02-15T09:36:37Z</time>
      </trkpt>
      <trkpt lat="48.9648" lon="2.11356">
        <ele>46.1</ele>
        <time>2022-02-15T09:36:41Z</time>
      </trkpt>
      <trkpt lat="48.96479" lon="2.11349">
        <ele>47.1</ele>
        <time>2022-02-15T09:36:44Z</time>
      </trkpt>
      <trkpt lat="48.96476" lon="2.11342">
        <ele>47.4</ele>
        <time>2022-02-15T09:36:47Z</time>
      </trkpt>
      <trkpt lat="48.96475" lon="2.11335">
        <ele>47.8</ele>
        <time>2022-02-15T09:36:50Z</time>
      </trkpt>
      <trkpt lat="48.96473" lon="2.11329">
        <ele>51.4</ele>
        <time>2022-02-15T09:36:58Z</time>
      </trkpt>
      <trkpt lat="48.9647" lon="2.11323">
        <ele>51.7</ele>
        <time>2022-02-15T09:37:01Z</time>
      </trkpt>
      <trkpt lat="48.96468" lon="2.11314">
        <ele>51.5</ele>
        <time>2022-02-15T09:37:04Z</time>
      </trkpt>
      <trkpt lat="48.96467" lon="2.11305">
        <ele>51.3</ele>
        <time>2022-02-15T09:37:07Z</time>
      </trkpt>
      <trkpt lat="48.96466" lon="2.11297">
        <ele>51.8</ele>
        <time>2022-02-15T09:37:09Z</time>
      </trkpt>
      <trkpt lat="48.96464" lon="2.11291">
        <ele>52.7</ele>
        <time>2022-02-15T09:37:12Z</time>
      </trkpt>
      <trkpt lat="48.96462" lon="2.11284">
        <ele>53.1</ele>
        <time>2022-02-15T09:37:15Z</time>
      </trkpt>
      <trkpt lat="48.96458" lon="2.11273">
        <ele>53</ele>
        <time>2022-02-15T09:37:22Z</time>
      </trkpt>
      <trkpt lat="48.96454" lon="2.11266">
        <ele>53.6</ele>
        <time>2022-02-15T09:37:26Z</time>
      </trkpt>
      <trkpt lat="48.96451" lon="2.11261">
        <ele>54</ele>
        <time>2022-02-15T09:37:30Z</time>
      </trkpt>
      <trkpt lat="48.96448" lon="2.11254">
        <ele>54.4</ele>
        <time>2022-02-15T09:37:33Z</time>
      </trkpt>
      <trkpt lat="48.96445" lon="2.11246">
        <ele>54.1</ele>
        <time>2022-02-15T09:37:38Z</time>
      </trkpt>
      <trkpt lat="48.96443" lon="2.11239">
        <ele>53.5</ele>
        <time>2022-02-15T09:37:41Z</time>
      </trkpt>
      <trkpt lat="48.96442" lon="2.11233">
        <ele>52.5</ele>
        <time>2022-02-15T09:37:45Z</time>
      </trkpt>
      <trkpt lat="48.96439" lon="2.11226">
        <ele>51.3</ele>
        <time>2022-02-15T09:37:48Z</time>
      </trkpt>
      <trkpt lat="48.96437" lon="2.11219">
        <ele>49.6</ele>
        <time>2022-02-15T09:37:52Z</time>
      </trkpt>
      <trkpt lat="48.96434" lon="2.11212">
        <ele>48.4</ele>
        <time>2022-02-15T09:37:56Z</time>
      </trkpt>
      <trkpt lat="48.96432" lon="2.11205">
        <ele>47.3</ele>
        <time>2022-02-15T09:38:00Z</time>
      </trkpt>
      <trkpt lat="48.9643" lon="2.11199">
        <ele>46.6</ele>
        <time>2022-02-15T09:38:03Z</time>
      </trkpt>
      <trkpt lat="48.96427" lon="2.11192">
        <ele>46.3</ele>
        <time>2022-02-15T09:38:07Z</time>
      </trkpt>
      <trkpt lat="48.96424" lon="2.11186">
        <ele>46.4</ele>
        <time>2022-02-15T09:38:11Z</time>
      </trkpt>
      <trkpt lat="48.96421" lon="2.11178">
        <ele>47.1</ele>
        <time>2022-02-15T09:38:15Z</time>
      </trkpt>
      <trkpt lat="48.96418" lon="2.11172">
        <ele>48.7</ele>
        <time>2022-02-15T09:38:18Z</time>
      </trkpt>
      <trkpt lat="48.96416" lon="2.11166">
        <ele>49.4</ele>
        <time>2022-02-15T09:38:22Z</time>
      </trkpt>
      <trkpt lat="48.96413" lon="2.11159">
        <ele>48.2</ele>
        <time>2022-02-15T09:38:28Z</time>
      </trkpt>
      <trkpt lat="48.96412" lon="2.1115">
        <ele>47</ele>
        <time>2022-02-15T09:38:32Z</time>
      </trkpt>
      <trkpt lat="48.96411" lon="2.11144">
        <ele>47.1</ele>
        <time>2022-02-15T09:38:35Z</time>
      </trkpt>
      <trkpt lat="48.9641" lon="2.11135">
        <ele>47.9</ele>
        <time>2022-02-15T09:38:39Z</time>
      </trkpt>
      <trkpt lat="48.96408" lon="2.11127">
        <ele>48</ele>
        <time>2022-02-15T09:38:44Z</time>
      </trkpt>
      <trkpt lat="48.96404" lon="2.11122">
        <ele>47.2</ele>
        <time>2022-02-15T09:38:51Z</time>
      </trkpt>
      <trkpt lat="48.96403" lon="2.11114">
        <ele>47.5</ele>
        <time>2022-02-15T09:38:55Z</time>
      </trkpt>
      <trkpt lat="48.964" lon="2.11108">
        <ele>47.9</ele>
        <time>2022-02-15T09:39:00Z</time>
      </trkpt>
      <trkpt lat="48.96398" lon="2.11102">
        <ele>48.3</ele>
        <time>2022-02-15T09:39:06Z</time>
      </trkpt>
      <trkpt lat="48.96396" lon="2.11094">
        <ele>47.6</ele>
        <time>2022-02-15T09:39:11Z</time>
      </trkpt>
      <trkpt lat="48.96394" lon="2.11086">
        <ele>46.7</ele>
        <time>2022-02-15T09:39:16Z</time>
      </trkpt>
      <trkpt lat="48.96391" lon="2.1108">
        <ele>46.9</ele>
        <time>2022-02-15T09:39:21Z</time>
      </trkpt>
      <trkpt lat="48.96389" lon="2.11073">
        <ele>48.2</ele>
        <time>2022-02-15T09:39:25Z</time>
      </trkpt>
      <trkpt lat="48.96386" lon="2.11066">
        <ele>49.4</ele>
        <time>2022-02-15T09:39:28Z</time>
      </trkpt>
      <trkpt lat="48.96382" lon="2.11056">
        <ele>51</ele>
        <time>2022-02-15T09:39:35Z</time>
      </trkpt>
      <trkpt lat="48.9638" lon="2.11047">
        <ele>51.6</ele>
        <time>2022-02-15T09:39:39Z</time>
      </trkpt>
      <trkpt lat="48.96378" lon="2.11038">
        <ele>51.4</ele>
        <time>2022-02-15T09:39:42Z</time>
      </trkpt>
      <trkpt lat="48.96376" lon="2.11031">
        <ele>51.2</ele>
        <time>2022-02-15T09:39:46Z</time>
      </trkpt>
      <trkpt lat="48.96374" lon="2.11023">
        <ele>50.3</ele>
        <time>2022-02-15T09:39:50Z</time>
      </trkpt>
      <trkpt lat="48.96372" lon="2.11015">
        <ele>50.3</ele>
        <time>2022-02-15T09:39:55Z</time>
      </trkpt>
      <trkpt lat="48.96369" lon="2.11008">
        <ele>50.9</ele>
        <time>2022-02-15T09:40:00Z</time>
      </trkpt>
      <trkpt lat="48.96366" lon="2.11002">
        <ele>51.3</ele>
        <time>2022-02-15T09:40:03Z</time>
      </trkpt>
      <trkpt lat="48.96363" lon="2.10997">
        <ele>51.3</ele>
        <time>2022-02-15T09:40:06Z</time>
      </trkpt>
      <trkpt lat="48.96361" lon="2.1099">
        <ele>51</ele>
        <time>2022-02-15T09:40:09Z</time>
      </trkpt>
      <trkpt lat="48.96357" lon="2.10984">
        <ele>49.6</ele>
        <time>2022-02-15T09:40:13Z</time>
      </trkpt>
      <trkpt lat="48.96355" lon="2.10978">
        <ele>49.4</ele>
        <time>2022-02-15T09:40:17Z</time>
      </trkpt>
      <trkpt lat="48.96351" lon="2.10973">
        <ele>51.3</ele>
        <time>2022-02-15T09:40:21Z</time>
      </trkpt>
      <trkpt lat="48.96349" lon="2.10965">
        <ele>52.9</ele>
        <time>2022-02-15T09:40:26Z</time>
      </trkpt>
      <trkpt lat="48.96348" lon="2.10958">
        <ele>55.4</ele>
        <time>2022-02-15T09:40:30Z</time>
      </trkpt>
      <trkpt lat="48.96347" lon="2.10951">
        <ele>56.4</ele>
        <time>2022-02-15T09:40:34Z</time>
      </trkpt>
      <trkpt lat="48.96346" lon="2.10942">
        <ele>55.5</ele>
        <time>2022-02-15T09:40:38Z</time>
      </trkpt>
      <trkpt lat="48.96346" lon="2.10935">
        <ele>54.9</ele>
        <time>2022-02-15T09:40:41Z</time>
      </trkpt>
      <trkpt lat="48.96349" lon="2.10928">
        <ele>54.9</ele>
        <time>2022-02-15T09:40:44Z</time>
      </trkpt>
      <trkpt lat="48.9635" lon="2.10921">
        <ele>55.2</ele>
        <time>2022-02-15T09:40:47Z</time>
      </trkpt>
      <trkpt lat="48.9635" lon="2.10912">
        <ele>54</ele>
        <time>2022-02-15T09:40:51Z</time>
      </trkpt>
      <trkpt lat="48.96346" lon="2.10909">
        <ele>52.6</ele>
        <time>2022-02-15T09:40:54Z</time>
      </trkpt>
      <trkpt lat="48.96341" lon="2.10908">
        <ele>52</ele>
        <time>2022-02-15T09:40:57Z</time>
      </trkpt>
      <trkpt lat="48.96335" lon="2.10908">
        <ele>53.5</ele>
        <time>2022-02-15T09:41:00Z</time>
      </trkpt>
      <trkpt lat="48.96331" lon="2.10911">
        <ele>53.4</ele>
        <time>2022-02-15T09:41:05Z</time>
      </trkpt>
      <trkpt lat="48.96325" lon="2.1091">
        <ele>50.3</ele>
        <time>2022-02-15T09:41:10Z</time>
      </trkpt>
      <trkpt lat="48.9632" lon="2.10908">
        <ele>50.1</ele>
        <time>2022-02-15T09:41:17Z</time>
      </trkpt>
      <trkpt lat="48.96315" lon="2.10907">
        <ele>49.3</ele>
        <time>2022-02-15T09:41:22Z</time>
      </trkpt>
      <trkpt lat="48.96309" lon="2.10904">
        <ele>47.9</ele>
        <time>2022-02-15T09:41:26Z</time>
      </trkpt>
      <trkpt lat="48.96305" lon="2.10901">
        <ele>47.5</ele>
        <time>2022-02-15T09:41:29Z</time>
      </trkpt>
      <trkpt lat="48.963" lon="2.10898">
        <ele>47.4</ele>
        <time>2022-02-15T09:41:33Z</time>
      </trkpt>
      <trkpt lat="48.96294" lon="2.10895">
        <ele>47.2</ele>
        <time>2022-02-15T09:41:37Z</time>
      </trkpt>
      <trkpt lat="48.96289" lon="2.10892">
        <ele>47.4</ele>
        <time>2022-02-15T09:41:42Z</time>
      </trkpt>
      <trkpt lat="48.96285" lon="2.10887">
        <ele>47.9</ele>
        <time>2022-02-15T09:41:46Z</time>
      </trkpt>
      <trkpt lat="48.96281" lon="2.10881">
        <ele>48.7</ele>
        <time>2022-02-15T09:41:49Z</time>
      </trkpt>
      <trkpt lat="48.96277" lon="2.10877">
        <ele>49</ele>
        <time>2022-02-15T09:41:53Z</time>
      </trkpt>
      <trkpt lat="48.96272" lon="2.10875">
        <ele>49.1</ele>
        <time>2022-02-15T09:41:57Z</time>
      </trkpt>
      <trkpt lat="48.96267" lon="2.10873">
        <ele>49.3</ele>
        <time>2022-02-15T09:42:01Z</time>
      </trkpt>
      <trkpt lat="48.96261" lon="2.1087">
        <ele>49.7</ele>
        <time>2022-02-15T09:42:05Z</time>
      </trkpt>
      <trkpt lat="48.96256" lon="2.10867">
        <ele>50.2</ele>
        <time>2022-02-15T09:42:10Z</time>
      </trkpt>
      <trkpt lat="48.96251" lon="2.10864">
        <ele>50.6</ele>
        <time>2022-02-15T09:42:14Z</time>
      </trkpt>
      <trkpt lat="48.96246" lon="2.10859">
        <ele>50.6</ele>
        <time>2022-02-15T09:42:17Z</time>
      </trkpt>
      <trkpt lat="48.96242" lon="2.10856">
        <ele>50.8</ele>
        <time>2022-02-15T09:42:21Z</time>
      </trkpt>
      <trkpt lat="48.96237" lon="2.10853">
        <ele>50.5</ele>
        <time>2022-02-15T09:42:25Z</time>
      </trkpt>
      <trkpt lat="48.96232" lon="2.10851">
        <ele>49.7</ele>
        <time>2022-02-15T09:42:29Z</time>
      </trkpt>
      <trkpt lat="48.96227" lon="2.10847">
        <ele>48.7</ele>
        <time>2022-02-15T09:42:33Z</time>
      </trkpt>
      <trkpt lat="48.96222" lon="2.10844">
        <ele>47.1</ele>
        <time>2022-02-15T09:42:37Z</time>
      </trkpt>
      <trkpt lat="48.96218" lon="2.10841">
        <ele>46.2</ele>
        <time>2022-02-15T09:42:40Z</time>
      </trkpt>
      <trkpt lat="48.96213" lon="2.10838">
        <ele>45.6</ele>
        <time>2022-02-15T09:42:44Z</time>
      </trkpt>
      <trkpt lat="48.96208" lon="2.10835">
        <ele>45.4</ele>
        <time>2022-02-15T09:42:48Z</time>
      </trkpt>
      <trkpt lat="48.96204" lon="2.10832">
        <ele>45.5</ele>
        <time>2022-02-15T09:42:51Z</time>
      </trkpt>
      <trkpt lat="48.96199" lon="2.10828">
        <ele>46.8</ele>
        <time>2022-02-15T09:42:55Z</time>
      </trkpt>
      <trkpt lat="48.96194" lon="2.10825">
        <ele>47</ele>
        <time>2022-02-15T09:42:59Z</time>
      </trkpt>
      <trkpt lat="48.9619" lon="2.10821">
        <ele>46.7</ele>
        <time>2022-02-15T09:43:03Z</time>
      </trkpt>
      <trkpt lat="48.96184" lon="2.10817">
        <ele>46.6</ele>
        <time>2022-02-15T09:43:08Z</time>
      </trkpt>
      <trkpt lat="48.9618" lon="2.10815">
        <ele>46.2</ele>
        <time>2022-02-15T09:43:12Z</time>
      </trkpt>
      <trkpt lat="48.96175" lon="2.10812">
        <ele>44.8</ele>
        <time>2022-02-15T09:43:15Z</time>
      </trkpt>
      <trkpt lat="48.9617" lon="2.10809">
        <ele>44.4</ele>
        <time>2022-02-15T09:43:19Z</time>
      </trkpt>
      <trkpt lat="48.96165" lon="2.10807">
        <ele>45</ele>
        <time>2022-02-15T09:43:23Z</time>
      </trkpt>
      <trkpt lat="48.9616" lon="2.10803">
        <ele>45</ele>
        <time>2022-02-15T09:43:29Z</time>
      </trkpt>
      <trkpt lat="48.96156" lon="2.108">
        <ele>44.7</ele>
        <time>2022-02-15T09:43:33Z</time>
      </trkpt>
      <trkpt lat="48.96151" lon="2.10797">
        <ele>44.3</ele>
        <time>2022-02-15T09:43:36Z</time>
      </trkpt>
      <trkpt lat="48.96147" lon="2.10793">
        <ele>43.6</ele>
        <time>2022-02-15T09:43:40Z</time>
      </trkpt>
      <trkpt lat="48.96142" lon="2.10791">
        <ele>42.5</ele>
        <time>2022-02-15T09:43:44Z</time>
      </trkpt>
      <trkpt lat="48.96137" lon="2.10789">
        <ele>42.3</ele>
        <time>2022-02-15T09:43:48Z</time>
      </trkpt>
      <trkpt lat="48.96132" lon="2.10786">
        <ele>41.8</ele>
        <time>2022-02-15T09:43:52Z</time>
      </trkpt>
      <trkpt lat="48.96127" lon="2.10785">
        <ele>40.9</ele>
        <time>2022-02-15T09:43:57Z</time>
      </trkpt>
      <trkpt lat="48.96122" lon="2.10787">
        <ele>41.3</ele>
        <time>2022-02-15T09:44:02Z</time>
      </trkpt>
      <trkpt lat="48.96119" lon="2.10793">
        <ele>41.4</ele>
        <time>2022-02-15T09:44:06Z</time>
      </trkpt>
      <trkpt lat="48.96118" lon="2.108">
        <ele>40.7</ele>
        <time>2022-02-15T09:44:10Z</time>
      </trkpt>
      <trkpt lat="48.96117" lon="2.10807">
        <ele>39.7</ele>
        <time>2022-02-15T09:44:14Z</time>
      </trkpt>
      <trkpt lat="48.96116" lon="2.10814">
        <ele>39.4</ele>
        <time>2022-02-15T09:44:18Z</time>
      </trkpt>
      <trkpt lat="48.96114" lon="2.10821">
        <ele>39.6</ele>
        <time>2022-02-15T09:44:22Z</time>
      </trkpt>
      <trkpt lat="48.96111" lon="2.10828">
        <ele>40</ele>
        <time>2022-02-15T09:44:26Z</time>
      </trkpt>
      <trkpt lat="48.96108" lon="2.10835">
        <ele>40.4</ele>
        <time>2022-02-15T09:44:30Z</time>
      </trkpt>
      <trkpt lat="48.96105" lon="2.1084">
        <ele>40.6</ele>
        <time>2022-02-15T09:44:35Z</time>
      </trkpt>
      <trkpt lat="48.96102" lon="2.10847">
        <ele>41.3</ele>
        <time>2022-02-15T09:44:41Z</time>
      </trkpt>
      <trkpt lat="48.96102" lon="2.10854">
        <ele>42.1</ele>
        <time>2022-02-15T09:44:47Z</time>
      </trkpt>
      <trkpt lat="48.96102" lon="2.10862">
        <ele>41.9</ele>
        <time>2022-02-15T09:45:10Z</time>
      </trkpt>
      <trkpt lat="48.96101" lon="2.1087">
        <ele>42.4</ele>
        <time>2022-02-15T09:45:23Z</time>
      </trkpt>
      <trkpt lat="48.961" lon="2.10878">
        <ele>41.9</ele>
        <time>2022-02-15T09:45:26Z</time>
      </trkpt>
      <trkpt lat="48.96099" lon="2.10885">
        <ele>41.4</ele>
        <time>2022-02-15T09:45:29Z</time>
      </trkpt>
      <trkpt lat="48.96101" lon="2.10891">
        <ele>40.8</ele>
        <time>2022-02-15T09:45:33Z</time>
      </trkpt>
      <trkpt lat="48.96101" lon="2.10899">
        <ele>40.3</ele>
        <time>2022-02-15T09:45:37Z</time>
      </trkpt>
      <trkpt lat="48.96099" lon="2.10906">
        <ele>39.9</ele>
        <time>2022-02-15T09:45:40Z</time>
      </trkpt>
      <trkpt lat="48.96097" lon="2.10913">
        <ele>39.2</ele>
        <time>2022-02-15T09:45:44Z</time>
      </trkpt>
      <trkpt lat="48.96095" lon="2.10922">
        <ele>38.6</ele>
        <time>2022-02-15T09:45:48Z</time>
      </trkpt>
      <trkpt lat="48.96094" lon="2.1093">
        <ele>39</ele>
        <time>2022-02-15T09:45:51Z</time>
      </trkpt>
      <trkpt lat="48.96093" lon="2.10939">
        <ele>39.4</ele>
        <time>2022-02-15T09:45:56Z</time>
      </trkpt>
      <trkpt lat="48.96092" lon="2.10958">
        <ele>35.8</ele>
        <time>2022-02-15T09:46:05Z</time>
      </trkpt>
      <trkpt lat="48.96082" lon="2.11046">
        <ele>40.1</ele>
        <time>2022-02-15T09:46:49Z</time>
      </trkpt>
      <trkpt lat="48.96082" lon="2.11054">
        <ele>42.1</ele>
        <time>2022-02-15T09:46:52Z</time>
      </trkpt>
      <trkpt lat="48.9608" lon="2.11073">
        <ele>37.6</ele>
        <time>2022-02-15T09:47:02Z</time>
      </trkpt>
      <trkpt lat="48.96078" lon="2.1108">
        <ele>36.4</ele>
        <time>2022-02-15T09:47:05Z</time>
      </trkpt>
      <trkpt lat="48.96076" lon="2.11086">
        <ele>36</ele>
        <time>2022-02-15T09:47:08Z</time>
      </trkpt>
      <trkpt lat="48.96074" lon="2.11092">
        <ele>35.5</ele>
        <time>2022-02-15T09:47:11Z</time>
      </trkpt>
      <trkpt lat="48.96072" lon="2.11099">
        <ele>35.3</ele>
        <time>2022-02-15T09:47:15Z</time>
      </trkpt>
      <trkpt lat="48.96072" lon="2.11107">
        <ele>35.5</ele>
        <time>2022-02-15T09:47:17Z</time>
      </trkpt>
      <trkpt lat="48.96071" lon="2.11116">
        <ele>36.9</ele>
        <time>2022-02-15T09:47:21Z</time>
      </trkpt>
      <trkpt lat="48.96069" lon="2.11123">
        <ele>38.8</ele>
        <time>2022-02-15T09:47:24Z</time>
      </trkpt>
      <trkpt lat="48.96069" lon="2.11131">
        <ele>40.2</ele>
        <time>2022-02-15T09:47:26Z</time>
      </trkpt>
      <trkpt lat="48.96069" lon="2.11139">
        <ele>40.6</ele>
        <time>2022-02-15T09:47:30Z</time>
      </trkpt>
      <trkpt lat="48.9607" lon="2.11147">
        <ele>40.7</ele>
        <time>2022-02-15T09:47:34Z</time>
      </trkpt>
      <trkpt lat="48.96072" lon="2.11155">
        <ele>40.8</ele>
        <time>2022-02-15T09:47:38Z</time>
      </trkpt>
      <trkpt lat="48.96072" lon="2.11162">
        <ele>41.1</ele>
        <time>2022-02-15T09:47:41Z</time>
      </trkpt>
      <trkpt lat="48.96071" lon="2.11169">
        <ele>41.5</ele>
        <time>2022-02-15T09:47:45Z</time>
      </trkpt>
      <trkpt lat="48.9607" lon="2.11176">
        <ele>42</ele>
        <time>2022-02-15T09:47:48Z</time>
      </trkpt>
      <trkpt lat="48.9607" lon="2.11184">
        <ele>42.8</ele>
        <time>2022-02-15T09:47:52Z</time>
      </trkpt>
      <trkpt lat="48.96069" lon="2.11192">
        <ele>43.6</ele>
        <time>2022-02-15T09:47:55Z</time>
      </trkpt>
      <trkpt lat="48.96068" lon="2.112">
        <ele>43.4</ele>
        <time>2022-02-15T09:48:00Z</time>
      </trkpt>
      <trkpt lat="48.96068" lon="2.1121">
        <ele>42.6</ele>
        <time>2022-02-15T09:48:04Z</time>
      </trkpt>
      <trkpt lat="48.96068" lon="2.11218">
        <ele>42.2</ele>
        <time>2022-02-15T09:48:08Z</time>
      </trkpt>
      <trkpt lat="48.96068" lon="2.11228">
        <ele>42.3</ele>
        <time>2022-02-15T09:48:12Z</time>
      </trkpt>
      <trkpt lat="48.96068" lon="2.11237">
        <ele>43.4</ele>
        <time>2022-02-15T09:48:17Z</time>
      </trkpt>
      <trkpt lat="48.96068" lon="2.11246">
        <ele>43.9</ele>
        <time>2022-02-15T09:48:21Z</time>
      </trkpt>
      <trkpt lat="48.96067" lon="2.11254">
        <ele>43.3</ele>
        <time>2022-02-15T09:48:24Z</time>
      </trkpt>
      <trkpt lat="48.96067" lon="2.11262">
        <ele>42.8</ele>
        <time>2022-02-15T09:48:29Z</time>
      </trkpt>
      <trkpt lat="48.96066" lon="2.1127">
        <ele>43.1</ele>
        <time>2022-02-15T09:48:33Z</time>
      </trkpt>
      <trkpt lat="48.96064" lon="2.11278">
        <ele>43.4</ele>
        <time>2022-02-15T09:48:36Z</time>
      </trkpt>
      <trkpt lat="48.96063" lon="2.11286">
        <ele>43.7</ele>
        <time>2022-02-15T09:48:40Z</time>
      </trkpt>
      <trkpt lat="48.96063" lon="2.11295">
        <ele>44.2</ele>
        <time>2022-02-15T09:48:44Z</time>
      </trkpt>
      <trkpt lat="48.96061" lon="2.11304">
        <ele>44.9</ele>
        <time>2022-02-15T09:48:49Z</time>
      </trkpt>
      <trkpt lat="48.9606" lon="2.11311">
        <ele>44.6</ele>
        <time>2022-02-15T09:48:52Z</time>
      </trkpt>
      <trkpt lat="48.96059" lon="2.11319">
        <ele>43.7</ele>
        <time>2022-02-15T09:48:56Z</time>
      </trkpt>
      <trkpt lat="48.96057" lon="2.11329">
        <ele>43.1</ele>
        <time>2022-02-15T09:49:01Z</time>
      </trkpt>
      <trkpt lat="48.96057" lon="2.11336">
        <ele>42.4</ele>
        <time>2022-02-15T09:49:04Z</time>
      </trkpt>
      <trkpt lat="48.96057" lon="2.11344">
        <ele>41.8</ele>
        <time>2022-02-15T09:49:08Z</time>
      </trkpt>
      <trkpt lat="48.96056" lon="2.11351">
        <ele>41.4</ele>
        <time>2022-02-15T09:49:12Z</time>
      </trkpt>
      <trkpt lat="48.96055" lon="2.11358">
        <ele>40.9</ele>
        <time>2022-02-15T09:49:15Z</time>
      </trkpt>
      <trkpt lat="48.96055" lon="2.11366">
        <ele>40.9</ele>
        <time>2022-02-15T09:49:19Z</time>
      </trkpt>
      <trkpt lat="48.96054" lon="2.11373">
        <ele>40.6</ele>
        <time>2022-02-15T09:49:22Z</time>
      </trkpt>
      <trkpt lat="48.96053" lon="2.1138">
        <ele>40.4</ele>
        <time>2022-02-15T09:49:26Z</time>
      </trkpt>
      <trkpt lat="48.96052" lon="2.11389">
        <ele>40.3</ele>
        <time>2022-02-15T09:49:30Z</time>
      </trkpt>
      <trkpt lat="48.96052" lon="2.11397">
        <ele>40.3</ele>
        <time>2022-02-15T09:49:34Z</time>
      </trkpt>
      <trkpt lat="48.96051" lon="2.11405">
        <ele>40.3</ele>
        <time>2022-02-15T09:49:37Z</time>
      </trkpt>
      <trkpt lat="48.9605" lon="2.11412">
        <ele>40.6</ele>
        <time>2022-02-15T09:49:41Z</time>
      </trkpt>
      <trkpt lat="48.9605" lon="2.1142">
        <ele>40.6</ele>
        <time>2022-02-15T09:49:45Z</time>
      </trkpt>
      <trkpt lat="48.96049" lon="2.1143">
        <ele>40.4</ele>
        <time>2022-02-15T09:49:50Z</time>
      </trkpt>
      <trkpt lat="48.96049" lon="2.11438">
        <ele>40.4</ele>
        <time>2022-02-15T09:49:54Z</time>
      </trkpt>
      <trkpt lat="48.96049" lon="2.11446">
        <ele>41.3</ele>
        <time>2022-02-15T09:49:57Z</time>
      </trkpt>
      <trkpt lat="48.96048" lon="2.11453">
        <ele>42</ele>
        <time>2022-02-15T09:50:01Z</time>
      </trkpt>
      <trkpt lat="48.96048" lon="2.11462">
        <ele>42.2</ele>
        <time>2022-02-15T09:50:05Z</time>
      </trkpt>
      <trkpt lat="48.96046" lon="2.11471">
        <ele>42</ele>
        <time>2022-02-15T09:50:08Z</time>
      </trkpt>
      <trkpt lat="48.96046" lon="2.11479">
        <ele>42.9</ele>
        <time>2022-02-15T09:50:12Z</time>
      </trkpt>
      <trkpt lat="48.96044" lon="2.11488">
        <ele>43.3</ele>
        <time>2022-02-15T09:50:16Z</time>
      </trkpt>
      <trkpt lat="48.96044" lon="2.11496">
        <ele>42.5</ele>
        <time>2022-02-15T09:50:20Z</time>
      </trkpt>
      <trkpt lat="48.96043" lon="2.11503">
        <ele>40.9</ele>
        <time>2022-02-15T09:50:24Z</time>
      </trkpt>
      <trkpt lat="48.96042" lon="2.1151">
        <ele>40</ele>
        <time>2022-02-15T09:50:27Z</time>
      </trkpt>
      <trkpt lat="48.9604" lon="2.11518">
        <ele>39.7</ele>
        <time>2022-02-15T09:50:30Z</time>
      </trkpt>
      <trkpt lat="48.96039" lon="2.11527">
        <ele>40.2</ele>
        <time>2022-02-15T09:50:34Z</time>
      </trkpt>
      <trkpt lat="48.96039" lon="2.11535">
        <ele>41.1</ele>
        <time>2022-02-15T09:50:39Z</time>
      </trkpt>
      <trkpt lat="48.96038" lon="2.11542">
        <ele>41.5</ele>
        <time>2022-02-15T09:50:42Z</time>
      </trkpt>
      <trkpt lat="48.96038" lon="2.1155">
        <ele>41.3</ele>
        <time>2022-02-15T09:50:46Z</time>
      </trkpt>
      <trkpt lat="48.96037" lon="2.11558">
        <ele>41.1</ele>
        <time>2022-02-15T09:50:50Z</time>
      </trkpt>
      <trkpt lat="48.96037" lon="2.11566">
        <ele>41.2</ele>
        <time>2022-02-15T09:50:54Z</time>
      </trkpt>
      <trkpt lat="48.96036" lon="2.11573">
        <ele>41.5</ele>
        <time>2022-02-15T09:50:58Z</time>
      </trkpt>
      <trkpt lat="48.96034" lon="2.11581">
        <ele>41.7</ele>
        <time>2022-02-15T09:51:02Z</time>
      </trkpt>
      <trkpt lat="48.96032" lon="2.1159">
        <ele>41.8</ele>
        <time>2022-02-15T09:51:06Z</time>
      </trkpt>
      <trkpt lat="48.96031" lon="2.11596">
        <ele>41.7</ele>
        <time>2022-02-15T09:51:09Z</time>
      </trkpt>
      <trkpt lat="48.96031" lon="2.11605">
        <ele>41.8</ele>
        <time>2022-02-15T09:51:14Z</time>
      </trkpt>
      <trkpt lat="48.9603" lon="2.11613">
        <ele>42.1</ele>
        <time>2022-02-15T09:51:19Z</time>
      </trkpt>
      <trkpt lat="48.96028" lon="2.11622">
        <ele>42.5</ele>
        <time>2022-02-15T09:51:23Z</time>
      </trkpt>
      <trkpt lat="48.96023" lon="2.11621">
        <ele>42.7</ele>
        <time>2022-02-15T09:51:26Z</time>
      </trkpt>
      <trkpt lat="48.9602" lon="2.11615">
        <ele>43.4</ele>
        <time>2022-02-15T09:51:30Z</time>
      </trkpt>
      <trkpt lat="48.96015" lon="2.11612">
        <ele>44.4</ele>
        <time>2022-02-15T09:51:33Z</time>
      </trkpt>
      <trkpt lat="48.96011" lon="2.11611">
        <ele>45.2</ele>
        <time>2022-02-15T09:51:37Z</time>
      </trkpt>
      <trkpt lat="48.96005" lon="2.11611">
        <ele>45.6</ele>
        <time>2022-02-15T09:51:41Z</time>
      </trkpt>
      <trkpt lat="48.96" lon="2.1161">
        <ele>45.8</ele>
        <time>2022-02-15T09:51:45Z</time>
      </trkpt>
      <trkpt lat="48.95995" lon="2.11608">
        <ele>46</ele>
        <time>2022-02-15T09:51:48Z</time>
      </trkpt>
      <trkpt lat="48.9599" lon="2.11606">
        <ele>46.5</ele>
        <time>2022-02-15T09:51:53Z</time>
      </trkpt>
      <trkpt lat="48.95986" lon="2.11605">
        <ele>46.8</ele>
        <time>2022-02-15T09:51:57Z</time>
      </trkpt>
      <trkpt lat="48.95981" lon="2.11603">
        <ele>47</ele>
        <time>2022-02-15T09:52:01Z</time>
      </trkpt>
      <trkpt lat="48.95976" lon="2.11601">
        <ele>47.2</ele>
        <time>2022-02-15T09:52:04Z</time>
      </trkpt>
      <trkpt lat="48.9597" lon="2.11598">
        <ele>47.5</ele>
        <time>2022-02-15T09:52:08Z</time>
      </trkpt>
      <trkpt lat="48.95965" lon="2.11596">
        <ele>47.8</ele>
        <time>2022-02-15T09:52:12Z</time>
      </trkpt>
      <trkpt lat="48.95959" lon="2.11594">
        <ele>47.9</ele>
        <time>2022-02-15T09:52:16Z</time>
      </trkpt>
      <trkpt lat="48.95953" lon="2.11592">
        <ele>47.7</ele>
        <time>2022-02-15T09:52:21Z</time>
      </trkpt>
      <trkpt lat="48.95949" lon="2.1159">
        <ele>47.5</ele>
        <time>2022-02-15T09:52:24Z</time>
      </trkpt>
      <trkpt lat="48.95944" lon="2.11589">
        <ele>47.5</ele>
        <time>2022-02-15T09:52:28Z</time>
      </trkpt>
      <trkpt lat="48.95939" lon="2.11589">
        <ele>47.7</ele>
        <time>2022-02-15T09:52:31Z</time>
      </trkpt>
      <trkpt lat="48.95934" lon="2.11586">
        <ele>48</ele>
        <time>2022-02-15T09:52:34Z</time>
      </trkpt>
      <trkpt lat="48.95929" lon="2.11583">
        <ele>48.8</ele>
        <time>2022-02-15T09:52:39Z</time>
      </trkpt>
      <trkpt lat="48.95924" lon="2.11581">
        <ele>49.6</ele>
        <time>2022-02-15T09:52:42Z</time>
      </trkpt>
      <trkpt lat="48.95919" lon="2.11579">
        <ele>50.6</ele>
        <time>2022-02-15T09:52:46Z</time>
      </trkpt>
      <trkpt lat="48.95914" lon="2.11577">
        <ele>51.5</ele>
        <time>2022-02-15T09:52:49Z</time>
      </trkpt>
      <trkpt lat="48.9591" lon="2.11576">
        <ele>52.1</ele>
        <time>2022-02-15T09:52:53Z</time>
      </trkpt>
      <trkpt lat="48.95904" lon="2.11576">
        <ele>52.2</ele>
        <time>2022-02-15T09:52:57Z</time>
      </trkpt>
      <trkpt lat="48.95898" lon="2.11574">
        <ele>51.7</ele>
        <time>2022-02-15T09:53:02Z</time>
      </trkpt>
      <trkpt lat="48.95894" lon="2.11572">
        <ele>51</ele>
        <time>2022-02-15T09:53:05Z</time>
      </trkpt>
      <trkpt lat="48.95889" lon="2.11569">
        <ele>50.1</ele>
        <time>2022-02-15T09:53:09Z</time>
      </trkpt>
      <trkpt lat="48.95884" lon="2.11566">
        <ele>49.3</ele>
        <time>2022-02-15T09:53:13Z</time>
      </trkpt>
      <trkpt lat="48.95879" lon="2.11564">
        <ele>49.1</ele>
        <time>2022-02-15T09:53:16Z</time>
      </trkpt>
      <trkpt lat="48.95874" lon="2.11563">
        <ele>48</ele>
        <time>2022-02-15T09:53:20Z</time>
      </trkpt>
      <trkpt lat="48.95869" lon="2.11563">
        <ele>46.9</ele>
        <time>2022-02-15T09:53:24Z</time>
      </trkpt>
      <trkpt lat="48.95864" lon="2.11561">
        <ele>46.6</ele>
        <time>2022-02-15T09:53:27Z</time>
      </trkpt>
      <trkpt lat="48.95859" lon="2.11559">
        <ele>46.5</ele>
        <time>2022-02-15T09:53:32Z</time>
      </trkpt>
      <trkpt lat="48.95853" lon="2.11555">
        <ele>46.5</ele>
        <time>2022-02-15T09:53:37Z</time>
      </trkpt>
      <trkpt lat="48.95848" lon="2.11555">
        <ele>46.3</ele>
        <time>2022-02-15T09:53:41Z</time>
      </trkpt>
      <trkpt lat="48.95843" lon="2.11553">
        <ele>45.9</ele>
        <time>2022-02-15T09:53:44Z</time>
      </trkpt>
      <trkpt lat="48.95838" lon="2.11548">
        <ele>46.2</ele>
        <time>2022-02-15T09:53:48Z</time>
      </trkpt>
      <trkpt lat="48.95834" lon="2.11542">
        <ele>47.1</ele>
        <time>2022-02-15T09:53:52Z</time>
      </trkpt>
      <trkpt lat="48.9583" lon="2.11538">
        <ele>47.9</ele>
        <time>2022-02-15T09:53:57Z</time>
      </trkpt>
      <trkpt lat="48.95833" lon="2.11542">
        <ele>47.2</ele>
        <time>2022-02-15T09:55:35Z</time>
      </trkpt>
      <trkpt lat="48.95828" lon="2.11544">
        <ele>48.4</ele>
        <time>2022-02-15T09:56:19Z</time>
      </trkpt>
      <trkpt lat="48.95823" lon="2.11543">
        <ele>47.8</ele>
        <time>2022-02-15T09:56:22Z</time>
      </trkpt>
      <trkpt lat="48.95819" lon="2.11538">
        <ele>47.9</ele>
        <time>2022-02-15T09:56:26Z</time>
      </trkpt>
      <trkpt lat="48.95814" lon="2.11537">
        <ele>48</ele>
        <time>2022-02-15T09:56:33Z</time>
      </trkpt>
      <trkpt lat="48.9581" lon="2.11545">
        <ele>47.3</ele>
        <time>2022-02-15T09:56:42Z</time>
      </trkpt>
      <trkpt lat="48.95806" lon="2.11541">
        <ele>46.2</ele>
        <time>2022-02-15T09:56:51Z</time>
      </trkpt>
      <trkpt lat="48.95801" lon="2.11535">
        <ele>47</ele>
        <time>2022-02-15T09:56:56Z</time>
      </trkpt>
      <trkpt lat="48.95798" lon="2.11529">
        <ele>48.4</ele>
        <time>2022-02-15T09:56:59Z</time>
      </trkpt>
      <trkpt lat="48.95795" lon="2.11522">
        <ele>49.6</ele>
        <time>2022-02-15T09:57:03Z</time>
      </trkpt>
      <trkpt lat="48.95792" lon="2.11517">
        <ele>49.8</ele>
        <time>2022-02-15T09:57:06Z</time>
      </trkpt>
      <trkpt lat="48.95789" lon="2.11512">
        <ele>50.1</ele>
        <time>2022-02-15T09:57:10Z</time>
      </trkpt>
      <trkpt lat="48.95785" lon="2.11507">
        <ele>50.7</ele>
        <time>2022-02-15T09:57:14Z</time>
      </trkpt>
      <trkpt lat="48.95788" lon="2.11513">
        <ele>51.8</ele>
        <time>2022-02-15T09:57:23Z</time>
      </trkpt>
      <trkpt lat="48.95786" lon="2.11507">
        <ele>48.6</ele>
        <time>2022-02-15T09:57:43Z</time>
      </trkpt>
      <trkpt lat="48.95783" lon="2.11501">
        <ele>47.4</ele>
        <time>2022-02-15T09:57:46Z</time>
      </trkpt>
      <trkpt lat="48.95779" lon="2.11495">
        <ele>47.2</ele>
        <time>2022-02-15T09:57:49Z</time>
      </trkpt>
      <trkpt lat="48.95774" lon="2.1149">
        <ele>46.7</ele>
        <time>2022-02-15T09:57:52Z</time>
      </trkpt>
      <trkpt lat="48.9577" lon="2.11485">
        <ele>46.3</ele>
        <time>2022-02-15T09:57:56Z</time>
      </trkpt>
      <trkpt lat="48.95766" lon="2.1148">
        <ele>45.8</ele>
        <time>2022-02-15T09:57:59Z</time>
      </trkpt>
      <trkpt lat="48.95762" lon="2.11475">
        <ele>45.7</ele>
        <time>2022-02-15T09:58:02Z</time>
      </trkpt>
      <trkpt lat="48.95758" lon="2.11471">
        <ele>45.6</ele>
        <time>2022-02-15T09:58:04Z</time>
      </trkpt>
      <trkpt lat="48.95754" lon="2.11466">
        <ele>45.6</ele>
        <time>2022-02-15T09:58:08Z</time>
      </trkpt>
      <trkpt lat="48.95749" lon="2.11462">
        <ele>45.8</ele>
        <time>2022-02-15T09:58:12Z</time>
      </trkpt>
      <trkpt lat="48.95744" lon="2.11457">
        <ele>45.7</ele>
        <time>2022-02-15T09:58:17Z</time>
      </trkpt>
      <trkpt lat="48.95739" lon="2.11452">
        <ele>45.6</ele>
        <time>2022-02-15T09:58:20Z</time>
      </trkpt>
      <trkpt lat="48.95735" lon="2.11448">
        <ele>45.3</ele>
        <time>2022-02-15T09:58:24Z</time>
      </trkpt>
      <trkpt lat="48.95731" lon="2.11444">
        <ele>44.5</ele>
        <time>2022-02-15T09:58:27Z</time>
      </trkpt>
      <trkpt lat="48.95726" lon="2.11437">
        <ele>43.9</ele>
        <time>2022-02-15T09:58:31Z</time>
      </trkpt>
      <trkpt lat="48.95722" lon="2.11433">
        <ele>43.8</ele>
        <time>2022-02-15T09:58:35Z</time>
      </trkpt>
      <trkpt lat="48.95719" lon="2.11428">
        <ele>44.2</ele>
        <time>2022-02-15T09:58:37Z</time>
      </trkpt>
      <trkpt lat="48.95629" lon="2.11332">
        <ele>47.8</ele>
        <time>2022-02-15T09:59:55Z</time>
      </trkpt>
      <trkpt lat="48.95625" lon="2.11327">
        <ele>48.1</ele>
        <time>2022-02-15T09:59:58Z</time>
      </trkpt>
      <trkpt lat="48.95621" lon="2.11323">
        <ele>48.1</ele>
        <time>2022-02-15T10:00:01Z</time>
      </trkpt>
      <trkpt lat="48.95616" lon="2.11318">
        <ele>47.8</ele>
        <time>2022-02-15T10:00:05Z</time>
      </trkpt>
      <trkpt lat="48.95611" lon="2.11313">
        <ele>47.9</ele>
        <time>2022-02-15T10:00:10Z</time>
      </trkpt>
      <trkpt lat="48.95606" lon="2.11309">
        <ele>47.7</ele>
        <time>2022-02-15T10:00:14Z</time>
      </trkpt>
      <trkpt lat="48.95602" lon="2.11304">
        <ele>47.1</ele>
        <time>2022-02-15T10:00:18Z</time>
      </trkpt>
      <trkpt lat="48.95598" lon="2.113">
        <ele>46.8</ele>
        <time>2022-02-15T10:00:21Z</time>
      </trkpt>
      <trkpt lat="48.95594" lon="2.11295">
        <ele>47</ele>
        <time>2022-02-15T10:00:24Z</time>
      </trkpt>
      <trkpt lat="48.95591" lon="2.11289">
        <ele>47.3</ele>
        <time>2022-02-15T10:00:28Z</time>
      </trkpt>
      <trkpt lat="48.95587" lon="2.11285">
        <ele>47.2</ele>
        <time>2022-02-15T10:00:31Z</time>
      </trkpt>
      <trkpt lat="48.95583" lon="2.1128">
        <ele>47.1</ele>
        <time>2022-02-15T10:00:35Z</time>
      </trkpt>
      <trkpt lat="48.95578" lon="2.11275">
        <ele>47.8</ele>
        <time>2022-02-15T10:00:40Z</time>
      </trkpt>
      <trkpt lat="48.95574" lon="2.1127">
        <ele>48.4</ele>
        <time>2022-02-15T10:00:44Z</time>
      </trkpt>
      <trkpt lat="48.9557" lon="2.11267">
        <ele>49.8</ele>
        <time>2022-02-15T10:00:48Z</time>
      </trkpt>
      <trkpt lat="48.95565" lon="2.11264">
        <ele>51.4</ele>
        <time>2022-02-15T10:00:51Z</time>
      </trkpt>
      <trkpt lat="48.9556" lon="2.1126">
        <ele>51.6</ele>
        <time>2022-02-15T10:00:55Z</time>
      </trkpt>
      <trkpt lat="48.95556" lon="2.11254">
        <ele>51.3</ele>
        <time>2022-02-15T10:01:00Z</time>
      </trkpt>
      <trkpt lat="48.95552" lon="2.11252">
        <ele>47.6</ele>
        <time>2022-02-15T10:02:25Z</time>
      </trkpt>
      <trkpt lat="48.95546" lon="2.11248">
        <ele>46.8</ele>
        <time>2022-02-15T10:02:29Z</time>
      </trkpt>
      <trkpt lat="48.95542" lon="2.11244">
        <ele>47.5</ele>
        <time>2022-02-15T10:02:33Z</time>
      </trkpt>
      <trkpt lat="48.95538" lon="2.1124">
        <ele>49.3</ele>
        <time>2022-02-15T10:02:37Z</time>
      </trkpt>
      <trkpt lat="48.95533" lon="2.11234">
        <ele>48.9</ele>
        <time>2022-02-15T10:02:41Z</time>
      </trkpt>
      <trkpt lat="48.95529" lon="2.11229">
        <ele>46.8</ele>
        <time>2022-02-15T10:02:46Z</time>
      </trkpt>
      <trkpt lat="48.95525" lon="2.11226">
        <ele>45.1</ele>
        <time>2022-02-15T10:02:50Z</time>
      </trkpt>
      <trkpt lat="48.9552" lon="2.11222">
        <ele>44</ele>
        <time>2022-02-15T10:02:53Z</time>
      </trkpt>
      <trkpt lat="48.95516" lon="2.11218">
        <ele>43.4</ele>
        <time>2022-02-15T10:02:57Z</time>
      </trkpt>
      <trkpt lat="48.95512" lon="2.11213">
        <ele>43.8</ele>
        <time>2022-02-15T10:03:01Z</time>
      </trkpt>
      <trkpt lat="48.95508" lon="2.11208">
        <ele>45.5</ele>
        <time>2022-02-15T10:03:05Z</time>
      </trkpt>
      <trkpt lat="48.95504" lon="2.11203">
        <ele>47.6</ele>
        <time>2022-02-15T10:03:08Z</time>
      </trkpt>
      <trkpt lat="48.955" lon="2.11198">
        <ele>49.1</ele>
        <time>2022-02-15T10:03:12Z</time>
      </trkpt>
      <trkpt lat="48.95496" lon="2.11193">
        <ele>49.4</ele>
        <time>2022-02-15T10:03:16Z</time>
      </trkpt>
      <trkpt lat="48.95493" lon="2.11188">
        <ele>49.5</ele>
        <time>2022-02-15T10:03:19Z</time>
      </trkpt>
      <trkpt lat="48.95489" lon="2.11184">
        <ele>49.2</ele>
        <time>2022-02-15T10:03:23Z</time>
      </trkpt>
      <trkpt lat="48.95484" lon="2.1118">
        <ele>49.1</ele>
        <time>2022-02-15T10:03:27Z</time>
      </trkpt>
      <trkpt lat="48.9548" lon="2.11176">
        <ele>49.3</ele>
        <time>2022-02-15T10:03:30Z</time>
      </trkpt>
      <trkpt lat="48.95476" lon="2.11171">
        <ele>49.7</ele>
        <time>2022-02-15T10:03:34Z</time>
      </trkpt>
      <trkpt lat="48.95472" lon="2.11166">
        <ele>49</ele>
        <time>2022-02-15T10:03:37Z</time>
      </trkpt>
      <trkpt lat="48.95467" lon="2.11161">
        <ele>48</ele>
        <time>2022-02-15T10:03:42Z</time>
      </trkpt>
      <trkpt lat="48.95463" lon="2.11156">
        <ele>47.9</ele>
        <time>2022-02-15T10:03:46Z</time>
      </trkpt>
      <trkpt lat="48.95459" lon="2.11152">
        <ele>48.9</ele>
        <time>2022-02-15T10:03:49Z</time>
      </trkpt>
      <trkpt lat="48.95454" lon="2.11148">
        <ele>49.2</ele>
        <time>2022-02-15T10:03:53Z</time>
      </trkpt>
      <trkpt lat="48.95449" lon="2.11143">
        <ele>48.6</ele>
        <time>2022-02-15T10:03:57Z</time>
      </trkpt>
      <trkpt lat="48.95444" lon="2.11138">
        <ele>47.5</ele>
        <time>2022-02-15T10:04:02Z</time>
      </trkpt>
      <trkpt lat="48.9544" lon="2.11133">
        <ele>47.3</ele>
        <time>2022-02-15T10:04:06Z</time>
      </trkpt>
      <trkpt lat="48.95437" lon="2.11129">
        <ele>47.8</ele>
        <time>2022-02-15T10:04:09Z</time>
      </trkpt>
      <trkpt lat="48.95432" lon="2.11125">
        <ele>48.1</ele>
        <time>2022-02-15T10:04:12Z</time>
      </trkpt>
      <trkpt lat="48.95428" lon="2.11121">
        <ele>48.2</ele>
        <time>2022-02-15T10:04:16Z</time>
      </trkpt>
      <trkpt lat="48.95424" lon="2.11116">
        <ele>48</ele>
        <time>2022-02-15T10:04:21Z</time>
      </trkpt>
      <trkpt lat="48.9542" lon="2.11111">
        <ele>48.2</ele>
        <time>2022-02-15T10:04:25Z</time>
      </trkpt>
      <trkpt lat="48.95415" lon="2.11107">
        <ele>48.5</ele>
        <time>2022-02-15T10:04:29Z</time>
      </trkpt>
      <trkpt lat="48.9541" lon="2.11103">
        <ele>48.9</ele>
        <time>2022-02-15T10:04:34Z</time>
      </trkpt>
      <trkpt lat="48.95405" lon="2.11102">
        <ele>49.1</ele>
        <time>2022-02-15T10:04:38Z</time>
      </trkpt>
      <trkpt lat="48.954" lon="2.11104">
        <ele>50.2</ele>
        <time>2022-02-15T10:05:10Z</time>
      </trkpt>
      <trkpt lat="48.95395" lon="2.11105">
        <ele>49.9</ele>
        <time>2022-02-15T10:05:14Z</time>
      </trkpt>
      <trkpt lat="48.95389" lon="2.11106">
        <ele>49.5</ele>
        <time>2022-02-15T10:05:18Z</time>
      </trkpt>
      <trkpt lat="48.95384" lon="2.11107">
        <ele>49.2</ele>
        <time>2022-02-15T10:05:22Z</time>
      </trkpt>
      <trkpt lat="48.95379" lon="2.11109">
        <ele>49.6</ele>
        <time>2022-02-15T10:05:27Z</time>
      </trkpt>
      <trkpt lat="48.95373" lon="2.11108">
        <ele>50.3</ele>
        <time>2022-02-15T10:05:31Z</time>
      </trkpt>
      <trkpt lat="48.95369" lon="2.11108">
        <ele>51</ele>
        <time>2022-02-15T10:05:35Z</time>
      </trkpt>
      <trkpt lat="48.95364" lon="2.1111">
        <ele>52.3</ele>
        <time>2022-02-15T10:05:40Z</time>
      </trkpt>
      <trkpt lat="48.95359" lon="2.11112">
        <ele>53.3</ele>
        <time>2022-02-15T10:05:45Z</time>
      </trkpt>
      <trkpt lat="48.95354" lon="2.11115">
        <ele>53.3</ele>
        <time>2022-02-15T10:05:48Z</time>
      </trkpt>
      <trkpt lat="48.95348" lon="2.11116">
        <ele>52.4</ele>
        <time>2022-02-15T10:05:52Z</time>
      </trkpt>
      <trkpt lat="48.95343" lon="2.11116">
        <ele>51.7</ele>
        <time>2022-02-15T10:05:56Z</time>
      </trkpt>
      <trkpt lat="48.95338" lon="2.11117">
        <ele>51</ele>
        <time>2022-02-15T10:05:59Z</time>
      </trkpt>
      <trkpt lat="48.95333" lon="2.11118">
        <ele>50.8</ele>
        <time>2022-02-15T10:06:03Z</time>
      </trkpt>
      <trkpt lat="48.95328" lon="2.1112">
        <ele>51.1</ele>
        <time>2022-02-15T10:06:07Z</time>
      </trkpt>
      <trkpt lat="48.95323" lon="2.11122">
        <ele>51.2</ele>
        <time>2022-02-15T10:06:11Z</time>
      </trkpt>
      <trkpt lat="48.95317" lon="2.11124">
        <ele>51.2</ele>
        <time>2022-02-15T10:06:15Z</time>
      </trkpt>
      <trkpt lat="48.95311" lon="2.11125">
        <ele>50.6</ele>
        <time>2022-02-15T10:06:19Z</time>
      </trkpt>
      <trkpt lat="48.95306" lon="2.11126">
        <ele>49.3</ele>
        <time>2022-02-15T10:06:22Z</time>
      </trkpt>
      <trkpt lat="48.953" lon="2.11126">
        <ele>48.5</ele>
        <time>2022-02-15T10:06:26Z</time>
      </trkpt>
      <trkpt lat="48.95295" lon="2.11127">
        <ele>48.9</ele>
        <time>2022-02-15T10:06:30Z</time>
      </trkpt>
      <trkpt lat="48.9529" lon="2.11126">
        <ele>49.8</ele>
        <time>2022-02-15T10:06:34Z</time>
      </trkpt>
      <trkpt lat="48.95285" lon="2.11128">
        <ele>50.8</ele>
        <time>2022-02-15T10:06:37Z</time>
      </trkpt>
      <trkpt lat="48.95279" lon="2.11131">
        <ele>51.7</ele>
        <time>2022-02-15T10:06:42Z</time>
      </trkpt>
      <trkpt lat="48.95274" lon="2.11132">
        <ele>53.2</ele>
        <time>2022-02-15T10:06:46Z</time>
      </trkpt>
      <trkpt lat="48.95267" lon="2.11132">
        <ele>55</ele>
        <time>2022-02-15T10:06:52Z</time>
      </trkpt>
      <trkpt lat="48.95262" lon="2.11131">
        <ele>56.2</ele>
        <time>2022-02-15T10:06:55Z</time>
      </trkpt>
      <trkpt lat="48.95257" lon="2.11129">
        <ele>56.5</ele>
        <time>2022-02-15T10:06:59Z</time>
      </trkpt>
      <trkpt lat="48.95252" lon="2.11127">
        <ele>56.2</ele>
        <time>2022-02-15T10:07:03Z</time>
      </trkpt>
      <trkpt lat="48.95247" lon="2.11127">
        <ele>55.7</ele>
        <time>2022-02-15T10:07:06Z</time>
      </trkpt>
      <trkpt lat="48.95243" lon="2.11127">
        <ele>55.7</ele>
        <time>2022-02-15T10:07:10Z</time>
      </trkpt>
      <trkpt lat="48.95237" lon="2.11129">
        <ele>54.6</ele>
        <time>2022-02-15T10:07:14Z</time>
      </trkpt>
      <trkpt lat="48.95233" lon="2.11128">
        <ele>53.3</ele>
        <time>2022-02-15T10:07:17Z</time>
      </trkpt>
      <trkpt lat="48.95227" lon="2.11127">
        <ele>53.7</ele>
        <time>2022-02-15T10:07:21Z</time>
      </trkpt>
      <trkpt lat="48.95222" lon="2.11127">
        <ele>54.1</ele>
        <time>2022-02-15T10:07:25Z</time>
      </trkpt>
      <trkpt lat="48.95217" lon="2.11126">
        <ele>54</ele>
        <time>2022-02-15T10:07:28Z</time>
      </trkpt>
      <trkpt lat="48.95213" lon="2.11124">
        <ele>53.9</ele>
        <time>2022-02-15T10:07:32Z</time>
      </trkpt>
      <trkpt lat="48.95208" lon="2.11122">
        <ele>54.3</ele>
        <time>2022-02-15T10:07:35Z</time>
      </trkpt>
      <trkpt lat="48.95203" lon="2.11119">
        <ele>55</ele>
        <time>2022-02-15T10:07:38Z</time>
      </trkpt>
      <trkpt lat="48.95197" lon="2.11116">
        <ele>56.1</ele>
        <time>2022-02-15T10:07:42Z</time>
      </trkpt>
      <trkpt lat="48.95193" lon="2.11113">
        <ele>56.8</ele>
        <time>2022-02-15T10:07:45Z</time>
      </trkpt>
      <trkpt lat="48.95188" lon="2.1111">
        <ele>57.4</ele>
        <time>2022-02-15T10:07:49Z</time>
      </trkpt>
      <trkpt lat="48.95183" lon="2.11108">
        <ele>58.2</ele>
        <time>2022-02-15T10:07:52Z</time>
      </trkpt>
      <trkpt lat="48.95178" lon="2.11106">
        <ele>59.3</ele>
        <time>2022-02-15T10:07:55Z</time>
      </trkpt>
      <trkpt lat="48.95173" lon="2.11106">
        <ele>59.7</ele>
        <time>2022-02-15T10:08:00Z</time>
      </trkpt>
      <trkpt lat="48.95169" lon="2.1111">
        <ele>58.9</ele>
        <time>2022-02-15T10:08:03Z</time>
      </trkpt>
      <trkpt lat="48.95163" lon="2.11109">
        <ele>56.1</ele>
        <time>2022-02-15T10:08:07Z</time>
      </trkpt>
      <trkpt lat="48.95159" lon="2.11106">
        <ele>54.8</ele>
        <time>2022-02-15T10:08:11Z</time>
      </trkpt>
      <trkpt lat="48.95155" lon="2.11102">
        <ele>54.7</ele>
        <time>2022-02-15T10:08:14Z</time>
      </trkpt>
      <trkpt lat="48.95151" lon="2.11099">
        <ele>54.6</ele>
        <time>2022-02-15T10:08:18Z</time>
      </trkpt>
      <trkpt lat="48.95146" lon="2.11096">
        <ele>54.2</ele>
        <time>2022-02-15T10:08:22Z</time>
      </trkpt>
      <trkpt lat="48.9514" lon="2.11094">
        <ele>54</ele>
        <time>2022-02-15T10:08:25Z</time>
      </trkpt>
      <trkpt lat="48.95136" lon="2.1109">
        <ele>54.2</ele>
        <time>2022-02-15T10:08:28Z</time>
      </trkpt>
      <trkpt lat="48.95131" lon="2.11088">
        <ele>54.6</ele>
        <time>2022-02-15T10:08:32Z</time>
      </trkpt>
      <trkpt lat="48.95126" lon="2.11088">
        <ele>55.4</ele>
        <time>2022-02-15T10:08:36Z</time>
      </trkpt>
      <trkpt lat="48.95121" lon="2.11087">
        <ele>56.8</ele>
        <time>2022-02-15T10:08:39Z</time>
      </trkpt>
      <trkpt lat="48.95115" lon="2.11085">
        <ele>58.4</ele>
        <time>2022-02-15T10:08:43Z</time>
      </trkpt>
      <trkpt lat="48.9511" lon="2.11083">
        <ele>59.3</ele>
        <time>2022-02-15T10:08:47Z</time>
      </trkpt>
      <trkpt lat="48.95105" lon="2.11081">
        <ele>59</ele>
        <time>2022-02-15T10:08:51Z</time>
      </trkpt>
      <trkpt lat="48.95101" lon="2.11078">
        <ele>58.6</ele>
        <time>2022-02-15T10:08:54Z</time>
      </trkpt>
      <trkpt lat="48.95096" lon="2.11077">
        <ele>57.9</ele>
        <time>2022-02-15T10:08:57Z</time>
      </trkpt>
      <trkpt lat="48.9509" lon="2.11075">
        <ele>58.1</ele>
        <time>2022-02-15T10:09:01Z</time>
      </trkpt>
      <trkpt lat="48.95085" lon="2.11073">
        <ele>59.1</ele>
        <time>2022-02-15T10:09:05Z</time>
      </trkpt>
      <trkpt lat="48.9508" lon="2.11072">
        <ele>60</ele>
        <time>2022-02-15T10:09:09Z</time>
      </trkpt>
      <trkpt lat="48.95076" lon="2.1107">
        <ele>60.8</ele>
        <time>2022-02-15T10:09:12Z</time>
      </trkpt>
      <trkpt lat="48.95071" lon="2.11068">
        <ele>61.2</ele>
        <time>2022-02-15T10:09:16Z</time>
      </trkpt>
      <trkpt lat="48.95066" lon="2.11065">
        <ele>61.5</ele>
        <time>2022-02-15T10:09:19Z</time>
      </trkpt>
      <trkpt lat="48.95061" lon="2.11062">
        <ele>60.8</ele>
        <time>2022-02-15T10:09:23Z</time>
      </trkpt>
      <trkpt lat="48.95055" lon="2.1106">
        <ele>60.5</ele>
        <time>2022-02-15T10:09:27Z</time>
      </trkpt>
      <trkpt lat="48.95051" lon="2.11058">
        <ele>59.7</ele>
        <time>2022-02-15T10:09:30Z</time>
      </trkpt>
      <trkpt lat="48.95045" lon="2.11056">
        <ele>59.8</ele>
        <time>2022-02-15T10:09:35Z</time>
      </trkpt>
      <trkpt lat="48.9504" lon="2.11052">
        <ele>59.9</ele>
        <time>2022-02-15T10:09:38Z</time>
      </trkpt>
      <trkpt lat="48.95034" lon="2.11052">
        <ele>58.9</ele>
        <time>2022-02-15T10:09:42Z</time>
      </trkpt>
      <trkpt lat="48.95029" lon="2.11052">
        <ele>57.8</ele>
        <time>2022-02-15T10:09:46Z</time>
      </trkpt>
      <trkpt lat="48.95024" lon="2.1105">
        <ele>57.4</ele>
        <time>2022-02-15T10:09:51Z</time>
      </trkpt>
      <trkpt lat="48.95019" lon="2.11049">
        <ele>57.1</ele>
        <time>2022-02-15T10:09:54Z</time>
      </trkpt>
      <trkpt lat="48.95013" lon="2.11048">
        <ele>55.4</ele>
        <time>2022-02-15T10:09:59Z</time>
      </trkpt>
      <trkpt lat="48.95009" lon="2.11051">
        <ele>53.9</ele>
        <time>2022-02-15T10:10:05Z</time>
      </trkpt>
      <trkpt lat="48.95004" lon="2.1105">
        <ele>54.3</ele>
        <time>2022-02-15T10:10:09Z</time>
      </trkpt>
      <trkpt lat="48.95" lon="2.11046">
        <ele>54.5</ele>
        <time>2022-02-15T10:10:13Z</time>
      </trkpt>
      <trkpt lat="48.94995" lon="2.11043">
        <ele>54</ele>
        <time>2022-02-15T10:10:18Z</time>
      </trkpt>
      <trkpt lat="48.9499" lon="2.1104">
        <ele>52.6</ele>
        <time>2022-02-15T10:10:23Z</time>
      </trkpt>
      <trkpt lat="48.94985" lon="2.11038">
        <ele>50.9</ele>
        <time>2022-02-15T10:10:28Z</time>
      </trkpt>
      <trkpt lat="48.94981" lon="2.11035">
        <ele>50.6</ele>
        <time>2022-02-15T10:10:32Z</time>
      </trkpt>
      <trkpt lat="48.94977" lon="2.11031">
        <ele>51</ele>
        <time>2022-02-15T10:10:35Z</time>
      </trkpt>
      <trkpt lat="48.94972" lon="2.11029">
        <ele>52.1</ele>
        <time>2022-02-15T10:10:40Z</time>
      </trkpt>
      <trkpt lat="48.94966" lon="2.11027">
        <ele>52.9</ele>
        <time>2022-02-15T10:10:44Z</time>
      </trkpt>
      <trkpt lat="48.94961" lon="2.1103">
        <ele>54.1</ele>
        <time>2022-02-15T10:10:49Z</time>
      </trkpt>
      <trkpt lat="48.94957" lon="2.11034">
        <ele>55.5</ele>
        <time>2022-02-15T10:10:53Z</time>
      </trkpt>
      <trkpt lat="48.94952" lon="2.11036">
        <ele>55.5</ele>
        <time>2022-02-15T10:10:58Z</time>
      </trkpt>
      <trkpt lat="48.94948" lon="2.11035">
        <ele>54.3</ele>
        <time>2022-02-15T10:11:02Z</time>
      </trkpt>
      <trkpt lat="48.94942" lon="2.11033">
        <ele>53.9</ele>
        <time>2022-02-15T10:11:07Z</time>
      </trkpt>
      <trkpt lat="48.94937" lon="2.11032">
        <ele>53.8</ele>
        <time>2022-02-15T10:11:11Z</time>
      </trkpt>
      <trkpt lat="48.94931" lon="2.1103">
        <ele>53.8</ele>
        <time>2022-02-15T10:11:16Z</time>
      </trkpt>
      <trkpt lat="48.94927" lon="2.11029">
        <ele>54.6</ele>
        <time>2022-02-15T10:11:19Z</time>
      </trkpt>
      <trkpt lat="48.94922" lon="2.11027">
        <ele>55.3</ele>
        <time>2022-02-15T10:11:23Z</time>
      </trkpt>
      <trkpt lat="48.94917" lon="2.11025">
        <ele>56.1</ele>
        <time>2022-02-15T10:11:26Z</time>
      </trkpt>
      <trkpt lat="48.94913" lon="2.11023">
        <ele>56.1</ele>
        <time>2022-02-15T10:11:30Z</time>
      </trkpt>
      <trkpt lat="48.94908" lon="2.11022">
        <ele>56.5</ele>
        <time>2022-02-15T10:11:33Z</time>
      </trkpt>
      <trkpt lat="48.94903" lon="2.1102">
        <ele>56.3</ele>
        <time>2022-02-15T10:11:37Z</time>
      </trkpt>
      <trkpt lat="48.94898" lon="2.11018">
        <ele>56.4</ele>
        <time>2022-02-15T10:11:41Z</time>
      </trkpt>
      <trkpt lat="48.94892" lon="2.11015">
        <ele>56.2</ele>
        <time>2022-02-15T10:11:45Z</time>
      </trkpt>
      <trkpt lat="48.94887" lon="2.11012">
        <ele>56.4</ele>
        <time>2022-02-15T10:11:49Z</time>
      </trkpt>
      <trkpt lat="48.94882" lon="2.1101">
        <ele>57</ele>
        <time>2022-02-15T10:11:53Z</time>
      </trkpt>
      <trkpt lat="48.94876" lon="2.11007">
        <ele>58.2</ele>
        <time>2022-02-15T10:11:57Z</time>
      </trkpt>
      <trkpt lat="48.94871" lon="2.11007">
        <ele>57.8</ele>
        <time>2022-02-15T10:12:00Z</time>
      </trkpt>
      <trkpt lat="48.94866" lon="2.11006">
        <ele>57.4</ele>
        <time>2022-02-15T10:12:04Z</time>
      </trkpt>
      <trkpt lat="48.94863" lon="2.11012">
        <ele>57.4</ele>
        <time>2022-02-15T10:12:07Z</time>
      </trkpt>
      <trkpt lat="48.94863" lon="2.1102">
        <ele>57.6</ele>
        <time>2022-02-15T10:12:11Z</time>
      </trkpt>
      <trkpt lat="48.94865" lon="2.11026">
        <ele>58.5</ele>
        <time>2022-02-15T10:12:14Z</time>
      </trkpt>
      <trkpt lat="48.94868" lon="2.11034">
        <ele>58.9</ele>
        <time>2022-02-15T10:12:18Z</time>
      </trkpt>
      <trkpt lat="48.94865" lon="2.1104">
        <ele>58.2</ele>
        <time>2022-02-15T10:12:23Z</time>
      </trkpt>
      <trkpt lat="48.94862" lon="2.11048">
        <ele>55.4</ele>
        <time>2022-02-15T10:12:27Z</time>
      </trkpt>
      <trkpt lat="48.94859" lon="2.11056">
        <ele>53.6</ele>
        <time>2022-02-15T10:12:32Z</time>
      </trkpt>
      <trkpt lat="48.94859" lon="2.11064">
        <ele>53.7</ele>
        <time>2022-02-15T10:12:36Z</time>
      </trkpt>
      <trkpt lat="48.9486" lon="2.11072">
        <ele>55.3</ele>
        <time>2022-02-15T10:12:41Z</time>
      </trkpt>
      <trkpt lat="48.94862" lon="2.11079">
        <ele>56.7</ele>
        <time>2022-02-15T10:12:44Z</time>
      </trkpt>
      <trkpt lat="48.94862" lon="2.11087">
        <ele>58</ele>
        <time>2022-02-15T10:12:49Z</time>
      </trkpt>
      <trkpt lat="48.94863" lon="2.11095">
        <ele>60.4</ele>
        <time>2022-02-15T10:12:53Z</time>
      </trkpt>
      <trkpt lat="48.94864" lon="2.11104">
        <ele>63.2</ele>
        <time>2022-02-15T10:12:57Z</time>
      </trkpt>
      <trkpt lat="48.94864" lon="2.11112">
        <ele>63.5</ele>
        <time>2022-02-15T10:13:02Z</time>
      </trkpt>
      <trkpt lat="48.94865" lon="2.11121">
        <ele>62.9</ele>
        <time>2022-02-15T10:13:06Z</time>
      </trkpt>
      <trkpt lat="48.94866" lon="2.1113">
        <ele>62.8</ele>
        <time>2022-02-15T10:13:11Z</time>
      </trkpt>
      <trkpt lat="48.94867" lon="2.11138">
        <ele>62.4</ele>
        <time>2022-02-15T10:13:15Z</time>
      </trkpt>
      <trkpt lat="48.94867" lon="2.11146">
        <ele>61.6</ele>
        <time>2022-02-15T10:13:19Z</time>
      </trkpt>
      <trkpt lat="48.94869" lon="2.11154">
        <ele>61.5</ele>
        <time>2022-02-15T10:13:22Z</time>
      </trkpt>
      <trkpt lat="48.94871" lon="2.1116">
        <ele>61.5</ele>
        <time>2022-02-15T10:13:25Z</time>
      </trkpt>
      <trkpt lat="48.94871" lon="2.11168">
        <ele>61.2</ele>
        <time>2022-02-15T10:13:29Z</time>
      </trkpt>
      <trkpt lat="48.94871" lon="2.11175">
        <ele>60.5</ele>
        <time>2022-02-15T10:13:33Z</time>
      </trkpt>
      <trkpt lat="48.94872" lon="2.11183">
        <ele>61</ele>
        <time>2022-02-15T10:13:38Z</time>
      </trkpt>
      <trkpt lat="48.94873" lon="2.1119">
        <ele>61.3</ele>
        <time>2022-02-15T10:13:42Z</time>
      </trkpt>
      <trkpt lat="48.94874" lon="2.11198">
        <ele>60.5</ele>
        <time>2022-02-15T10:13:46Z</time>
      </trkpt>
      <trkpt lat="48.94874" lon="2.11205">
        <ele>60.4</ele>
        <time>2022-02-15T10:13:50Z</time>
      </trkpt>
      <trkpt lat="48.94874" lon="2.11214">
        <ele>60.9</ele>
        <time>2022-02-15T10:13:54Z</time>
      </trkpt>
      <trkpt lat="48.94874" lon="2.11222">
        <ele>59.9</ele>
        <time>2022-02-15T10:13:59Z</time>
      </trkpt>
      <trkpt lat="48.94873" lon="2.1123">
        <ele>56.6</ele>
        <time>2022-02-15T10:14:04Z</time>
      </trkpt>
      <trkpt lat="48.94873" lon="2.11239">
        <ele>55.6</ele>
        <time>2022-02-15T10:14:09Z</time>
      </trkpt>
      <trkpt lat="48.94873" lon="2.11246">
        <ele>55.8</ele>
        <time>2022-02-15T10:14:25Z</time>
      </trkpt>
      <trkpt lat="48.94874" lon="2.11252">
        <ele>55.5</ele>
        <time>2022-02-15T10:14:42Z</time>
      </trkpt>
      <trkpt lat="48.94877" lon="2.11259">
        <ele>55.9</ele>
        <time>2022-02-15T10:14:47Z</time>
      </trkpt>
      <trkpt lat="48.94878" lon="2.11252">
        <ele>52.7</ele>
        <time>2022-02-15T10:15:01Z</time>
      </trkpt>
      <trkpt lat="48.94883" lon="2.11253">
        <ele>59.1</ele>
        <time>2022-02-15T10:15:46Z</time>
      </trkpt>
      <trkpt lat="48.94878" lon="2.11249">
        <ele>60.9</ele>
        <time>2022-02-15T10:16:12Z</time>
      </trkpt>
      <trkpt lat="48.94876" lon="2.11256">
        <ele>62.2</ele>
        <time>2022-02-15T10:16:18Z</time>
      </trkpt>
      <trkpt lat="48.94875" lon="2.11263">
        <ele>62.8</ele>
        <time>2022-02-15T10:16:21Z</time>
      </trkpt>
      <trkpt lat="48.94874" lon="2.1127">
        <ele>62.7</ele>
        <time>2022-02-15T10:16:25Z</time>
      </trkpt>
      <trkpt lat="48.94871" lon="2.11275">
        <ele>63</ele>
        <time>2022-02-15T10:16:29Z</time>
      </trkpt>
      <trkpt lat="48.94874" lon="2.11281">
        <ele>65.4</ele>
        <time>2022-02-15T10:16:35Z</time>
      </trkpt>
      <trkpt lat="48.94877" lon="2.11289">
        <ele>65.4</ele>
        <time>2022-02-15T10:16:40Z</time>
      </trkpt>
      <trkpt lat="48.94879" lon="2.11296">
        <ele>62.9</ele>
        <time>2022-02-15T10:16:43Z</time>
      </trkpt>
      <trkpt lat="48.94881" lon="2.11303">
        <ele>61.1</ele>
        <time>2022-02-15T10:16:47Z</time>
      </trkpt>
      <trkpt lat="48.94882" lon="2.11311">
        <ele>60.1</ele>
        <time>2022-02-15T10:16:51Z</time>
      </trkpt>
      <trkpt lat="48.9488" lon="2.11319">
        <ele>60</ele>
        <time>2022-02-15T10:16:55Z</time>
      </trkpt>
      <trkpt lat="48.94879" lon="2.11327">
        <ele>59.6</ele>
        <time>2022-02-15T10:16:58Z</time>
      </trkpt>
      <trkpt lat="48.94878" lon="2.11335">
        <ele>58.4</ele>
        <time>2022-02-15T10:17:02Z</time>
      </trkpt>
      <trkpt lat="48.94876" lon="2.11342">
        <ele>56.9</ele>
        <time>2022-02-15T10:17:06Z</time>
      </trkpt>
      <trkpt lat="48.94875" lon="2.11349">
        <ele>56.9</ele>
        <time>2022-02-15T10:17:10Z</time>
      </trkpt>
      <trkpt lat="48.94873" lon="2.11357">
        <ele>56.6</ele>
        <time>2022-02-15T10:17:14Z</time>
      </trkpt>
      <trkpt lat="48.94873" lon="2.11366">
        <ele>56.7</ele>
        <time>2022-02-15T10:17:18Z</time>
      </trkpt>
      <trkpt lat="48.94873" lon="2.11375">
        <ele>57.6</ele>
        <time>2022-02-15T10:17:22Z</time>
      </trkpt>
      <trkpt lat="48.94873" lon="2.11382">
        <ele>58.1</ele>
        <time>2022-02-15T10:17:26Z</time>
      </trkpt>
      <trkpt lat="48.94874" lon="2.1139">
        <ele>57.4</ele>
        <time>2022-02-15T10:17:29Z</time>
      </trkpt>
      <trkpt lat="48.94874" lon="2.11398">
        <ele>56.3</ele>
        <time>2022-02-15T10:17:33Z</time>
      </trkpt>
      <trkpt lat="48.94873" lon="2.11405">
        <ele>55.3</ele>
        <time>2022-02-15T10:17:37Z</time>
      </trkpt>
      <trkpt lat="48.94874" lon="2.11413">
        <ele>55.1</ele>
        <time>2022-02-15T10:17:41Z</time>
      </trkpt>
      <trkpt lat="48.94875" lon="2.11421">
        <ele>56.6</ele>
        <time>2022-02-15T10:17:45Z</time>
      </trkpt>
      <trkpt lat="48.94876" lon="2.11429">
        <ele>58.1</ele>
        <time>2022-02-15T10:17:48Z</time>
      </trkpt>
      <trkpt lat="48.94876" lon="2.11437">
        <ele>59.2</ele>
        <time>2022-02-15T10:17:52Z</time>
      </trkpt>
      <trkpt lat="48.94874" lon="2.11445">
        <ele>59.7</ele>
        <time>2022-02-15T10:17:56Z</time>
      </trkpt>
      <trkpt lat="48.94872" lon="2.11452">
        <ele>57.9</ele>
        <time>2022-02-15T10:18:00Z</time>
      </trkpt>
      <trkpt lat="48.94871" lon="2.11459">
        <ele>56.8</ele>
        <time>2022-02-15T10:18:03Z</time>
      </trkpt>
      <trkpt lat="48.9487" lon="2.11467">
        <ele>55.6</ele>
        <time>2022-02-15T10:18:08Z</time>
      </trkpt>
      <trkpt lat="48.9487" lon="2.11474">
        <ele>54.8</ele>
        <time>2022-02-15T10:18:11Z</time>
      </trkpt>
      <trkpt lat="48.94868" lon="2.11482">
        <ele>53.5</ele>
        <time>2022-02-15T10:18:15Z</time>
      </trkpt>
      <trkpt lat="48.94864" lon="2.11489">
        <ele>52.6</ele>
        <time>2022-02-15T10:18:18Z</time>
      </trkpt>
      <trkpt lat="48.9486" lon="2.11494">
        <ele>53</ele>
        <time>2022-02-15T10:18:22Z</time>
      </trkpt>
      <trkpt lat="48.9486" lon="2.11502">
        <ele>55.2</ele>
        <time>2022-02-15T10:18:26Z</time>
      </trkpt>
      <trkpt lat="48.94863" lon="2.11507">
        <ele>57.6</ele>
        <time>2022-02-15T10:18:30Z</time>
      </trkpt>
      <trkpt lat="48.94868" lon="2.1151">
        <ele>59.7</ele>
        <time>2022-02-15T10:18:33Z</time>
      </trkpt>
      <trkpt lat="48.94873" lon="2.11508">
        <ele>60.3</ele>
        <time>2022-02-15T10:18:38Z</time>
      </trkpt>
      <trkpt lat="48.94876" lon="2.11504">
        <ele>60.1</ele>
        <time>2022-02-15T10:18:41Z</time>
      </trkpt>
      <trkpt lat="48.94874" lon="2.11495">
        <ele>61.3</ele>
        <time>2022-02-15T10:18:59Z</time>
      </trkpt>
      <trkpt lat="48.94877" lon="2.11502">
        <ele>61</ele>
        <time>2022-02-15T10:19:03Z</time>
      </trkpt>
      <trkpt lat="48.94882" lon="2.11505">
        <ele>61.1</ele>
        <time>2022-02-15T10:19:05Z</time>
      </trkpt>
      <trkpt lat="48.94886" lon="2.11508">
        <ele>61.3</ele>
        <time>2022-02-15T10:19:08Z</time>
      </trkpt>
      <trkpt lat="48.94892" lon="2.1151">
        <ele>61.8</ele>
        <time>2022-02-15T10:19:10Z</time>
      </trkpt>
      <trkpt lat="48.94897" lon="2.11511">
        <ele>63</ele>
        <time>2022-02-15T10:19:13Z</time>
      </trkpt>
      <trkpt lat="48.94903" lon="2.11511">
        <ele>64.3</ele>
        <time>2022-02-15T10:19:17Z</time>
      </trkpt>
      <trkpt lat="48.94909" lon="2.11512">
        <ele>64.3</ele>
        <time>2022-02-15T10:19:21Z</time>
      </trkpt>
      <trkpt lat="48.94914" lon="2.11513">
        <ele>62.7</ele>
        <time>2022-02-15T10:19:24Z</time>
      </trkpt>
      <trkpt lat="48.94919" lon="2.11514">
        <ele>61.2</ele>
        <time>2022-02-15T10:19:28Z</time>
      </trkpt>
      <trkpt lat="48.94924" lon="2.11516">
        <ele>60.7</ele>
        <time>2022-02-15T10:19:32Z</time>
      </trkpt>
      <trkpt lat="48.94929" lon="2.11519">
        <ele>60</ele>
        <time>2022-02-15T10:19:37Z</time>
      </trkpt>
      <trkpt lat="48.94935" lon="2.1152">
        <ele>59.9</ele>
        <time>2022-02-15T10:19:41Z</time>
      </trkpt>
      <trkpt lat="48.9494" lon="2.11521">
        <ele>60.3</ele>
        <time>2022-02-15T10:19:44Z</time>
      </trkpt>
      <trkpt lat="48.94945" lon="2.11523">
        <ele>61.1</ele>
        <time>2022-02-15T10:19:48Z</time>
      </trkpt>
      <trkpt lat="48.94951" lon="2.11524">
        <ele>61.6</ele>
        <time>2022-02-15T10:19:51Z</time>
      </trkpt>
      <trkpt lat="48.94955" lon="2.11527">
        <ele>62.7</ele>
        <time>2022-02-15T10:19:54Z</time>
      </trkpt>
      <trkpt lat="48.9496" lon="2.1153">
        <ele>64.9</ele>
        <time>2022-02-15T10:19:58Z</time>
      </trkpt>
      <trkpt lat="48.94966" lon="2.11533">
        <ele>66.9</ele>
        <time>2022-02-15T10:20:02Z</time>
      </trkpt>
      <trkpt lat="48.94971" lon="2.11535">
        <ele>68.2</ele>
        <time>2022-02-15T10:20:06Z</time>
      </trkpt>
      <trkpt lat="48.94977" lon="2.11537">
        <ele>68.4</ele>
        <time>2022-02-15T10:20:09Z</time>
      </trkpt>
      <trkpt lat="48.94983" lon="2.11537">
        <ele>67.4</ele>
        <time>2022-02-15T10:20:13Z</time>
      </trkpt>
      <trkpt lat="48.94988" lon="2.11537">
        <ele>66.6</ele>
        <time>2022-02-15T10:20:17Z</time>
      </trkpt>
      <trkpt lat="48.94993" lon="2.11538">
        <ele>66.7</ele>
        <time>2022-02-15T10:20:20Z</time>
      </trkpt>
      <trkpt lat="48.94998" lon="2.11538">
        <ele>67.5</ele>
        <time>2022-02-15T10:20:24Z</time>
      </trkpt>
      <trkpt lat="48.95002" lon="2.1154">
        <ele>68.9</ele>
        <time>2022-02-15T10:20:28Z</time>
      </trkpt>
      <trkpt lat="48.95007" lon="2.11542">
        <ele>69</ele>
        <time>2022-02-15T10:20:31Z</time>
      </trkpt>
      <trkpt lat="48.95012" lon="2.11545">
        <ele>67.1</ele>
        <time>2022-02-15T10:20:35Z</time>
      </trkpt>
      <trkpt lat="48.95017" lon="2.11547">
        <ele>66.9</ele>
        <time>2022-02-15T10:20:39Z</time>
      </trkpt>
      <trkpt lat="48.95022" lon="2.1155">
        <ele>67.7</ele>
        <time>2022-02-15T10:20:44Z</time>
      </trkpt>
      <trkpt lat="48.95028" lon="2.11553">
        <ele>69.6</ele>
        <time>2022-02-15T10:20:48Z</time>
      </trkpt>
      <trkpt lat="48.95033" lon="2.11555">
        <ele>72.5</ele>
        <time>2022-02-15T10:20:52Z</time>
      </trkpt>
      <trkpt lat="48.95039" lon="2.11556">
        <ele>73.9</ele>
        <time>2022-02-15T10:20:55Z</time>
      </trkpt>
      <trkpt lat="48.95044" lon="2.11557">
        <ele>74.1</ele>
        <time>2022-02-15T10:20:59Z</time>
      </trkpt>
      <trkpt lat="48.9505" lon="2.11558">
        <ele>73.3</ele>
        <time>2022-02-15T10:21:03Z</time>
      </trkpt>
      <trkpt lat="48.95056" lon="2.11559">
        <ele>71.8</ele>
        <time>2022-02-15T10:21:07Z</time>
      </trkpt>
      <trkpt lat="48.95061" lon="2.11559">
        <ele>69.5</ele>
        <time>2022-02-15T10:21:11Z</time>
      </trkpt>
      <trkpt lat="48.95066" lon="2.1156">
        <ele>68.1</ele>
        <time>2022-02-15T10:21:14Z</time>
      </trkpt>
      <trkpt lat="48.95072" lon="2.11557">
        <ele>68.4</ele>
        <time>2022-02-15T10:21:20Z</time>
      </trkpt>
      <trkpt lat="48.95077" lon="2.11558">
        <ele>67.9</ele>
        <time>2022-02-15T10:21:24Z</time>
      </trkpt>
      <trkpt lat="48.95082" lon="2.1156">
        <ele>66.5</ele>
        <time>2022-02-15T10:21:28Z</time>
      </trkpt>
      <trkpt lat="48.95087" lon="2.11563">
        <ele>65.1</ele>
        <time>2022-02-15T10:21:32Z</time>
      </trkpt>
      <trkpt lat="48.95092" lon="2.11566">
        <ele>65.4</ele>
        <time>2022-02-15T10:21:35Z</time>
      </trkpt>
      <trkpt lat="48.95098" lon="2.11566">
        <ele>65.1</ele>
        <time>2022-02-15T10:21:39Z</time>
      </trkpt>
      <trkpt lat="48.95103" lon="2.11567">
        <ele>65.5</ele>
        <time>2022-02-15T10:21:43Z</time>
      </trkpt>
      <trkpt lat="48.95107" lon="2.11569">
        <ele>66.1</ele>
        <time>2022-02-15T10:21:46Z</time>
      </trkpt>
      <trkpt lat="48.95112" lon="2.11571">
        <ele>67.2</ele>
        <time>2022-02-15T10:21:50Z</time>
      </trkpt>
      <trkpt lat="48.95118" lon="2.11572">
        <ele>67.2</ele>
        <time>2022-02-15T10:21:54Z</time>
      </trkpt>
      <trkpt lat="48.95123" lon="2.11573">
        <ele>65.2</ele>
        <time>2022-02-15T10:21:57Z</time>
      </trkpt>
      <trkpt lat="48.95129" lon="2.11575">
        <ele>64.4</ele>
        <time>2022-02-15T10:22:01Z</time>
      </trkpt>
      <trkpt lat="48.95134" lon="2.11577">
        <ele>64.9</ele>
        <time>2022-02-15T10:22:05Z</time>
      </trkpt>
      <trkpt lat="48.95139" lon="2.11578">
        <ele>65.4</ele>
        <time>2022-02-15T10:22:09Z</time>
      </trkpt>
      <trkpt lat="48.95143" lon="2.11579">
        <ele>66.1</ele>
        <time>2022-02-15T10:22:12Z</time>
      </trkpt>
      <trkpt lat="48.95149" lon="2.1158">
        <ele>66.5</ele>
        <time>2022-02-15T10:22:16Z</time>
      </trkpt>
      <trkpt lat="48.95153" lon="2.11582">
        <ele>67.2</ele>
        <time>2022-02-15T10:22:19Z</time>
      </trkpt>
      <trkpt lat="48.95159" lon="2.11584">
        <ele>67.5</ele>
        <time>2022-02-15T10:22:23Z</time>
      </trkpt>
      <trkpt lat="48.95165" lon="2.11585">
        <ele>67.2</ele>
        <time>2022-02-15T10:22:27Z</time>
      </trkpt>
      <trkpt lat="48.9517" lon="2.11586">
        <ele>67.2</ele>
        <time>2022-02-15T10:22:31Z</time>
      </trkpt>
      <trkpt lat="48.95175" lon="2.11588">
        <ele>67.4</ele>
        <time>2022-02-15T10:22:34Z</time>
      </trkpt>
      <trkpt lat="48.95179" lon="2.11589">
        <ele>67.5</ele>
        <time>2022-02-15T10:22:38Z</time>
      </trkpt>
      <trkpt lat="48.95184" lon="2.11588">
        <ele>68.1</ele>
        <time>2022-02-15T10:22:42Z</time>
      </trkpt>
      <trkpt lat="48.95189" lon="2.11589">
        <ele>70.8</ele>
        <time>2022-02-15T10:22:46Z</time>
      </trkpt>
      <trkpt lat="48.95193" lon="2.11593">
        <ele>73.1</ele>
        <time>2022-02-15T10:22:50Z</time>
      </trkpt>
      <trkpt lat="48.95198" lon="2.11596">
        <ele>73.3</ele>
        <time>2022-02-15T10:22:54Z</time>
      </trkpt>
      <trkpt lat="48.95203" lon="2.11598">
        <ele>72.4</ele>
        <time>2022-02-15T10:22:58Z</time>
      </trkpt>
      <trkpt lat="48.95209" lon="2.116">
        <ele>70.3</ele>
        <time>2022-02-15T10:23:03Z</time>
      </trkpt>
      <trkpt lat="48.95214" lon="2.11601">
        <ele>68.5</ele>
        <time>2022-02-15T10:23:06Z</time>
      </trkpt>
      <trkpt lat="48.95219" lon="2.11604">
        <ele>68</ele>
        <time>2022-02-15T10:23:10Z</time>
      </trkpt>
      <trkpt lat="48.95225" lon="2.11606">
        <ele>68.8</ele>
        <time>2022-02-15T10:23:14Z</time>
      </trkpt>
      <trkpt lat="48.95231" lon="2.11608">
        <ele>69.5</ele>
        <time>2022-02-15T10:23:18Z</time>
      </trkpt>
      <trkpt lat="48.95236" lon="2.11609">
        <ele>69.1</ele>
        <time>2022-02-15T10:23:22Z</time>
      </trkpt>
      <trkpt lat="48.95241" lon="2.1161">
        <ele>68.4</ele>
        <time>2022-02-15T10:23:25Z</time>
      </trkpt>
      <trkpt lat="48.95245" lon="2.11611">
        <ele>68</ele>
        <time>2022-02-15T10:23:28Z</time>
      </trkpt>
      <trkpt lat="48.95251" lon="2.11613">
        <ele>67</ele>
        <time>2022-02-15T10:23:33Z</time>
      </trkpt>
      <trkpt lat="48.95256" lon="2.11615">
        <ele>66</ele>
        <time>2022-02-15T10:23:37Z</time>
      </trkpt>
      <trkpt lat="48.95261" lon="2.11615">
        <ele>66.2</ele>
        <time>2022-02-15T10:23:41Z</time>
      </trkpt>
      <trkpt lat="48.95267" lon="2.11616">
        <ele>66.2</ele>
        <time>2022-02-15T10:23:45Z</time>
      </trkpt>
      <trkpt lat="48.95272" lon="2.11619">
        <ele>65.6</ele>
        <time>2022-02-15T10:23:50Z</time>
      </trkpt>
      <trkpt lat="48.95277" lon="2.1162">
        <ele>64.9</ele>
        <time>2022-02-15T10:23:54Z</time>
      </trkpt>
      <trkpt lat="48.95282" lon="2.1162">
        <ele>64</ele>
        <time>2022-02-15T10:23:57Z</time>
      </trkpt>
      <trkpt lat="48.95287" lon="2.1162">
        <ele>62.7</ele>
        <time>2022-02-15T10:24:01Z</time>
      </trkpt>
      <trkpt lat="48.95292" lon="2.11622">
        <ele>61.6</ele>
        <time>2022-02-15T10:24:05Z</time>
      </trkpt>
      <trkpt lat="48.95297" lon="2.11624">
        <ele>61</ele>
        <time>2022-02-15T10:24:08Z</time>
      </trkpt>
      <trkpt lat="48.95303" lon="2.11625">
        <ele>60.7</ele>
        <time>2022-02-15T10:24:12Z</time>
      </trkpt>
      <trkpt lat="48.95308" lon="2.11627">
        <ele>59.9</ele>
        <time>2022-02-15T10:24:16Z</time>
      </trkpt>
      <trkpt lat="48.95313" lon="2.11628">
        <ele>59.7</ele>
        <time>2022-02-15T10:24:20Z</time>
      </trkpt>
      <trkpt lat="48.95318" lon="2.11629">
        <ele>60.1</ele>
        <time>2022-02-15T10:24:24Z</time>
      </trkpt>
      <trkpt lat="48.95322" lon="2.1163">
        <ele>60.9</ele>
        <time>2022-02-15T10:24:27Z</time>
      </trkpt>
      <trkpt lat="48.95328" lon="2.11631">
        <ele>62.3</ele>
        <time>2022-02-15T10:24:31Z</time>
      </trkpt>
      <trkpt lat="48.95333" lon="2.11632">
        <ele>63.6</ele>
        <time>2022-02-15T10:24:35Z</time>
      </trkpt>
      <trkpt lat="48.95338" lon="2.11633">
        <ele>64.1</ele>
        <time>2022-02-15T10:24:38Z</time>
      </trkpt>
      <trkpt lat="48.95342" lon="2.11635">
        <ele>64.4</ele>
        <time>2022-02-15T10:24:42Z</time>
      </trkpt>
      <trkpt lat="48.95348" lon="2.11637">
        <ele>65.4</ele>
        <time>2022-02-15T10:24:46Z</time>
      </trkpt>
      <trkpt lat="48.95353" lon="2.11638">
        <ele>65.6</ele>
        <time>2022-02-15T10:24:49Z</time>
      </trkpt>
      <trkpt lat="48.95359" lon="2.1164">
        <ele>64.2</ele>
        <time>2022-02-15T10:24:53Z</time>
      </trkpt>
      <trkpt lat="48.95364" lon="2.11642">
        <ele>62.8</ele>
        <time>2022-02-15T10:24:57Z</time>
      </trkpt>
      <trkpt lat="48.95369" lon="2.11642">
        <ele>62.7</ele>
        <time>2022-02-15T10:25:01Z</time>
      </trkpt>
      <trkpt lat="48.95373" lon="2.11643">
        <ele>62.3</ele>
        <time>2022-02-15T10:25:04Z</time>
      </trkpt>
      <trkpt lat="48.95378" lon="2.11643">
        <ele>61.5</ele>
        <time>2022-02-15T10:25:08Z</time>
      </trkpt>
      <trkpt lat="48.95382" lon="2.11645">
        <ele>60.9</ele>
        <time>2022-02-15T10:25:11Z</time>
      </trkpt>
      <trkpt lat="48.95387" lon="2.11646">
        <ele>60.8</ele>
        <time>2022-02-15T10:25:14Z</time>
      </trkpt>
      <trkpt lat="48.95392" lon="2.11648">
        <ele>61</ele>
        <time>2022-02-15T10:25:17Z</time>
      </trkpt>
      <trkpt lat="48.95398" lon="2.11649">
        <ele>61.2</ele>
        <time>2022-02-15T10:25:21Z</time>
      </trkpt>
      <trkpt lat="48.95403" lon="2.1165">
        <ele>61.3</ele>
        <time>2022-02-15T10:25:25Z</time>
      </trkpt>
      <trkpt lat="48.95409" lon="2.11653">
        <ele>60.6</ele>
        <time>2022-02-15T10:25:28Z</time>
      </trkpt>
      <trkpt lat="48.95414" lon="2.11655">
        <ele>58.4</ele>
        <time>2022-02-15T10:25:32Z</time>
      </trkpt>
      <trkpt lat="48.95418" lon="2.11656">
        <ele>58.2</ele>
        <time>2022-02-15T10:25:35Z</time>
      </trkpt>
      <trkpt lat="48.95423" lon="2.11657">
        <ele>60.7</ele>
        <time>2022-02-15T10:25:41Z</time>
      </trkpt>
      <trkpt lat="48.95428" lon="2.11659">
        <ele>63.8</ele>
        <time>2022-02-15T10:25:45Z</time>
      </trkpt>
      <trkpt lat="48.95433" lon="2.1166">
        <ele>64.9</ele>
        <time>2022-02-15T10:25:48Z</time>
      </trkpt>
      <trkpt lat="48.95438" lon="2.11661">
        <ele>65.1</ele>
        <time>2022-02-15T10:25:52Z</time>
      </trkpt>
      <trkpt lat="48.95444" lon="2.11664">
        <ele>64.4</ele>
        <time>2022-02-15T10:25:56Z</time>
      </trkpt>
      <trkpt lat="48.95449" lon="2.11666">
        <ele>62.3</ele>
        <time>2022-02-15T10:26:01Z</time>
      </trkpt>
      <trkpt lat="48.95453" lon="2.11668">
        <ele>60.5</ele>
        <time>2022-02-15T10:26:04Z</time>
      </trkpt>
      <trkpt lat="48.95459" lon="2.11669">
        <ele>59.4</ele>
        <time>2022-02-15T10:26:08Z</time>
      </trkpt>
      <trkpt lat="48.95463" lon="2.1167">
        <ele>59.1</ele>
        <time>2022-02-15T10:26:11Z</time>
      </trkpt>
      <trkpt lat="48.95468" lon="2.11672">
        <ele>59.4</ele>
        <time>2022-02-15T10:26:15Z</time>
      </trkpt>
      <trkpt lat="48.95473" lon="2.11673">
        <ele>59.6</ele>
        <time>2022-02-15T10:26:19Z</time>
      </trkpt>
      <trkpt lat="48.95478" lon="2.11675">
        <ele>59.3</ele>
        <time>2022-02-15T10:26:23Z</time>
      </trkpt>
      <trkpt lat="48.95483" lon="2.11677">
        <ele>59.5</ele>
        <time>2022-02-15T10:26:26Z</time>
      </trkpt>
      <trkpt lat="48.95488" lon="2.1168">
        <ele>59.5</ele>
        <time>2022-02-15T10:26:30Z</time>
      </trkpt>
      <trkpt lat="48.95493" lon="2.11682">
        <ele>60.4</ele>
        <time>2022-02-15T10:26:34Z</time>
      </trkpt>
      <trkpt lat="48.95498" lon="2.11681">
        <ele>60.8</ele>
        <time>2022-02-15T10:26:37Z</time>
      </trkpt>
      <trkpt lat="48.95503" lon="2.11681">
        <ele>60.9</ele>
        <time>2022-02-15T10:26:41Z</time>
      </trkpt>
      <trkpt lat="48.95508" lon="2.11682">
        <ele>60.8</ele>
        <time>2022-02-15T10:26:45Z</time>
      </trkpt>
      <trkpt lat="48.95513" lon="2.11684">
        <ele>61.3</ele>
        <time>2022-02-15T10:26:48Z</time>
      </trkpt>
      <trkpt lat="48.95518" lon="2.11685">
        <ele>61.5</ele>
        <time>2022-02-15T10:26:53Z</time>
      </trkpt>
      <trkpt lat="48.95524" lon="2.11687">
        <ele>60.9</ele>
        <time>2022-02-15T10:26:57Z</time>
      </trkpt>
      <trkpt lat="48.9553" lon="2.11688">
        <ele>59.2</ele>
        <time>2022-02-15T10:27:02Z</time>
      </trkpt>
      <trkpt lat="48.95535" lon="2.11687">
        <ele>59.8</ele>
        <time>2022-02-15T10:27:06Z</time>
      </trkpt>
      <trkpt lat="48.9554" lon="2.11689">
        <ele>60</ele>
        <time>2022-02-15T10:27:10Z</time>
      </trkpt>
      <trkpt lat="48.95544" lon="2.11686">
        <ele>53.7</ele>
        <time>2022-02-15T10:27:20Z</time>
      </trkpt>
      <trkpt lat="48.95548" lon="2.11688">
        <ele>52.3</ele>
        <time>2022-02-15T10:28:47Z</time>
      </trkpt>
      <trkpt lat="48.95548" lon="2.11681">
        <ele>47.3</ele>
        <time>2022-02-15T10:29:22Z</time>
      </trkpt>
      <trkpt lat="48.95545" lon="2.11675">
        <ele>49.6</ele>
        <time>2022-02-15T10:30:06Z</time>
      </trkpt>
      <trkpt lat="48.95546" lon="2.11682">
        <ele>49.6</ele>
        <time>2022-02-15T10:30:51Z</time>
      </trkpt>
      <trkpt lat="48.95551" lon="2.11683">
        <ele>47</ele>
        <time>2022-02-15T10:32:20Z</time>
      </trkpt>
      <trkpt lat="48.95556" lon="2.1168">
        <ele>47.2</ele>
        <time>2022-02-15T10:32:23Z</time>
      </trkpt>
      <trkpt lat="48.95561" lon="2.11676">
        <ele>48.4</ele>
        <time>2022-02-15T10:32:26Z</time>
      </trkpt>
      <trkpt lat="48.95565" lon="2.11673">
        <ele>51.7</ele>
        <time>2022-02-15T10:32:31Z</time>
      </trkpt>
      <trkpt lat="48.9557" lon="2.11672">
        <ele>55</ele>
        <time>2022-02-15T10:32:35Z</time>
      </trkpt>
      <trkpt lat="48.95576" lon="2.11673">
        <ele>56.4</ele>
        <time>2022-02-15T10:32:39Z</time>
      </trkpt>
      <trkpt lat="48.95581" lon="2.11673">
        <ele>57.8</ele>
        <time>2022-02-15T10:32:44Z</time>
      </trkpt>
      <trkpt lat="48.95585" lon="2.11671">
        <ele>58.9</ele>
        <time>2022-02-15T10:32:47Z</time>
      </trkpt>
      <trkpt lat="48.9559" lon="2.11668">
        <ele>59.6</ele>
        <time>2022-02-15T10:32:51Z</time>
      </trkpt>
      <trkpt lat="48.95595" lon="2.11665">
        <ele>59.5</ele>
        <time>2022-02-15T10:32:55Z</time>
      </trkpt>
      <trkpt lat="48.95599" lon="2.11662">
        <ele>59.7</ele>
        <time>2022-02-15T10:32:58Z</time>
      </trkpt>
      <trkpt lat="48.95605" lon="2.11659">
        <ele>59.4</ele>
        <time>2022-02-15T10:33:02Z</time>
      </trkpt>
      <trkpt lat="48.9561" lon="2.11657">
        <ele>59.5</ele>
        <time>2022-02-15T10:33:07Z</time>
      </trkpt>
      <trkpt lat="48.95615" lon="2.11654">
        <ele>59.1</ele>
        <time>2022-02-15T10:33:11Z</time>
      </trkpt>
      <trkpt lat="48.95619" lon="2.11652">
        <ele>58.8</ele>
        <time>2022-02-15T10:33:14Z</time>
      </trkpt>
      <trkpt lat="48.95624" lon="2.1165">
        <ele>58.5</ele>
        <time>2022-02-15T10:33:17Z</time>
      </trkpt>
      <trkpt lat="48.95629" lon="2.11648">
        <ele>57.9</ele>
        <time>2022-02-15T10:33:22Z</time>
      </trkpt>
      <trkpt lat="48.95634" lon="2.11646">
        <ele>57.2</ele>
        <time>2022-02-15T10:33:26Z</time>
      </trkpt>
      <trkpt lat="48.95639" lon="2.11643">
        <ele>56.4</ele>
        <time>2022-02-15T10:33:29Z</time>
      </trkpt>
      <trkpt lat="48.95644" lon="2.1164">
        <ele>55.9</ele>
        <time>2022-02-15T10:33:33Z</time>
      </trkpt>
      <trkpt lat="48.95649" lon="2.11638">
        <ele>55</ele>
        <time>2022-02-15T10:33:37Z</time>
      </trkpt>
      <trkpt lat="48.95654" lon="2.11636">
        <ele>54.2</ele>
        <time>2022-02-15T10:33:41Z</time>
      </trkpt>
      <trkpt lat="48.95658" lon="2.11631">
        <ele>53.6</ele>
        <time>2022-02-15T10:33:46Z</time>
      </trkpt>
      <trkpt lat="48.95663" lon="2.1163">
        <ele>53.6</ele>
        <time>2022-02-15T10:33:49Z</time>
      </trkpt>
      <trkpt lat="48.95667" lon="2.11629">
        <ele>53.6</ele>
        <time>2022-02-15T10:33:53Z</time>
      </trkpt>
      <trkpt lat="48.95672" lon="2.11628">
        <ele>53.7</ele>
        <time>2022-02-15T10:33:56Z</time>
      </trkpt>
      <trkpt lat="48.95678" lon="2.11625">
        <ele>53.4</ele>
        <time>2022-02-15T10:34:01Z</time>
      </trkpt>
      <trkpt lat="48.95683" lon="2.11622">
        <ele>53.4</ele>
        <time>2022-02-15T10:34:05Z</time>
      </trkpt>
      <trkpt lat="48.95688" lon="2.1162">
        <ele>53.6</ele>
        <time>2022-02-15T10:34:08Z</time>
      </trkpt>
      <trkpt lat="48.95693" lon="2.11617">
        <ele>53.2</ele>
        <time>2022-02-15T10:34:12Z</time>
      </trkpt>
      <trkpt lat="48.95698" lon="2.11615">
        <ele>52.9</ele>
        <time>2022-02-15T10:34:16Z</time>
      </trkpt>
      <trkpt lat="48.95702" lon="2.11612">
        <ele>54.2</ele>
        <time>2022-02-15T10:34:19Z</time>
      </trkpt>
      <trkpt lat="48.95707" lon="2.11609">
        <ele>55.7</ele>
        <time>2022-02-15T10:34:23Z</time>
      </trkpt>
      <trkpt lat="48.95712" lon="2.11606">
        <ele>56.5</ele>
        <time>2022-02-15T10:34:28Z</time>
      </trkpt>
      <trkpt lat="48.95717" lon="2.11604">
        <ele>55.5</ele>
        <time>2022-02-15T10:34:31Z</time>
      </trkpt>
      <trkpt lat="48.95722" lon="2.11602">
        <ele>54.3</ele>
        <time>2022-02-15T10:34:35Z</time>
      </trkpt>
      <trkpt lat="48.95727" lon="2.11601">
        <ele>53.6</ele>
        <time>2022-02-15T10:34:38Z</time>
      </trkpt>
      <trkpt lat="48.95732" lon="2.11599">
        <ele>54.6</ele>
        <time>2022-02-15T10:34:42Z</time>
      </trkpt>
      <trkpt lat="48.95736" lon="2.11597">
        <ele>56.4</ele>
        <time>2022-02-15T10:34:46Z</time>
      </trkpt>
      <trkpt lat="48.95742" lon="2.11593">
        <ele>57</ele>
        <time>2022-02-15T10:34:51Z</time>
      </trkpt>
      <trkpt lat="48.95746" lon="2.1159">
        <ele>57.3</ele>
        <time>2022-02-15T10:34:54Z</time>
      </trkpt>
      <trkpt lat="48.95751" lon="2.11588">
        <ele>57.6</ele>
        <time>2022-02-15T10:34:58Z</time>
      </trkpt>
      <trkpt lat="48.95756" lon="2.11588">
        <ele>57.9</ele>
        <time>2022-02-15T10:35:01Z</time>
      </trkpt>
      <trkpt lat="48.95761" lon="2.11585">
        <ele>57.2</ele>
        <time>2022-02-15T10:35:04Z</time>
      </trkpt>
      <trkpt lat="48.95767" lon="2.11583">
        <ele>56.1</ele>
        <time>2022-02-15T10:35:08Z</time>
      </trkpt>
      <trkpt lat="48.95772" lon="2.11581">
        <ele>54.7</ele>
        <time>2022-02-15T10:35:12Z</time>
      </trkpt>
      <trkpt lat="48.95778" lon="2.11579">
        <ele>54.4</ele>
        <time>2022-02-15T10:35:17Z</time>
      </trkpt>
      <trkpt lat="48.95784" lon="2.11578">
        <ele>53.8</ele>
        <time>2022-02-15T10:35:21Z</time>
      </trkpt>
      <trkpt lat="48.95788" lon="2.11575">
        <ele>52.5</ele>
        <time>2022-02-15T10:35:25Z</time>
      </trkpt>
      <trkpt lat="48.95793" lon="2.11573">
        <ele>51.1</ele>
        <time>2022-02-15T10:35:28Z</time>
      </trkpt>
      <trkpt lat="48.95799" lon="2.11571">
        <ele>51.1</ele>
        <time>2022-02-15T10:35:32Z</time>
      </trkpt>
      <trkpt lat="48.95805" lon="2.11568">
        <ele>51.8</ele>
        <time>2022-02-15T10:35:36Z</time>
      </trkpt>
      <trkpt lat="48.9581" lon="2.11566">
        <ele>52.4</ele>
        <time>2022-02-15T10:35:40Z</time>
      </trkpt>
      <trkpt lat="48.95815" lon="2.11564">
        <ele>52.3</ele>
        <time>2022-02-15T10:35:43Z</time>
      </trkpt>
      <trkpt lat="48.9582" lon="2.11565">
        <ele>50.8</ele>
        <time>2022-02-15T10:35:49Z</time>
      </trkpt>
      <trkpt lat="48.95826" lon="2.11566">
        <ele>49</ele>
        <time>2022-02-15T10:35:54Z</time>
      </trkpt>
      <trkpt lat="48.95831" lon="2.11566">
        <ele>48</ele>
        <time>2022-02-15T10:35:58Z</time>
      </trkpt>
      <trkpt lat="48.95837" lon="2.11565">
        <ele>47.7</ele>
        <time>2022-02-15T10:36:02Z</time>
      </trkpt>
      <trkpt lat="48.95842" lon="2.11563">
        <ele>47.2</ele>
        <time>2022-02-15T10:36:07Z</time>
      </trkpt>
      <trkpt lat="48.95848" lon="2.11563">
        <ele>46.9</ele>
        <time>2022-02-15T10:36:12Z</time>
      </trkpt>
      <trkpt lat="48.95853" lon="2.11564">
        <ele>47.1</ele>
        <time>2022-02-15T10:36:16Z</time>
      </trkpt>
      <trkpt lat="48.95859" lon="2.11565">
        <ele>47</ele>
        <time>2022-02-15T10:36:21Z</time>
      </trkpt>
      <trkpt lat="48.95864" lon="2.11566">
        <ele>47.3</ele>
        <time>2022-02-15T10:36:25Z</time>
      </trkpt>
      <trkpt lat="48.9587" lon="2.11566">
        <ele>47.6</ele>
        <time>2022-02-15T10:36:30Z</time>
      </trkpt>
      <trkpt lat="48.95875" lon="2.11569">
        <ele>48</ele>
        <time>2022-02-15T10:36:34Z</time>
      </trkpt>
      <trkpt lat="48.9588" lon="2.11572">
        <ele>48</ele>
        <time>2022-02-15T10:36:37Z</time>
      </trkpt>
      <trkpt lat="48.95885" lon="2.11574">
        <ele>47.4</ele>
        <time>2022-02-15T10:36:41Z</time>
      </trkpt>
      <trkpt lat="48.9589" lon="2.11576">
        <ele>46.5</ele>
        <time>2022-02-15T10:36:45Z</time>
      </trkpt>
      <trkpt lat="48.95894" lon="2.11577">
        <ele>46.7</ele>
        <time>2022-02-15T10:36:49Z</time>
      </trkpt>
      <trkpt lat="48.95899" lon="2.11578">
        <ele>47.9</ele>
        <time>2022-02-15T10:36:53Z</time>
      </trkpt>
      <trkpt lat="48.95904" lon="2.11579">
        <ele>48.2</ele>
        <time>2022-02-15T10:36:57Z</time>
      </trkpt>
      <trkpt lat="48.95909" lon="2.11581">
        <ele>48</ele>
        <time>2022-02-15T10:37:02Z</time>
      </trkpt>
      <trkpt lat="48.95915" lon="2.11583">
        <ele>48.4</ele>
        <time>2022-02-15T10:37:06Z</time>
      </trkpt>
      <trkpt lat="48.9592" lon="2.11586">
        <ele>49.4</ele>
        <time>2022-02-15T10:37:10Z</time>
      </trkpt>
      <trkpt lat="48.95925" lon="2.11589">
        <ele>49.7</ele>
        <time>2022-02-15T10:37:14Z</time>
      </trkpt>
      <trkpt lat="48.95929" lon="2.11592">
        <ele>49.3</ele>
        <time>2022-02-15T10:37:17Z</time>
      </trkpt>
      <trkpt lat="48.95934" lon="2.11594">
        <ele>49</ele>
        <time>2022-02-15T10:37:21Z</time>
      </trkpt>
      <trkpt lat="48.95939" lon="2.11596">
        <ele>49</ele>
        <time>2022-02-15T10:37:25Z</time>
      </trkpt>
      <trkpt lat="48.95944" lon="2.11598">
        <ele>49.3</ele>
        <time>2022-02-15T10:37:28Z</time>
      </trkpt>
      <trkpt lat="48.95949" lon="2.11599">
        <ele>49.8</ele>
        <time>2022-02-15T10:37:32Z</time>
      </trkpt>
      <trkpt lat="48.95954" lon="2.11601">
        <ele>50.8</ele>
        <time>2022-02-15T10:37:35Z</time>
      </trkpt>
      <trkpt lat="48.95959" lon="2.11603">
        <ele>51.3</ele>
        <time>2022-02-15T10:37:39Z</time>
      </trkpt>
      <trkpt lat="48.95964" lon="2.11605">
        <ele>50.6</ele>
        <time>2022-02-15T10:37:44Z</time>
      </trkpt>
      <trkpt lat="48.9597" lon="2.11608">
        <ele>49</ele>
        <time>2022-02-15T10:37:48Z</time>
      </trkpt>
      <trkpt lat="48.95976" lon="2.11609">
        <ele>47.8</ele>
        <time>2022-02-15T10:37:52Z</time>
      </trkpt>
      <trkpt lat="48.95982" lon="2.11609">
        <ele>47</ele>
        <time>2022-02-15T10:37:56Z</time>
      </trkpt>
      <trkpt lat="48.95987" lon="2.1161">
        <ele>47</ele>
        <time>2022-02-15T10:38:00Z</time>
      </trkpt>
      <trkpt lat="48.95993" lon="2.11612">
        <ele>47.2</ele>
        <time>2022-02-15T10:38:03Z</time>
      </trkpt>
      <trkpt lat="48.95998" lon="2.11613">
        <ele>48</ele>
        <time>2022-02-15T10:38:07Z</time>
      </trkpt>
      <trkpt lat="48.96003" lon="2.11614">
        <ele>48.9</ele>
        <time>2022-02-15T10:38:11Z</time>
      </trkpt>
      <trkpt lat="48.96008" lon="2.11614">
        <ele>50.1</ele>
        <time>2022-02-15T10:38:15Z</time>
      </trkpt>
      <trkpt lat="48.96012" lon="2.11616">
        <ele>51.2</ele>
        <time>2022-02-15T10:38:18Z</time>
      </trkpt>
      <trkpt lat="48.96017" lon="2.11617">
        <ele>51.9</ele>
        <time>2022-02-15T10:38:21Z</time>
      </trkpt>
      <trkpt lat="48.96022" lon="2.1162">
        <ele>52.3</ele>
        <time>2022-02-15T10:38:24Z</time>
      </trkpt>
      <trkpt lat="48.96027" lon="2.11623">
        <ele>52.2</ele>
        <time>2022-02-15T10:38:28Z</time>
      </trkpt>
      <trkpt lat="48.96031" lon="2.11625">
        <ele>51.8</ele>
        <time>2022-02-15T10:38:31Z</time>
      </trkpt>
      <trkpt lat="48.96036" lon="2.11627">
        <ele>51.1</ele>
        <time>2022-02-15T10:38:35Z</time>
      </trkpt>
      <trkpt lat="48.96042" lon="2.11627">
        <ele>49.5</ele>
        <time>2022-02-15T10:38:39Z</time>
      </trkpt>
      <trkpt lat="48.96047" lon="2.11628">
        <ele>47.8</ele>
        <time>2022-02-15T10:38:42Z</time>
      </trkpt>
      <trkpt lat="48.96052" lon="2.11631">
        <ele>47.8</ele>
        <time>2022-02-15T10:38:46Z</time>
      </trkpt>
      <trkpt lat="48.96057" lon="2.11634">
        <ele>48.7</ele>
        <time>2022-02-15T10:38:50Z</time>
      </trkpt>
      <trkpt lat="48.96062" lon="2.11637">
        <ele>50.1</ele>
        <time>2022-02-15T10:38:54Z</time>
      </trkpt>
      <trkpt lat="48.96068" lon="2.11638">
        <ele>50.6</ele>
        <time>2022-02-15T10:38:58Z</time>
      </trkpt>
      <trkpt lat="48.96072" lon="2.1164">
        <ele>50.2</ele>
        <time>2022-02-15T10:39:02Z</time>
      </trkpt>
      <trkpt lat="48.96077" lon="2.11644">
        <ele>49.4</ele>
        <time>2022-02-15T10:39:05Z</time>
      </trkpt>
      <trkpt lat="48.96081" lon="2.11647">
        <ele>49.2</ele>
        <time>2022-02-15T10:39:08Z</time>
      </trkpt>
      <trkpt lat="48.96087" lon="2.1165">
        <ele>49.9</ele>
        <time>2022-02-15T10:39:12Z</time>
      </trkpt>
      <trkpt lat="48.96092" lon="2.11652">
        <ele>50.9</ele>
        <time>2022-02-15T10:39:16Z</time>
      </trkpt>
      <trkpt lat="48.96096" lon="2.11653">
        <ele>52.7</ele>
        <time>2022-02-15T10:39:19Z</time>
      </trkpt>
      <trkpt lat="48.96101" lon="2.11654">
        <ele>53.4</ele>
        <time>2022-02-15T10:39:23Z</time>
      </trkpt>
      <trkpt lat="48.96107" lon="2.11654">
        <ele>53.2</ele>
        <time>2022-02-15T10:39:28Z</time>
      </trkpt>
      <trkpt lat="48.96111" lon="2.11656">
        <ele>53.2</ele>
        <time>2022-02-15T10:39:31Z</time>
      </trkpt>
      <trkpt lat="48.96117" lon="2.11657">
        <ele>54.3</ele>
        <time>2022-02-15T10:39:34Z</time>
      </trkpt>
      <trkpt lat="48.96122" lon="2.11659">
        <ele>54.8</ele>
        <time>2022-02-15T10:39:38Z</time>
      </trkpt>
      <trkpt lat="48.96127" lon="2.11661">
        <ele>53.5</ele>
        <time>2022-02-15T10:39:41Z</time>
      </trkpt>
      <trkpt lat="48.96131" lon="2.11663">
        <ele>51.6</ele>
        <time>2022-02-15T10:39:45Z</time>
      </trkpt>
      <trkpt lat="48.96136" lon="2.11666">
        <ele>49.8</ele>
        <time>2022-02-15T10:39:48Z</time>
      </trkpt>
      <trkpt lat="48.96141" lon="2.11668">
        <ele>48.9</ele>
        <time>2022-02-15T10:39:52Z</time>
      </trkpt>
      <trkpt lat="48.96146" lon="2.1167">
        <ele>48.8</ele>
        <time>2022-02-15T10:39:56Z</time>
      </trkpt>
      <trkpt lat="48.96151" lon="2.11671">
        <ele>48.8</ele>
        <time>2022-02-15T10:40:00Z</time>
      </trkpt>
      <trkpt lat="48.96156" lon="2.11673">
        <ele>48.3</ele>
        <time>2022-02-15T10:40:04Z</time>
      </trkpt>
      <trkpt lat="48.96161" lon="2.11674">
        <ele>48</ele>
        <time>2022-02-15T10:40:07Z</time>
      </trkpt>
      <trkpt lat="48.96167" lon="2.11676">
        <ele>48.6</ele>
        <time>2022-02-15T10:40:12Z</time>
      </trkpt>
      <trkpt lat="48.96171" lon="2.11679">
        <ele>49.7</ele>
        <time>2022-02-15T10:40:16Z</time>
      </trkpt>
      <trkpt lat="48.96177" lon="2.11681">
        <ele>50.5</ele>
        <time>2022-02-15T10:40:20Z</time>
      </trkpt>
      <trkpt lat="48.96182" lon="2.11684">
        <ele>50.6</ele>
        <time>2022-02-15T10:40:23Z</time>
      </trkpt>
      <trkpt lat="48.96187" lon="2.11685">
        <ele>50.3</ele>
        <time>2022-02-15T10:40:27Z</time>
      </trkpt>
      <trkpt lat="48.96193" lon="2.11685">
        <ele>49.7</ele>
        <time>2022-02-15T10:40:31Z</time>
      </trkpt>
      <trkpt lat="48.96198" lon="2.11687">
        <ele>49.5</ele>
        <time>2022-02-15T10:40:35Z</time>
      </trkpt>
      <trkpt lat="48.96204" lon="2.1169">
        <ele>49.6</ele>
        <time>2022-02-15T10:40:39Z</time>
      </trkpt>
      <trkpt lat="48.96209" lon="2.11692">
        <ele>51.1</ele>
        <time>2022-02-15T10:40:42Z</time>
      </trkpt>
      <trkpt lat="48.96214" lon="2.11695">
        <ele>53.3</ele>
        <time>2022-02-15T10:40:47Z</time>
      </trkpt>
      <trkpt lat="48.96218" lon="2.11697">
        <ele>54.2</ele>
        <time>2022-02-15T10:40:50Z</time>
      </trkpt>
      <trkpt lat="48.96223" lon="2.117">
        <ele>54.6</ele>
        <time>2022-02-15T10:40:53Z</time>
      </trkpt>
      <trkpt lat="48.96229" lon="2.11701">
        <ele>53.7</ele>
        <time>2022-02-15T10:40:58Z</time>
      </trkpt>
      <trkpt lat="48.96234" lon="2.11702">
        <ele>52.3</ele>
        <time>2022-02-15T10:41:02Z</time>
      </trkpt>
      <trkpt lat="48.96239" lon="2.11702">
        <ele>51.4</ele>
        <time>2022-02-15T10:41:05Z</time>
      </trkpt>
      <trkpt lat="48.96243" lon="2.11702">
        <ele>51.4</ele>
        <time>2022-02-15T10:41:09Z</time>
      </trkpt>
      <trkpt lat="48.96249" lon="2.11705">
        <ele>50.2</ele>
        <time>2022-02-15T10:41:13Z</time>
      </trkpt>
      <trkpt lat="48.96254" lon="2.11707">
        <ele>49.5</ele>
        <time>2022-02-15T10:41:17Z</time>
      </trkpt>
      <trkpt lat="48.96258" lon="2.11709">
        <ele>50</ele>
        <time>2022-02-15T10:41:20Z</time>
      </trkpt>
      <trkpt lat="48.96262" lon="2.11712">
        <ele>51.9</ele>
        <time>2022-02-15T10:41:23Z</time>
      </trkpt>
      <trkpt lat="48.96267" lon="2.11717">
        <ele>54</ele>
        <time>2022-02-15T10:41:28Z</time>
      </trkpt>
      <trkpt lat="48.96273" lon="2.11717">
        <ele>55</ele>
        <time>2022-02-15T10:41:32Z</time>
      </trkpt>
      <trkpt lat="48.96277" lon="2.11718">
        <ele>56.1</ele>
        <time>2022-02-15T10:41:38Z</time>
      </trkpt>
      <trkpt lat="48.96283" lon="2.11719">
        <ele>57</ele>
        <time>2022-02-15T10:41:49Z</time>
      </trkpt>
      <trkpt lat="48.96288" lon="2.11717">
        <ele>56.7</ele>
        <time>2022-02-15T10:41:53Z</time>
      </trkpt>
      <trkpt lat="48.96293" lon="2.11718">
        <ele>56.3</ele>
        <time>2022-02-15T10:41:57Z</time>
      </trkpt>
      <trkpt lat="48.96298" lon="2.1172">
        <ele>56.2</ele>
        <time>2022-02-15T10:42:00Z</time>
      </trkpt>
      <trkpt lat="48.96303" lon="2.11721">
        <ele>56</ele>
        <time>2022-02-15T10:42:04Z</time>
      </trkpt>
      <trkpt lat="48.96309" lon="2.11722">
        <ele>55.5</ele>
        <time>2022-02-15T10:42:08Z</time>
      </trkpt>
      <trkpt lat="48.96314" lon="2.11723">
        <ele>55</ele>
        <time>2022-02-15T10:42:12Z</time>
      </trkpt>
      <trkpt lat="48.96319" lon="2.11725">
        <ele>54.6</ele>
        <time>2022-02-15T10:42:16Z</time>
      </trkpt>
      <trkpt lat="48.96323" lon="2.11727">
        <ele>54.4</ele>
        <time>2022-02-15T10:42:19Z</time>
      </trkpt>
      <trkpt lat="48.96329" lon="2.11728">
        <ele>54.6</ele>
        <time>2022-02-15T10:42:24Z</time>
      </trkpt>
      <trkpt lat="48.96333" lon="2.11732">
        <ele>54.9</ele>
        <time>2022-02-15T10:42:27Z</time>
      </trkpt>
      <trkpt lat="48.96338" lon="2.11736">
        <ele>55.2</ele>
        <time>2022-02-15T10:42:31Z</time>
      </trkpt>
      <trkpt lat="48.96343" lon="2.11739">
        <ele>55.4</ele>
        <time>2022-02-15T10:42:35Z</time>
      </trkpt>
      <trkpt lat="48.96348" lon="2.11741">
        <ele>54.9</ele>
        <time>2022-02-15T10:42:39Z</time>
      </trkpt>
      <trkpt lat="48.96352" lon="2.11743">
        <ele>53.6</ele>
        <time>2022-02-15T10:42:43Z</time>
      </trkpt>
      <trkpt lat="48.96358" lon="2.11745">
        <ele>52.9</ele>
        <time>2022-02-15T10:42:47Z</time>
      </trkpt>
      <trkpt lat="48.96363" lon="2.11743">
        <ele>53.1</ele>
        <time>2022-02-15T10:42:52Z</time>
      </trkpt>
      <trkpt lat="48.96367" lon="2.11739">
        <ele>54.3</ele>
        <time>2022-02-15T10:42:56Z</time>
      </trkpt>
      <trkpt lat="48.96371" lon="2.11732">
        <ele>56.7</ele>
        <time>2022-02-15T10:43:04Z</time>
      </trkpt>
      <trkpt lat="48.9637" lon="2.11723">
        <ele>56.6</ele>
        <time>2022-02-15T10:43:17Z</time>
      </trkpt>
      <trkpt lat="48.96369" lon="2.11714">
        <ele>55.8</ele>
        <time>2022-02-15T10:43:20Z</time>
      </trkpt>
      <trkpt lat="48.96368" lon="2.11707">
        <ele>53.8</ele>
        <time>2022-02-15T10:43:24Z</time>
      </trkpt>
      <trkpt lat="48.96367" lon="2.117">
        <ele>51.8</ele>
        <time>2022-02-15T10:43:27Z</time>
      </trkpt>
      <trkpt lat="48.96365" lon="2.11692">
        <ele>50.1</ele>
        <time>2022-02-15T10:43:32Z</time>
      </trkpt>
      <trkpt lat="48.96364" lon="2.11684">
        <ele>49.5</ele>
        <time>2022-02-15T10:43:36Z</time>
      </trkpt>
      <trkpt lat="48.96364" lon="2.11675">
        <ele>48.5</ele>
        <time>2022-02-15T10:43:40Z</time>
      </trkpt>
      <trkpt lat="48.96365" lon="2.11668">
        <ele>48.1</ele>
        <time>2022-02-15T10:43:45Z</time>
      </trkpt>
      <trkpt lat="48.96368" lon="2.11661">
        <ele>48.6</ele>
        <time>2022-02-15T10:43:49Z</time>
      </trkpt>
      <trkpt lat="48.96371" lon="2.11654">
        <ele>49.3</ele>
        <time>2022-02-15T10:43:53Z</time>
      </trkpt>
      <trkpt lat="48.96372" lon="2.11647">
        <ele>48.3</ele>
        <time>2022-02-15T10:43:57Z</time>
      </trkpt>
      <trkpt lat="48.96375" lon="2.11642">
        <ele>47.6</ele>
        <time>2022-02-15T10:44:02Z</time>
      </trkpt>
      <trkpt lat="48.96381" lon="2.11641">
        <ele>48.1</ele>
        <time>2022-02-15T10:44:06Z</time>
      </trkpt>
      <trkpt lat="48.96385" lon="2.11637">
        <ele>49</ele>
        <time>2022-02-15T10:44:11Z</time>
      </trkpt>
      <trkpt lat="48.96389" lon="2.11632">
        <ele>50.3</ele>
        <time>2022-02-15T10:44:16Z</time>
      </trkpt>
      <trkpt lat="48.96394" lon="2.1163">
        <ele>49.3</ele>
        <time>2022-02-15T10:47:39Z</time>
      </trkpt>
      <trkpt lat="48.96399" lon="2.11628">
        <ele>48</ele>
        <time>2022-02-15T10:47:44Z</time>
      </trkpt>
      <trkpt lat="48.96404" lon="2.11627">
        <ele>46.9</ele>
        <time>2022-02-15T10:47:48Z</time>
      </trkpt>
      <trkpt lat="48.96409" lon="2.11625">
        <ele>46.3</ele>
        <time>2022-02-15T10:47:52Z</time>
      </trkpt>
      <trkpt lat="48.96414" lon="2.11625">
        <ele>45.4</ele>
        <time>2022-02-15T10:47:57Z</time>
      </trkpt>
      <trkpt lat="48.96418" lon="2.11625">
        <ele>44.9</ele>
        <time>2022-02-15T10:48:01Z</time>
      </trkpt>
      <trkpt lat="48.96424" lon="2.11625">
        <ele>44.8</ele>
        <time>2022-02-15T10:48:05Z</time>
      </trkpt>
      <trkpt lat="48.96428" lon="2.11626">
        <ele>45.2</ele>
        <time>2022-02-15T10:48:09Z</time>
      </trkpt>
      <trkpt lat="48.96433" lon="2.11625">
        <ele>45.7</ele>
        <time>2022-02-15T10:48:12Z</time>
      </trkpt>
      <trkpt lat="48.96438" lon="2.11624">
        <ele>46.6</ele>
        <time>2022-02-15T10:48:17Z</time>
      </trkpt>
      <trkpt lat="48.96444" lon="2.11623">
        <ele>46.6</ele>
        <time>2022-02-15T10:48:21Z</time>
      </trkpt>
      <trkpt lat="48.96449" lon="2.11619">
        <ele>47</ele>
        <time>2022-02-15T10:48:26Z</time>
      </trkpt>
      <trkpt lat="48.96452" lon="2.11614">
        <ele>48.3</ele>
        <time>2022-02-15T10:48:30Z</time>
      </trkpt>
      <trkpt lat="48.96456" lon="2.11608">
        <ele>50.8</ele>
        <time>2022-02-15T10:48:34Z</time>
      </trkpt>
      <trkpt lat="48.96458" lon="2.11601">
        <ele>52.2</ele>
        <time>2022-02-15T10:48:37Z</time>
      </trkpt>
      <trkpt lat="48.9646" lon="2.11593">
        <ele>53.6</ele>
        <time>2022-02-15T10:48:41Z</time>
      </trkpt>
      <trkpt lat="48.96464" lon="2.11586">
        <ele>54.2</ele>
        <time>2022-02-15T10:48:45Z</time>
      </trkpt>
      <trkpt lat="48.96466" lon="2.11579">
        <ele>53.8</ele>
        <time>2022-02-15T10:48:49Z</time>
      </trkpt>
      <trkpt lat="48.96467" lon="2.11571">
        <ele>52.7</ele>
        <time>2022-02-15T10:48:53Z</time>
      </trkpt>
      <trkpt lat="48.96469" lon="2.11564">
        <ele>50.7</ele>
        <time>2022-02-15T10:48:56Z</time>
      </trkpt>
      <trkpt lat="48.96471" lon="2.11555">
        <ele>49.4</ele>
        <time>2022-02-15T10:49:00Z</time>
      </trkpt>
      <trkpt lat="48.96472" lon="2.11547">
        <ele>49.6</ele>
        <time>2022-02-15T10:49:04Z</time>
      </trkpt>
      <trkpt lat="48.96475" lon="2.1154">
        <ele>50.4</ele>
        <time>2022-02-15T10:49:07Z</time>
      </trkpt>
      <trkpt lat="48.96477" lon="2.11533">
        <ele>51.5</ele>
        <time>2022-02-15T10:49:11Z</time>
      </trkpt>
      <trkpt lat="48.96478" lon="2.11525">
        <ele>52.4</ele>
        <time>2022-02-15T10:49:14Z</time>
      </trkpt>
      <trkpt lat="48.96479" lon="2.11517">
        <ele>53.9</ele>
        <time>2022-02-15T10:49:18Z</time>
      </trkpt>
      <trkpt lat="48.96481" lon="2.11508">
        <ele>54.7</ele>
        <time>2022-02-15T10:49:22Z</time>
      </trkpt>
      <trkpt lat="48.96483" lon="2.11501">
        <ele>55.1</ele>
        <time>2022-02-15T10:49:25Z</time>
      </trkpt>
      <trkpt lat="48.96484" lon="2.11494">
        <ele>53.8</ele>
        <time>2022-02-15T10:49:29Z</time>
      </trkpt>
      <trkpt lat="48.96485" lon="2.11486">
        <ele>51.4</ele>
        <time>2022-02-15T10:49:32Z</time>
      </trkpt>
      <trkpt lat="48.96486" lon="2.11478">
        <ele>49.8</ele>
        <time>2022-02-15T10:49:36Z</time>
      </trkpt>
      <trkpt lat="48.96486" lon="2.1147">
        <ele>48.3</ele>
        <time>2022-02-15T10:49:40Z</time>
      </trkpt>
      <trkpt lat="48.96488" lon="2.11463">
        <ele>47</ele>
        <time>2022-02-15T10:49:44Z</time>
      </trkpt>
      <trkpt lat="48.96489" lon="2.11456">
        <ele>45.9</ele>
        <time>2022-02-15T10:49:47Z</time>
      </trkpt>
      <trkpt lat="48.9649" lon="2.11448">
        <ele>45.4</ele>
        <time>2022-02-15T10:49:51Z</time>
      </trkpt>
      <trkpt lat="48.96491" lon="2.1144">
        <ele>45.6</ele>
        <time>2022-02-15T10:49:54Z</time>
      </trkpt>
      <trkpt lat="48.96492" lon="2.11433">
        <ele>46.9</ele>
        <time>2022-02-15T10:49:58Z</time>
      </trkpt>
      <trkpt lat="48.96494" lon="2.11425">
        <ele>46.7</ele>
        <time>2022-02-15T10:50:02Z</time>
      </trkpt>
      <trkpt lat="48.96496" lon="2.11418">
        <ele>45.4</ele>
        <time>2022-02-15T10:50:06Z</time>
      </trkpt>
      <trkpt lat="48.96498" lon="2.1141">
        <ele>44.9</ele>
        <time>2022-02-15T10:50:10Z</time>
      </trkpt>
      <trkpt lat="48.965" lon="2.11402">
        <ele>45.3</ele>
        <time>2022-02-15T10:50:13Z</time>
      </trkpt>
      <trkpt lat="48.96502" lon="2.11395">
        <ele>45.6</ele>
        <time>2022-02-15T10:50:17Z</time>
      </trkpt>
      <trkpt lat="48.96504" lon="2.11387">
        <ele>46</ele>
        <time>2022-02-15T10:50:22Z</time>
      </trkpt>
      <trkpt lat="48.96505" lon="2.1138">
        <ele>46.8</ele>
        <time>2022-02-15T10:50:25Z</time>
      </trkpt>
      <trkpt lat="48.96507" lon="2.11372">
        <ele>47.1</ele>
        <time>2022-02-15T10:50:28Z</time>
      </trkpt>
      <trkpt lat="48.96507" lon="2.11365">
        <ele>47.6</ele>
        <time>2022-02-15T10:50:32Z</time>
      </trkpt>
      <trkpt lat="48.96508" lon="2.11357">
        <ele>47.3</ele>
        <time>2022-02-15T10:50:36Z</time>
      </trkpt>
      <trkpt lat="48.9651" lon="2.11348">
        <ele>47.7</ele>
        <time>2022-02-15T10:50:41Z</time>
      </trkpt>
      <trkpt lat="48.96511" lon="2.1134">
        <ele>47.9</ele>
        <time>2022-02-15T10:50:45Z</time>
      </trkpt>
      <trkpt lat="48.96513" lon="2.11332">
        <ele>47.6</ele>
        <time>2022-02-15T10:50:48Z</time>
      </trkpt>
      <trkpt lat="48.96516" lon="2.11324">
        <ele>46.3</ele>
        <time>2022-02-15T10:50:52Z</time>
      </trkpt>
      <trkpt lat="48.96517" lon="2.11317">
        <ele>46.2</ele>
        <time>2022-02-15T10:50:56Z</time>
      </trkpt>
      <trkpt lat="48.96519" lon="2.1131">
        <ele>46</ele>
        <time>2022-02-15T10:51:00Z</time>
      </trkpt>
      <trkpt lat="48.96522" lon="2.11302">
        <ele>45.3</ele>
        <time>2022-02-15T10:51:03Z</time>
      </trkpt>
      <trkpt lat="48.96525" lon="2.11294">
        <ele>45.3</ele>
        <time>2022-02-15T10:51:08Z</time>
      </trkpt>
      <trkpt lat="48.96527" lon="2.11286">
        <ele>45.5</ele>
        <time>2022-02-15T10:51:12Z</time>
      </trkpt>
      <trkpt lat="48.96529" lon="2.11279">
        <ele>45.8</ele>
        <time>2022-02-15T10:51:15Z</time>
      </trkpt>
      <trkpt lat="48.9653" lon="2.11272">
        <ele>46.4</ele>
        <time>2022-02-15T10:51:18Z</time>
      </trkpt>
      <trkpt lat="48.96532" lon="2.11263">
        <ele>47.6</ele>
        <time>2022-02-15T10:51:22Z</time>
      </trkpt>
      <trkpt lat="48.96533" lon="2.11256">
        <ele>47.7</ele>
        <time>2022-02-15T10:51:25Z</time>
      </trkpt>
      <trkpt lat="48.96534" lon="2.11249">
        <ele>47.9</ele>
        <time>2022-02-15T10:51:29Z</time>
      </trkpt>
      <trkpt lat="48.96536" lon="2.11242">
        <ele>47.6</ele>
        <time>2022-02-15T10:51:33Z</time>
      </trkpt>
      <trkpt lat="48.96537" lon="2.11235">
        <ele>46.9</ele>
        <time>2022-02-15T10:51:35Z</time>
      </trkpt>
      <trkpt lat="48.96539" lon="2.11228">
        <ele>45.7</ele>
        <time>2022-02-15T10:51:38Z</time>
      </trkpt>
      <trkpt lat="48.96541" lon="2.11219">
        <ele>44.1</ele>
        <time>2022-02-15T10:51:42Z</time>
      </trkpt>
      <trkpt lat="48.96542" lon="2.11212">
        <ele>43.5</ele>
        <time>2022-02-15T10:51:46Z</time>
      </trkpt>
      <trkpt lat="48.96544" lon="2.11204">
        <ele>42.7</ele>
        <time>2022-02-15T10:51:50Z</time>
      </trkpt>
      <trkpt lat="48.96546" lon="2.11196">
        <ele>42.1</ele>
        <time>2022-02-15T10:51:53Z</time>
      </trkpt>
      <trkpt lat="48.96548" lon="2.11188">
        <ele>42.2</ele>
        <time>2022-02-15T10:51:57Z</time>
      </trkpt>
      <trkpt lat="48.9655" lon="2.1118">
        <ele>40.8</ele>
        <time>2022-02-15T10:52:01Z</time>
      </trkpt>
      <trkpt lat="48.96552" lon="2.11173">
        <ele>39.2</ele>
        <time>2022-02-15T10:52:06Z</time>
      </trkpt>
      <trkpt lat="48.96551" lon="2.11166">
        <ele>39.9</ele>
        <time>2022-02-15T10:52:10Z</time>
      </trkpt>
      <trkpt lat="48.96553" lon="2.11158">
        <ele>40.1</ele>
        <time>2022-02-15T10:52:14Z</time>
      </trkpt>
      <trkpt lat="48.96554" lon="2.11151">
        <ele>40.3</ele>
        <time>2022-02-15T10:52:18Z</time>
      </trkpt>
      <trkpt lat="48.96555" lon="2.11145">
        <ele>40</ele>
        <time>2022-02-15T10:52:21Z</time>
      </trkpt>
      <trkpt lat="48.96556" lon="2.11137">
        <ele>41</ele>
        <time>2022-02-15T10:52:24Z</time>
      </trkpt>
      <trkpt lat="48.96558" lon="2.1113">
        <ele>41.9</ele>
        <time>2022-02-15T10:52:29Z</time>
      </trkpt>
      <trkpt lat="48.96561" lon="2.11121">
        <ele>42.5</ele>
        <time>2022-02-15T10:52:33Z</time>
      </trkpt>
      <trkpt lat="48.96563" lon="2.11113">
        <ele>43.3</ele>
        <time>2022-02-15T10:52:37Z</time>
      </trkpt>
      <trkpt lat="48.96564" lon="2.11106">
        <ele>44.4</ele>
        <time>2022-02-15T10:52:40Z</time>
      </trkpt>
      <trkpt lat="48.96564" lon="2.11098">
        <ele>44.5</ele>
        <time>2022-02-15T10:52:44Z</time>
      </trkpt>
      <trkpt lat="48.96565" lon="2.11089">
        <ele>44.5</ele>
        <time>2022-02-15T10:52:49Z</time>
      </trkpt>
      <trkpt lat="48.96567" lon="2.11081">
        <ele>44.8</ele>
        <time>2022-02-15T10:52:52Z</time>
      </trkpt>
      <trkpt lat="48.96569" lon="2.11075">
        <ele>44.9</ele>
        <time>2022-02-15T10:52:56Z</time>
      </trkpt>
      <trkpt lat="48.96567" lon="2.11067">
        <ele>44.8</ele>
        <time>2022-02-15T10:52:59Z</time>
      </trkpt>
      <trkpt lat="48.96563" lon="2.11063">
        <ele>44.2</ele>
        <time>2022-02-15T10:53:02Z</time>
      </trkpt>
      <trkpt lat="48.96558" lon="2.11061">
        <ele>43.9</ele>
        <time>2022-02-15T10:53:06Z</time>
      </trkpt>
      <trkpt lat="48.96553" lon="2.11062">
        <ele>44.1</ele>
        <time>2022-02-15T10:53:11Z</time>
      </trkpt>
      <trkpt lat="48.96548" lon="2.11059">
        <ele>45.8</ele>
        <time>2022-02-15T10:53:16Z</time>
      </trkpt>
      <trkpt lat="48.96543" lon="2.11055">
        <ele>46.1</ele>
        <time>2022-02-15T10:53:20Z</time>
      </trkpt>
      <trkpt lat="48.96539" lon="2.11052">
        <ele>45.5</ele>
        <time>2022-02-15T10:53:24Z</time>
      </trkpt>
      <trkpt lat="48.96535" lon="2.11049">
        <ele>44.2</ele>
        <time>2022-02-15T10:53:28Z</time>
      </trkpt>
      <trkpt lat="48.9653" lon="2.11046">
        <ele>43.3</ele>
        <time>2022-02-15T10:53:32Z</time>
      </trkpt>
      <trkpt lat="48.96525" lon="2.11042">
        <ele>43.2</ele>
        <time>2022-02-15T10:53:36Z</time>
      </trkpt>
      <trkpt lat="48.96521" lon="2.11039">
        <ele>43.6</ele>
        <time>2022-02-15T10:53:40Z</time>
      </trkpt>
      <trkpt lat="48.96516" lon="2.11036">
        <ele>43</ele>
        <time>2022-02-15T10:53:44Z</time>
      </trkpt>
      <trkpt lat="48.96512" lon="2.11033">
        <ele>42</ele>
        <time>2022-02-15T10:53:48Z</time>
      </trkpt>
      <trkpt lat="48.96507" lon="2.1103">
        <ele>40.5</ele>
        <time>2022-02-15T10:53:52Z</time>
      </trkpt>
      <trkpt lat="48.96503" lon="2.11026">
        <ele>39</ele>
        <time>2022-02-15T10:53:56Z</time>
      </trkpt>
      <trkpt lat="48.96497" lon="2.11022">
        <ele>38.5</ele>
        <time>2022-02-15T10:54:00Z</time>
      </trkpt>
      <trkpt lat="48.96493" lon="2.1102">
        <ele>39.2</ele>
        <time>2022-02-15T10:54:04Z</time>
      </trkpt>
      <trkpt lat="48.96487" lon="2.11017">
        <ele>40.2</ele>
        <time>2022-02-15T10:54:09Z</time>
      </trkpt>
      <trkpt lat="48.96483" lon="2.11014">
        <ele>40.9</ele>
        <time>2022-02-15T10:54:12Z</time>
      </trkpt>
      <trkpt lat="48.96477" lon="2.1101">
        <ele>41.5</ele>
        <time>2022-02-15T10:54:17Z</time>
      </trkpt>
      <trkpt lat="48.96471" lon="2.11007">
        <ele>41.2</ele>
        <time>2022-02-15T10:54:22Z</time>
      </trkpt>
      <trkpt lat="48.96466" lon="2.11005">
        <ele>40.6</ele>
        <time>2022-02-15T10:54:26Z</time>
      </trkpt>
      <trkpt lat="48.96461" lon="2.11003">
        <ele>39.8</ele>
        <time>2022-02-15T10:54:30Z</time>
      </trkpt>
      <trkpt lat="48.96457" lon="2.11">
        <ele>39.8</ele>
        <time>2022-02-15T10:54:33Z</time>
      </trkpt>
      <trkpt lat="48.96453" lon="2.10998">
        <ele>39.7</ele>
        <time>2022-02-15T10:54:36Z</time>
      </trkpt>
      <trkpt lat="48.96447" lon="2.10995">
        <ele>39.8</ele>
        <time>2022-02-15T10:54:41Z</time>
      </trkpt>
      <trkpt lat="48.96443" lon="2.10991">
        <ele>40.1</ele>
        <time>2022-02-15T10:54:44Z</time>
      </trkpt>
      <trkpt lat="48.96438" lon="2.10986">
        <ele>41.4</ele>
        <time>2022-02-15T10:54:49Z</time>
      </trkpt>
      <trkpt lat="48.96434" lon="2.10983">
        <ele>41.5</ele>
        <time>2022-02-15T10:54:53Z</time>
      </trkpt>
      <trkpt lat="48.96429" lon="2.10981">
        <ele>41.3</ele>
        <time>2022-02-15T10:54:57Z</time>
      </trkpt>
      <trkpt lat="48.96425" lon="2.10976">
        <ele>41.6</ele>
        <time>2022-02-15T10:55:01Z</time>
      </trkpt>
      <trkpt lat="48.9642" lon="2.10972">
        <ele>42.4</ele>
        <time>2022-02-15T10:55:04Z</time>
      </trkpt>
      <trkpt lat="48.96415" lon="2.10969">
        <ele>42.5</ele>
        <time>2022-02-15T10:55:08Z</time>
      </trkpt>
      <trkpt lat="48.9641" lon="2.10966">
        <ele>42.6</ele>
        <time>2022-02-15T10:55:12Z</time>
      </trkpt>
      <trkpt lat="48.96405" lon="2.10964">
        <ele>42.7</ele>
        <time>2022-02-15T10:55:16Z</time>
      </trkpt>
      <trkpt lat="48.96401" lon="2.10962">
        <ele>42.5</ele>
        <time>2022-02-15T10:55:19Z</time>
      </trkpt>
      <trkpt lat="48.96396" lon="2.10958">
        <ele>42.5</ele>
        <time>2022-02-15T10:55:24Z</time>
      </trkpt>
      <trkpt lat="48.96392" lon="2.10954">
        <ele>42.7</ele>
        <time>2022-02-15T10:55:27Z</time>
      </trkpt>
      <trkpt lat="48.96386" lon="2.10951">
        <ele>43.8</ele>
        <time>2022-02-15T10:55:32Z</time>
      </trkpt>
      <trkpt lat="48.96381" lon="2.10947">
        <ele>44</ele>
        <time>2022-02-15T10:55:36Z</time>
      </trkpt>
      <trkpt lat="48.96376" lon="2.10943">
        <ele>45.3</ele>
        <time>2022-02-15T10:55:40Z</time>
      </trkpt>
      <trkpt lat="48.96371" lon="2.10941">
        <ele>46.8</ele>
        <time>2022-02-15T10:55:43Z</time>
      </trkpt>
      <trkpt lat="48.96367" lon="2.10939">
        <ele>46.8</ele>
        <time>2022-02-15T10:55:47Z</time>
      </trkpt>
      <trkpt lat="48.96362" lon="2.10936">
        <ele>46.9</ele>
        <time>2022-02-15T10:55:51Z</time>
      </trkpt>
      <trkpt lat="48.96358" lon="2.10931">
        <ele>48.5</ele>
        <time>2022-02-15T10:55:55Z</time>
      </trkpt>
      <trkpt lat="48.96353" lon="2.10928">
        <ele>50.8</ele>
        <time>2022-02-15T10:55:59Z</time>
      </trkpt>
      <trkpt lat="48.96348" lon="2.10925">
        <ele>51.2</ele>
        <time>2022-02-15T10:56:03Z</time>
      </trkpt>
      <trkpt lat="48.96346" lon="2.10931">
        <ele>50.4</ele>
        <time>2022-02-15T10:56:06Z</time>
      </trkpt>
      <trkpt lat="48.96341" lon="2.10926">
        <ele>49.7</ele>
        <time>2022-02-15T10:56:11Z</time>
      </trkpt>
      <trkpt lat="48.96342" lon="2.10917">
        <ele>50.1</ele>
        <time>2022-02-15T10:56:15Z</time>
      </trkpt>
      <trkpt lat="48.96346" lon="2.10912">
        <ele>50.4</ele>
        <time>2022-02-15T10:56:21Z</time>
      </trkpt>
      <trkpt lat="48.96351" lon="2.10909">
        <ele>49.6</ele>
        <time>2022-02-15T10:56:24Z</time>
      </trkpt>
      <trkpt lat="48.96354" lon="2.10904">
        <ele>48.2</ele>
        <time>2022-02-15T10:56:27Z</time>
      </trkpt>
      <trkpt lat="48.96356" lon="2.10898">
        <ele>47</ele>
        <time>2022-02-15T10:56:31Z</time>
      </trkpt>
      <trkpt lat="48.96358" lon="2.1089">
        <ele>45.9</ele>
        <time>2022-02-15T10:56:35Z</time>
      </trkpt>
      <trkpt lat="48.9636" lon="2.10883">
        <ele>46</ele>
        <time>2022-02-15T10:56:39Z</time>
      </trkpt>
      <trkpt lat="48.96362" lon="2.10875">
        <ele>46.7</ele>
        <time>2022-02-15T10:56:43Z</time>
      </trkpt>
      <trkpt lat="48.96364" lon="2.10869">
        <ele>48.2</ele>
        <time>2022-02-15T10:56:47Z</time>
      </trkpt>
      <trkpt lat="48.96365" lon="2.10862">
        <ele>50</ele>
        <time>2022-02-15T10:56:52Z</time>
      </trkpt>
      <trkpt lat="48.96367" lon="2.10855">
        <ele>50.6</ele>
        <time>2022-02-15T10:56:56Z</time>
      </trkpt>
      <trkpt lat="48.96369" lon="2.10847">
        <ele>50.2</ele>
        <time>2022-02-15T10:57:01Z</time>
      </trkpt>
      <trkpt lat="48.9637" lon="2.10839">
        <ele>48.9</ele>
        <time>2022-02-15T10:57:04Z</time>
      </trkpt>
      <trkpt lat="48.96371" lon="2.10831">
        <ele>46.8</ele>
        <time>2022-02-15T10:57:09Z</time>
      </trkpt>
      <trkpt lat="48.96373" lon="2.10823">
        <ele>45</ele>
        <time>2022-02-15T10:57:12Z</time>
      </trkpt>
      <trkpt lat="48.96375" lon="2.10817">
        <ele>43.3</ele>
        <time>2022-02-15T10:57:16Z</time>
      </trkpt>
      <trkpt lat="48.96377" lon="2.10809">
        <ele>41.2</ele>
        <time>2022-02-15T10:57:20Z</time>
      </trkpt>
      <trkpt lat="48.96379" lon="2.10801">
        <ele>40.6</ele>
        <time>2022-02-15T10:57:23Z</time>
      </trkpt>
      <trkpt lat="48.96381" lon="2.10795">
        <ele>40.5</ele>
        <time>2022-02-15T10:57:26Z</time>
      </trkpt>
      <trkpt lat="48.96384" lon="2.10787">
        <ele>40.5</ele>
        <time>2022-02-15T10:57:30Z</time>
      </trkpt>
      <trkpt lat="48.96387" lon="2.1078">
        <ele>40.4</ele>
        <time>2022-02-15T10:57:34Z</time>
      </trkpt>
      <trkpt lat="48.9639" lon="2.10774">
        <ele>40.8</ele>
        <time>2022-02-15T10:57:38Z</time>
      </trkpt>
      <trkpt lat="48.96392" lon="2.10767">
        <ele>41.5</ele>
        <time>2022-02-15T10:57:43Z</time>
      </trkpt>
      <trkpt lat="48.96395" lon="2.10759">
        <ele>42.2</ele>
        <time>2022-02-15T10:57:47Z</time>
      </trkpt>
      <trkpt lat="48.96397" lon="2.10751">
        <ele>42.6</ele>
        <time>2022-02-15T10:57:52Z</time>
      </trkpt>
      <trkpt lat="48.96398" lon="2.10744">
        <ele>42.9</ele>
        <time>2022-02-15T10:57:56Z</time>
      </trkpt>
      <trkpt lat="48.964" lon="2.10737">
        <ele>42.6</ele>
        <time>2022-02-15T10:57:59Z</time>
      </trkpt>
      <trkpt lat="48.96402" lon="2.1073">
        <ele>40.7</ele>
        <time>2022-02-15T10:58:03Z</time>
      </trkpt>
      <trkpt lat="48.96404" lon="2.10722">
        <ele>38</ele>
        <time>2022-02-15T10:58:10Z</time>
      </trkpt>
      <trkpt lat="48.96407" lon="2.10714">
        <ele>36.7</ele>
        <time>2022-02-15T10:58:15Z</time>
      </trkpt>
      <trkpt lat="48.96408" lon="2.10707">
        <ele>36.2</ele>
        <time>2022-02-15T10:58:19Z</time>
      </trkpt>
      <trkpt lat="48.9641" lon="2.107">
        <ele>36.3</ele>
        <time>2022-02-15T10:58:22Z</time>
      </trkpt>
      <trkpt lat="48.96414" lon="2.10693">
        <ele>36.6</ele>
        <time>2022-02-15T10:58:25Z</time>
      </trkpt>
      <trkpt lat="48.96416" lon="2.10685">
        <ele>37.3</ele>
        <time>2022-02-15T10:58:29Z</time>
      </trkpt>
      <trkpt lat="48.96417" lon="2.10677">
        <ele>38.5</ele>
        <time>2022-02-15T10:58:33Z</time>
      </trkpt>
      <trkpt lat="48.96417" lon="2.10668">
        <ele>39.6</ele>
        <time>2022-02-15T10:58:37Z</time>
      </trkpt>
      <trkpt lat="48.96417" lon="2.1066">
        <ele>39.8</ele>
        <time>2022-02-15T10:58:41Z</time>
      </trkpt>
      <trkpt lat="48.96418" lon="2.10654">
        <ele>39</ele>
        <time>2022-02-15T10:58:44Z</time>
      </trkpt>
      <trkpt lat="48.96418" lon="2.10645">
        <ele>38.1</ele>
        <time>2022-02-15T10:58:48Z</time>
      </trkpt>
      <trkpt lat="48.96418" lon="2.10637">
        <ele>38.6</ele>
        <time>2022-02-15T10:58:53Z</time>
      </trkpt>
      <trkpt lat="48.96418" lon="2.10629">
        <ele>40</ele>
        <time>2022-02-15T10:58:57Z</time>
      </trkpt>
      <trkpt lat="48.96418" lon="2.10621">
        <ele>41.5</ele>
        <time>2022-02-15T10:59:01Z</time>
      </trkpt>
      <trkpt lat="48.96416" lon="2.10614">
        <ele>41.9</ele>
        <time>2022-02-15T10:59:05Z</time>
      </trkpt>
      <trkpt lat="48.96416" lon="2.10606">
        <ele>42.6</ele>
        <time>2022-02-15T10:59:08Z</time>
      </trkpt>
      <trkpt lat="48.96417" lon="2.10598">
        <ele>43.1</ele>
        <time>2022-02-15T10:59:12Z</time>
      </trkpt>
      <trkpt lat="48.96418" lon="2.10591">
        <ele>43.4</ele>
        <time>2022-02-15T10:59:16Z</time>
      </trkpt>
      <trkpt lat="48.96418" lon="2.10583">
        <ele>44</ele>
        <time>2022-02-15T10:59:20Z</time>
      </trkpt>
      <trkpt lat="48.96418" lon="2.10575">
        <ele>45.2</ele>
        <time>2022-02-15T10:59:25Z</time>
      </trkpt>
      <trkpt lat="48.96418" lon="2.10567">
        <ele>45.6</ele>
        <time>2022-02-15T10:59:28Z</time>
      </trkpt>
      <trkpt lat="48.96419" lon="2.10558">
        <ele>46.1</ele>
        <time>2022-02-15T10:59:33Z</time>
      </trkpt>
      <trkpt lat="48.9642" lon="2.1055">
        <ele>45.7</ele>
        <time>2022-02-15T10:59:37Z</time>
      </trkpt>
      <trkpt lat="48.96421" lon="2.10542">
        <ele>44.1</ele>
        <time>2022-02-15T10:59:40Z</time>
      </trkpt>
      <trkpt lat="48.96421" lon="2.10534">
        <ele>43.2</ele>
        <time>2022-02-15T10:59:43Z</time>
      </trkpt>
      <trkpt lat="48.96421" lon="2.10527">
        <ele>43.2</ele>
        <time>2022-02-15T10:59:46Z</time>
      </trkpt>
      <trkpt lat="48.9642" lon="2.1052">
        <ele>44.5</ele>
        <time>2022-02-15T10:59:49Z</time>
      </trkpt>
      <trkpt lat="48.9642" lon="2.10512">
        <ele>46.4</ele>
        <time>2022-02-15T10:59:53Z</time>
      </trkpt>
      <trkpt lat="48.9642" lon="2.10505">
        <ele>46.8</ele>
        <time>2022-02-15T10:59:57Z</time>
      </trkpt>
      <trkpt lat="48.96421" lon="2.10498">
        <ele>46.6</ele>
        <time>2022-02-15T11:00:00Z</time>
      </trkpt>
      <trkpt lat="48.96421" lon="2.10489">
        <ele>46.1</ele>
        <time>2022-02-15T11:00:05Z</time>
      </trkpt>
      <trkpt lat="48.96422" lon="2.1048">
        <ele>46.5</ele>
        <time>2022-02-15T11:00:09Z</time>
      </trkpt>
      <trkpt lat="48.96425" lon="2.10472">
        <ele>46.5</ele>
        <time>2022-02-15T11:00:14Z</time>
      </trkpt>
      <trkpt lat="48.96427" lon="2.10465">
        <ele>45.5</ele>
        <time>2022-02-15T11:00:18Z</time>
      </trkpt>
      <trkpt lat="48.96428" lon="2.10457">
        <ele>44.5</ele>
        <time>2022-02-15T11:00:22Z</time>
      </trkpt>
      <trkpt lat="48.9643" lon="2.1045">
        <ele>44</ele>
        <time>2022-02-15T11:01:06Z</time>
      </trkpt>
      <trkpt lat="48.96432" lon="2.10444">
        <ele>43.2</ele>
        <time>2022-02-15T11:01:13Z</time>
      </trkpt>
      <trkpt lat="48.96437" lon="2.1044">
        <ele>45.1</ele>
        <time>2022-02-15T11:01:17Z</time>
      </trkpt>
      <trkpt lat="48.96441" lon="2.10434">
        <ele>48.8</ele>
        <time>2022-02-15T11:01:21Z</time>
      </trkpt>
      <trkpt lat="48.96445" lon="2.10429">
        <ele>50.9</ele>
        <time>2022-02-15T11:01:26Z</time>
      </trkpt>
      <trkpt lat="48.9645" lon="2.10423">
        <ele>49.6</ele>
        <time>2022-02-15T11:01:32Z</time>
      </trkpt>
      <trkpt lat="48.96454" lon="2.10417">
        <ele>48.3</ele>
        <time>2022-02-15T11:01:37Z</time>
      </trkpt>
      <trkpt lat="48.96458" lon="2.10413">
        <ele>48.3</ele>
        <time>2022-02-15T11:01:42Z</time>
      </trkpt>
      <trkpt lat="48.96463" lon="2.10408">
        <ele>50.3</ele>
        <time>2022-02-15T11:01:48Z</time>
      </trkpt>
      <trkpt lat="48.96466" lon="2.10404">
        <ele>51.8</ele>
        <time>2022-02-15T11:01:51Z</time>
      </trkpt>
      <trkpt lat="48.9647" lon="2.10401">
        <ele>53.1</ele>
        <time>2022-02-15T11:01:55Z</time>
      </trkpt>
      <trkpt lat="48.96475" lon="2.10398">
        <ele>53.4</ele>
        <time>2022-02-15T11:01:59Z</time>
      </trkpt>
      <trkpt lat="48.9648" lon="2.10395">
        <ele>52.9</ele>
        <time>2022-02-15T11:02:04Z</time>
      </trkpt>
      <trkpt lat="48.96484" lon="2.10391">
        <ele>52</ele>
        <time>2022-02-15T11:02:07Z</time>
      </trkpt>
      <trkpt lat="48.96487" lon="2.10386">
        <ele>49.9</ele>
        <time>2022-02-15T11:02:11Z</time>
      </trkpt>
      <trkpt lat="48.9649" lon="2.10379">
        <ele>47</ele>
        <time>2022-02-15T11:02:15Z</time>
      </trkpt>
      <trkpt lat="48.96494" lon="2.10373">
        <ele>46.2</ele>
        <time>2022-02-15T11:02:19Z</time>
      </trkpt>
      <trkpt lat="48.96497" lon="2.10368">
        <ele>46</ele>
        <time>2022-02-15T11:02:23Z</time>
      </trkpt>
      <trkpt lat="48.96501" lon="2.10362">
        <ele>45</ele>
        <time>2022-02-15T11:02:27Z</time>
      </trkpt>
      <trkpt lat="48.96504" lon="2.10357">
        <ele>43.6</ele>
        <time>2022-02-15T11:02:30Z</time>
      </trkpt>
      <trkpt lat="48.96508" lon="2.10352">
        <ele>42.6</ele>
        <time>2022-02-15T11:02:34Z</time>
      </trkpt>
      <trkpt lat="48.96512" lon="2.10348">
        <ele>42.2</ele>
        <time>2022-02-15T11:02:37Z</time>
      </trkpt>
      <trkpt lat="48.96516" lon="2.10343">
        <ele>42.3</ele>
        <time>2022-02-15T11:02:40Z</time>
      </trkpt>
      <trkpt lat="48.9652" lon="2.10339">
        <ele>41.9</ele>
        <time>2022-02-15T11:02:44Z</time>
      </trkpt>
      <trkpt lat="48.96524" lon="2.10334">
        <ele>41.8</ele>
        <time>2022-02-15T11:02:48Z</time>
      </trkpt>
      <trkpt lat="48.96527" lon="2.10327">
        <ele>42.4</ele>
        <time>2022-02-15T11:02:54Z</time>
      </trkpt>
      <trkpt lat="48.9653" lon="2.10321">
        <ele>42.9</ele>
        <time>2022-02-15T11:02:59Z</time>
      </trkpt>
      <trkpt lat="48.96533" lon="2.10316">
        <ele>43</ele>
        <time>2022-02-15T11:03:03Z</time>
      </trkpt>
      <trkpt lat="48.96538" lon="2.10312">
        <ele>43.4</ele>
        <time>2022-02-15T11:03:06Z</time>
      </trkpt>
      <trkpt lat="48.96543" lon="2.1031">
        <ele>43.8</ele>
        <time>2022-02-15T11:03:09Z</time>
      </trkpt>
      <trkpt lat="48.96547" lon="2.10307">
        <ele>44.4</ele>
        <time>2022-02-15T11:03:12Z</time>
      </trkpt>
      <trkpt lat="48.96552" lon="2.10302">
        <ele>44.9</ele>
        <time>2022-02-15T11:03:16Z</time>
      </trkpt>
      <trkpt lat="48.96556" lon="2.10298">
        <ele>45.1</ele>
        <time>2022-02-15T11:03:19Z</time>
      </trkpt>
      <trkpt lat="48.9656" lon="2.10293">
        <ele>44.8</ele>
        <time>2022-02-15T11:03:22Z</time>
      </trkpt>
      <trkpt lat="48.96565" lon="2.10289">
        <ele>44.2</ele>
        <time>2022-02-15T11:03:25Z</time>
      </trkpt>
      <trkpt lat="48.96569" lon="2.10284">
        <ele>43.6</ele>
        <time>2022-02-15T11:03:28Z</time>
      </trkpt>
      <trkpt lat="48.96574" lon="2.10278">
        <ele>43.7</ele>
        <time>2022-02-15T11:03:32Z</time>
      </trkpt>
      <trkpt lat="48.96578" lon="2.10273">
        <ele>43.9</ele>
        <time>2022-02-15T11:03:36Z</time>
      </trkpt>
      <trkpt lat="48.96582" lon="2.10269">
        <ele>44.2</ele>
        <time>2022-02-15T11:03:40Z</time>
      </trkpt>
      <trkpt lat="48.96585" lon="2.10263">
        <ele>43.5</ele>
        <time>2022-02-15T11:03:44Z</time>
      </trkpt>
      <trkpt lat="48.96589" lon="2.10258">
        <ele>42.5</ele>
        <time>2022-02-15T11:03:48Z</time>
      </trkpt>
      <trkpt lat="48.96593" lon="2.10254">
        <ele>41.4</ele>
        <time>2022-02-15T11:03:53Z</time>
      </trkpt>
      <trkpt lat="48.96598" lon="2.10255">
        <ele>40.7</ele>
        <time>2022-02-15T11:03:57Z</time>
      </trkpt>
      <trkpt lat="48.96603" lon="2.10256">
        <ele>41</ele>
        <time>2022-02-15T11:04:05Z</time>
      </trkpt>
      <trkpt lat="48.96608" lon="2.10256">
        <ele>41.8</ele>
        <time>2022-02-15T11:04:12Z</time>
      </trkpt>
      <trkpt lat="48.96613" lon="2.10258">
        <ele>41.3</ele>
        <time>2022-02-15T11:04:18Z</time>
      </trkpt>
      <trkpt lat="48.96618" lon="2.10258">
        <ele>40.7</ele>
        <time>2022-02-15T11:04:59Z</time>
      </trkpt>
      <trkpt lat="48.96622" lon="2.10262">
        <ele>40.3</ele>
        <time>2022-02-15T11:05:02Z</time>
      </trkpt>
      <trkpt lat="48.96627" lon="2.10265">
        <ele>39.2</ele>
        <time>2022-02-15T11:05:06Z</time>
      </trkpt>
      <trkpt lat="48.96631" lon="2.10266">
        <ele>38.1</ele>
        <time>2022-02-15T11:05:09Z</time>
      </trkpt>
      <trkpt lat="48.96636" lon="2.10265">
        <ele>36.9</ele>
        <time>2022-02-15T11:05:13Z</time>
      </trkpt>
      <trkpt lat="48.96642" lon="2.10266">
        <ele>36.7</ele>
        <time>2022-02-15T11:05:18Z</time>
      </trkpt>
      <trkpt lat="48.96647" lon="2.10268">
        <ele>37.1</ele>
        <time>2022-02-15T11:05:22Z</time>
      </trkpt>
      <trkpt lat="48.96652" lon="2.10269">
        <ele>38.2</ele>
        <time>2022-02-15T11:05:26Z</time>
      </trkpt>
      <trkpt lat="48.96658" lon="2.10269">
        <ele>39</ele>
        <time>2022-02-15T11:05:30Z</time>
      </trkpt>
      <trkpt lat="48.96662" lon="2.10269">
        <ele>39</ele>
        <time>2022-02-15T11:05:33Z</time>
      </trkpt>
      <trkpt lat="48.96667" lon="2.10268">
        <ele>38.2</ele>
        <time>2022-02-15T11:05:38Z</time>
      </trkpt>
      <trkpt lat="48.96672" lon="2.10267">
        <ele>37.4</ele>
        <time>2022-02-15T11:05:42Z</time>
      </trkpt>
      <trkpt lat="48.96677" lon="2.10267">
        <ele>36.9</ele>
        <time>2022-02-15T11:05:46Z</time>
      </trkpt>
      <trkpt lat="48.96683" lon="2.10267">
        <ele>37.2</ele>
        <time>2022-02-15T11:05:51Z</time>
      </trkpt>
      <trkpt lat="48.96688" lon="2.10269">
        <ele>38.3</ele>
        <time>2022-02-15T11:05:55Z</time>
      </trkpt>
      <trkpt lat="48.96693" lon="2.10269">
        <ele>38.3</ele>
        <time>2022-02-15T11:05:59Z</time>
      </trkpt>
      <trkpt lat="48.96698" lon="2.10269">
        <ele>37.8</ele>
        <time>2022-02-15T11:06:03Z</time>
      </trkpt>
      <trkpt lat="48.96703" lon="2.1027">
        <ele>37.6</ele>
        <time>2022-02-15T11:06:07Z</time>
      </trkpt>
      <trkpt lat="48.96708" lon="2.1027">
        <ele>37.6</ele>
        <time>2022-02-15T11:06:11Z</time>
      </trkpt>
      <trkpt lat="48.96713" lon="2.1027">
        <ele>36.8</ele>
        <time>2022-02-15T11:06:15Z</time>
      </trkpt>
      <trkpt lat="48.96718" lon="2.1027">
        <ele>36</ele>
        <time>2022-02-15T11:06:19Z</time>
      </trkpt>
      <trkpt lat="48.96723" lon="2.10271">
        <ele>35.8</ele>
        <time>2022-02-15T11:06:24Z</time>
      </trkpt>
      <trkpt lat="48.96728" lon="2.10272">
        <ele>35.8</ele>
        <time>2022-02-15T11:06:28Z</time>
      </trkpt>
      <trkpt lat="48.96733" lon="2.10275">
        <ele>35.6</ele>
        <time>2022-02-15T11:06:32Z</time>
      </trkpt>
      <trkpt lat="48.96737" lon="2.10274">
        <ele>35.4</ele>
        <time>2022-02-15T11:06:38Z</time>
      </trkpt>
      <trkpt lat="48.96733" lon="2.10273">
        <ele>39.4</ele>
        <time>2022-02-15T11:07:35Z</time>
      </trkpt>
      <trkpt lat="48.96729" lon="2.10269">
        <ele>39.5</ele>
        <time>2022-02-15T11:07:39Z</time>
      </trkpt>
      <trkpt lat="48.96723" lon="2.10269">
        <ele>39.3</ele>
        <time>2022-02-15T11:07:47Z</time>
      </trkpt>
      <trkpt lat="48.96717" lon="2.1027">
        <ele>39.1</ele>
        <time>2022-02-15T11:07:50Z</time>
      </trkpt>
      <trkpt lat="48.96711" lon="2.10268">
        <ele>39.4</ele>
        <time>2022-02-15T11:07:55Z</time>
      </trkpt>
      <trkpt lat="48.96706" lon="2.10266">
        <ele>40.7</ele>
        <time>2022-02-15T11:07:59Z</time>
      </trkpt>
      <trkpt lat="48.96701" lon="2.10265">
        <ele>41.2</ele>
        <time>2022-02-15T11:08:03Z</time>
      </trkpt>
      <trkpt lat="48.96696" lon="2.10267">
        <ele>40.4</ele>
        <time>2022-02-15T11:08:07Z</time>
      </trkpt>
      <trkpt lat="48.96691" lon="2.1027">
        <ele>39.4</ele>
        <time>2022-02-15T11:08:13Z</time>
      </trkpt>
      <trkpt lat="48.96685" lon="2.1027">
        <ele>39.8</ele>
        <time>2022-02-15T11:08:18Z</time>
      </trkpt>
      <trkpt lat="48.9668" lon="2.1027">
        <ele>39.8</ele>
        <time>2022-02-15T11:08:23Z</time>
      </trkpt>
      <trkpt lat="48.96675" lon="2.10269">
        <ele>38.3</ele>
        <time>2022-02-15T11:08:27Z</time>
      </trkpt>
      <trkpt lat="48.9667" lon="2.10268">
        <ele>36.7</ele>
        <time>2022-02-15T11:08:31Z</time>
      </trkpt>
      <trkpt lat="48.96665" lon="2.10268">
        <ele>36.8</ele>
        <time>2022-02-15T11:08:35Z</time>
      </trkpt>
      <trkpt lat="48.9666" lon="2.10269">
        <ele>37.2</ele>
        <time>2022-02-15T11:08:39Z</time>
      </trkpt>
      <trkpt lat="48.96655" lon="2.10269">
        <ele>37.6</ele>
        <time>2022-02-15T11:08:42Z</time>
      </trkpt>
      <trkpt lat="48.9665" lon="2.1027">
        <ele>37.4</ele>
        <time>2022-02-15T11:08:45Z</time>
      </trkpt>
      <trkpt lat="48.96645" lon="2.1027">
        <ele>36.3</ele>
        <time>2022-02-15T11:08:49Z</time>
      </trkpt>
      <trkpt lat="48.9664" lon="2.10271">
        <ele>34.8</ele>
        <time>2022-02-15T11:08:53Z</time>
      </trkpt>
      <trkpt lat="48.96635" lon="2.10271">
        <ele>35.5</ele>
        <time>2022-02-15T11:08:57Z</time>
      </trkpt>
      <trkpt lat="48.9663" lon="2.10272">
        <ele>37.8</ele>
        <time>2022-02-15T11:09:02Z</time>
      </trkpt>
      <trkpt lat="48.96625" lon="2.10274">
        <ele>39.2</ele>
        <time>2022-02-15T11:09:06Z</time>
      </trkpt>
      <trkpt lat="48.9662" lon="2.10274">
        <ele>40.6</ele>
        <time>2022-02-15T11:09:10Z</time>
      </trkpt>
      <trkpt lat="48.96615" lon="2.10274">
        <ele>41.1</ele>
        <time>2022-02-15T11:09:15Z</time>
      </trkpt>
      <trkpt lat="48.96611" lon="2.10272">
        <ele>40.8</ele>
        <time>2022-02-15T11:09:20Z</time>
      </trkpt>
      <trkpt lat="48.96615" lon="2.10271">
        <ele>39.6</ele>
        <time>2022-02-15T11:09:36Z</time>
      </trkpt>
      <trkpt lat="48.9662" lon="2.10269">
        <ele>44.7</ele>
        <time>2022-02-15T11:09:46Z</time>
      </trkpt>
      <trkpt lat="48.96626" lon="2.10267">
        <ele>45.5</ele>
        <time>2022-02-15T11:09:51Z</time>
      </trkpt>
      <trkpt lat="48.96631" lon="2.10265">
        <ele>45</ele>
        <time>2022-02-15T11:09:56Z</time>
      </trkpt>
      <trkpt lat="48.96636" lon="2.10264">
        <ele>44.3</ele>
        <time>2022-02-15T11:09:59Z</time>
      </trkpt>
      <trkpt lat="48.96642" lon="2.10265">
        <ele>43.6</ele>
        <time>2022-02-15T11:10:04Z</time>
      </trkpt>
      <trkpt lat="48.96647" lon="2.10266">
        <ele>43.4</ele>
        <time>2022-02-15T11:10:08Z</time>
      </trkpt>
      <trkpt lat="48.96652" lon="2.10268">
        <ele>43.2</ele>
        <time>2022-02-15T11:10:13Z</time>
      </trkpt>
      <trkpt lat="48.96658" lon="2.10268">
        <ele>42.9</ele>
        <time>2022-02-15T11:10:17Z</time>
      </trkpt>
      <trkpt lat="48.96663" lon="2.10268">
        <ele>42.9</ele>
        <time>2022-02-15T11:10:20Z</time>
      </trkpt>
      <trkpt lat="48.96669" lon="2.10267">
        <ele>42.9</ele>
        <time>2022-02-15T11:10:25Z</time>
      </trkpt>
      <trkpt lat="48.96673" lon="2.10266">
        <ele>42.8</ele>
        <time>2022-02-15T11:10:29Z</time>
      </trkpt>
      <trkpt lat="48.96679" lon="2.10266">
        <ele>42.2</ele>
        <time>2022-02-15T11:10:33Z</time>
      </trkpt>
      <trkpt lat="48.96684" lon="2.10266">
        <ele>42.2</ele>
        <time>2022-02-15T11:10:37Z</time>
      </trkpt>
      <trkpt lat="48.96688" lon="2.10267">
        <ele>42.5</ele>
        <time>2022-02-15T11:10:42Z</time>
      </trkpt>
      <trkpt lat="48.96693" lon="2.10267">
        <ele>43</ele>
        <time>2022-02-15T11:10:46Z</time>
      </trkpt>
      <trkpt lat="48.96698" lon="2.10269">
        <ele>43.7</ele>
        <time>2022-02-15T11:10:50Z</time>
      </trkpt>
      <trkpt lat="48.96704" lon="2.10269">
        <ele>44.3</ele>
        <time>2022-02-15T11:10:55Z</time>
      </trkpt>
      <trkpt lat="48.96709" lon="2.1027">
        <ele>43.7</ele>
        <time>2022-02-15T11:10:59Z</time>
      </trkpt>
      <trkpt lat="48.96714" lon="2.1027">
        <ele>42.8</ele>
        <time>2022-02-15T11:11:04Z</time>
      </trkpt>
      <trkpt lat="48.96719" lon="2.1027">
        <ele>42.1</ele>
        <time>2022-02-15T11:11:08Z</time>
      </trkpt>
      <trkpt lat="48.96723" lon="2.1027">
        <ele>41.9</ele>
        <time>2022-02-15T11:11:12Z</time>
      </trkpt>
      <trkpt lat="48.96728" lon="2.1027">
        <ele>41.6</ele>
        <time>2022-02-15T11:11:17Z</time>
      </trkpt>
      <trkpt lat="48.96733" lon="2.10271">
        <ele>40.3</ele>
        <time>2022-02-15T11:11:22Z</time>
      </trkpt>
      <trkpt lat="48.96737" lon="2.10276">
        <ele>39.2</ele>
        <time>2022-02-15T11:11:27Z</time>
      </trkpt>
      <trkpt lat="48.96742" lon="2.10277">
        <ele>38.4</ele>
        <time>2022-02-15T11:11:32Z</time>
      </trkpt>
      <trkpt lat="48.96743" lon="2.10269">
        <ele>38.3</ele>
        <time>2022-02-15T11:11:36Z</time>
      </trkpt>
      <trkpt lat="48.96744" lon="2.10262">
        <ele>38.3</ele>
        <time>2022-02-15T11:11:41Z</time>
      </trkpt>
      <trkpt lat="48.96745" lon="2.10255">
        <ele>38.8</ele>
        <time>2022-02-15T11:11:45Z</time>
      </trkpt>
      <trkpt lat="48.96747" lon="2.10247">
        <ele>40</ele>
        <time>2022-02-15T11:11:49Z</time>
      </trkpt>
      <trkpt lat="48.96749" lon="2.1024">
        <ele>40.6</ele>
        <time>2022-02-15T11:11:54Z</time>
      </trkpt>
      <trkpt lat="48.96751" lon="2.10233">
        <ele>40.2</ele>
        <time>2022-02-15T11:11:58Z</time>
      </trkpt>
      <trkpt lat="48.96753" lon="2.10225">
        <ele>39.7</ele>
        <time>2022-02-15T11:12:02Z</time>
      </trkpt>
      <trkpt lat="48.96754" lon="2.10217">
        <ele>39.4</ele>
        <time>2022-02-15T11:12:06Z</time>
      </trkpt>
      <trkpt lat="48.96756" lon="2.10209">
        <ele>39.1</ele>
        <time>2022-02-15T11:12:10Z</time>
      </trkpt>
      <trkpt lat="48.96758" lon="2.10201">
        <ele>38.9</ele>
        <time>2022-02-15T11:12:14Z</time>
      </trkpt>
      <trkpt lat="48.96759" lon="2.10194">
        <ele>39.1</ele>
        <time>2022-02-15T11:12:18Z</time>
      </trkpt>
      <trkpt lat="48.96761" lon="2.10185">
        <ele>39</ele>
        <time>2022-02-15T11:12:23Z</time>
      </trkpt>
      <trkpt lat="48.96763" lon="2.10178">
        <ele>38.9</ele>
        <time>2022-02-15T11:12:27Z</time>
      </trkpt>
      <trkpt lat="48.96765" lon="2.1017">
        <ele>39.3</ele>
        <time>2022-02-15T11:12:31Z</time>
      </trkpt>
      <trkpt lat="48.96766" lon="2.10162">
        <ele>39.9</ele>
        <time>2022-02-15T11:12:35Z</time>
      </trkpt>
      <trkpt lat="48.96768" lon="2.10155">
        <ele>39.8</ele>
        <time>2022-02-15T11:12:39Z</time>
      </trkpt>
      <trkpt lat="48.96769" lon="2.10147">
        <ele>39.2</ele>
        <time>2022-02-15T11:12:43Z</time>
      </trkpt>
      <trkpt lat="48.96771" lon="2.1014">
        <ele>39.3</ele>
        <time>2022-02-15T11:12:47Z</time>
      </trkpt>
      <trkpt lat="48.96773" lon="2.10133">
        <ele>39.5</ele>
        <time>2022-02-15T11:12:51Z</time>
      </trkpt>
      <trkpt lat="48.96774" lon="2.10125">
        <ele>40</ele>
        <time>2022-02-15T11:12:55Z</time>
      </trkpt>
      <trkpt lat="48.96776" lon="2.10117">
        <ele>40.9</ele>
        <time>2022-02-15T11:12:59Z</time>
      </trkpt>
      <trkpt lat="48.96778" lon="2.1011">
        <ele>41.6</ele>
        <time>2022-02-15T11:13:03Z</time>
      </trkpt>
      <trkpt lat="48.96781" lon="2.10103">
        <ele>42</ele>
        <time>2022-02-15T11:13:07Z</time>
      </trkpt>
      <trkpt lat="48.96782" lon="2.10095">
        <ele>42.4</ele>
        <time>2022-02-15T11:13:11Z</time>
      </trkpt>
      <trkpt lat="48.96783" lon="2.10087">
        <ele>42.7</ele>
        <time>2022-02-15T11:13:15Z</time>
      </trkpt>
      <trkpt lat="48.96785" lon="2.10081">
        <ele>43.3</ele>
        <time>2022-02-15T11:13:19Z</time>
      </trkpt>
      <trkpt lat="48.96787" lon="2.10074">
        <ele>43.2</ele>
        <time>2022-02-15T11:13:24Z</time>
      </trkpt>
      <trkpt lat="48.96789" lon="2.10066">
        <ele>42.3</ele>
        <time>2022-02-15T11:13:28Z</time>
      </trkpt>
      <trkpt lat="48.96789" lon="2.10058">
        <ele>41.2</ele>
        <time>2022-02-15T11:13:32Z</time>
      </trkpt>
      <trkpt lat="48.9679" lon="2.10051">
        <ele>40.8</ele>
        <time>2022-02-15T11:13:36Z</time>
      </trkpt>
      <trkpt lat="48.96791" lon="2.10043">
        <ele>40.3</ele>
        <time>2022-02-15T11:13:40Z</time>
      </trkpt>
      <trkpt lat="48.96794" lon="2.10036">
        <ele>39.5</ele>
        <time>2022-02-15T11:13:44Z</time>
      </trkpt>
      <trkpt lat="48.96797" lon="2.1003">
        <ele>39.4</ele>
        <time>2022-02-15T11:13:48Z</time>
      </trkpt>
      <trkpt lat="48.96799" lon="2.10022">
        <ele>40</ele>
        <time>2022-02-15T11:13:52Z</time>
      </trkpt>
      <trkpt lat="48.968" lon="2.10015">
        <ele>41.3</ele>
        <time>2022-02-15T11:13:56Z</time>
      </trkpt>
      <trkpt lat="48.96802" lon="2.10007">
        <ele>42.4</ele>
        <time>2022-02-15T11:14:00Z</time>
      </trkpt>
      <trkpt lat="48.96803" lon="2.1">
        <ele>43.3</ele>
        <time>2022-02-15T11:14:03Z</time>
      </trkpt>
      <trkpt lat="48.96805" lon="2.09992">
        <ele>43.6</ele>
        <time>2022-02-15T11:14:07Z</time>
      </trkpt>
      <trkpt lat="48.96806" lon="2.09985">
        <ele>43.3</ele>
        <time>2022-02-15T11:14:11Z</time>
      </trkpt>
      <trkpt lat="48.9681" lon="2.0998">
        <ele>42.3</ele>
        <time>2022-02-15T11:14:16Z</time>
      </trkpt>
      <trkpt lat="48.96808" lon="2.09974">
        <ele>38.6</ele>
        <time>2022-02-15T11:14:32Z</time>
      </trkpt>
      <trkpt lat="48.96809" lon="2.09966">
        <ele>39.3</ele>
        <time>2022-02-15T11:14:38Z</time>
      </trkpt>
      <trkpt lat="48.96812" lon="2.09972">
        <ele>36.7</ele>
        <time>2022-02-15T11:14:43Z</time>
      </trkpt>
      <trkpt lat="48.96816" lon="2.09966">
        <ele>33.7</ele>
        <time>2022-02-15T11:14:51Z</time>
      </trkpt>
      <trkpt lat="48.96821" lon="2.09964">
        <ele>34.5</ele>
        <time>2022-02-15T11:14:57Z</time>
      </trkpt>
      <trkpt lat="48.96825" lon="2.09962">
        <ele>35</ele>
        <time>2022-02-15T11:15:01Z</time>
      </trkpt>
      <trkpt lat="48.96828" lon="2.09957">
        <ele>36</ele>
        <time>2022-02-15T11:15:06Z</time>
      </trkpt>
      <trkpt lat="48.96824" lon="2.09952">
        <ele>37.1</ele>
        <time>2022-02-15T11:15:12Z</time>
      </trkpt>
      <trkpt lat="48.96824" lon="2.09945">
        <ele>37.8</ele>
        <time>2022-02-15T11:15:15Z</time>
      </trkpt>
      <trkpt lat="48.96827" lon="2.09937">
        <ele>38.2</ele>
        <time>2022-02-15T11:15:18Z</time>
      </trkpt>
      <trkpt lat="48.96832" lon="2.09931">
        <ele>38.7</ele>
        <time>2022-02-15T11:15:23Z</time>
      </trkpt>
      <trkpt lat="48.96836" lon="2.09929">
        <ele>39</ele>
        <time>2022-02-15T11:15:25Z</time>
      </trkpt>
      <trkpt lat="48.96843" lon="2.09927">
        <ele>41</ele>
        <time>2022-02-15T11:15:28Z</time>
      </trkpt>
      <trkpt lat="48.96848" lon="2.09924">
        <ele>45.1</ele>
        <time>2022-02-15T11:15:32Z</time>
      </trkpt>
      <trkpt lat="48.96854" lon="2.0992">
        <ele>49.5</ele>
        <time>2022-02-15T11:15:35Z</time>
      </trkpt>
      <trkpt lat="48.96856" lon="2.09913">
        <ele>51.3</ele>
        <time>2022-02-15T11:15:39Z</time>
      </trkpt>
      <trkpt lat="48.96859" lon="2.09909">
        <ele>51.4</ele>
        <time>2022-02-15T11:15:43Z</time>
      </trkpt>
      <trkpt lat="48.96863" lon="2.09903">
        <ele>50.3</ele>
        <time>2022-02-15T11:15:47Z</time>
      </trkpt>
      <trkpt lat="48.96866" lon="2.09897">
        <ele>48</ele>
        <time>2022-02-15T11:15:51Z</time>
      </trkpt>
      <trkpt lat="48.96869" lon="2.09891">
        <ele>45.7</ele>
        <time>2022-02-15T11:15:55Z</time>
      </trkpt>
      <trkpt lat="48.96873" lon="2.09886">
        <ele>44.3</ele>
        <time>2022-02-15T11:16:00Z</time>
      </trkpt>
      <trkpt lat="48.96878" lon="2.09881">
        <ele>43.4</ele>
        <time>2022-02-15T11:16:05Z</time>
      </trkpt>
      <trkpt lat="48.96882" lon="2.09876">
        <ele>42.8</ele>
        <time>2022-02-15T11:16:09Z</time>
      </trkpt>
      <trkpt lat="48.96886" lon="2.09872">
        <ele>42.4</ele>
        <time>2022-02-15T11:16:12Z</time>
      </trkpt>
      <trkpt lat="48.9689" lon="2.09868">
        <ele>41.9</ele>
        <time>2022-02-15T11:16:16Z</time>
      </trkpt>
      <trkpt lat="48.96894" lon="2.09863">
        <ele>41.4</ele>
        <time>2022-02-15T11:16:20Z</time>
      </trkpt>
      <trkpt lat="48.96898" lon="2.09857">
        <ele>40.6</ele>
        <time>2022-02-15T11:16:24Z</time>
      </trkpt>
      <trkpt lat="48.96901" lon="2.09852">
        <ele>41</ele>
        <time>2022-02-15T11:16:27Z</time>
      </trkpt>
      <trkpt lat="48.96904" lon="2.09846">
        <ele>42.8</ele>
        <time>2022-02-15T11:16:31Z</time>
      </trkpt>
      <trkpt lat="48.96908" lon="2.09842">
        <ele>44.4</ele>
        <time>2022-02-15T11:16:34Z</time>
      </trkpt>
      <trkpt lat="48.96911" lon="2.09837">
        <ele>46.5</ele>
        <time>2022-02-15T11:16:38Z</time>
      </trkpt>
      <trkpt lat="48.96915" lon="2.09831">
        <ele>47.7</ele>
        <time>2022-02-15T11:16:42Z</time>
      </trkpt>
      <trkpt lat="48.96915" lon="2.09825">
        <ele>46.2</ele>
        <time>2022-02-15T11:16:48Z</time>
      </trkpt>
      <trkpt lat="48.96911" lon="2.09828">
        <ele>45</ele>
        <time>2022-02-15T11:16:52Z</time>
      </trkpt>
      <trkpt lat="48.96909" lon="2.09836">
        <ele>43.2</ele>
        <time>2022-02-15T11:16:56Z</time>
      </trkpt>
      <trkpt lat="48.96906" lon="2.09842">
        <ele>40</ele>
        <time>2022-02-15T11:17:00Z</time>
      </trkpt>
      <trkpt lat="48.96908" lon="2.09836">
        <ele>37.9</ele>
        <time>2022-02-15T11:17:03Z</time>
      </trkpt>
      <trkpt lat="48.96912" lon="2.0983">
        <ele>37.6</ele>
        <time>2022-02-15T11:17:04Z</time>
      </trkpt>
      <trkpt lat="48.96918" lon="2.09823">
        <ele>37.5</ele>
        <time>2022-02-15T11:17:06Z</time>
      </trkpt>
      <trkpt lat="48.96923" lon="2.09818">
        <ele>37.6</ele>
        <time>2022-02-15T11:17:08Z</time>
      </trkpt>
      <trkpt lat="48.96928" lon="2.09812">
        <ele>37.8</ele>
        <time>2022-02-15T11:17:11Z</time>
      </trkpt>
      <trkpt lat="48.96932" lon="2.09806">
        <ele>37.9</ele>
        <time>2022-02-15T11:17:14Z</time>
      </trkpt>
      <trkpt lat="48.96936" lon="2.09801">
        <ele>38.6</ele>
        <time>2022-02-15T11:17:17Z</time>
      </trkpt>
      <trkpt lat="48.96941" lon="2.09796">
        <ele>39.5</ele>
        <time>2022-02-15T11:17:20Z</time>
      </trkpt>
      <trkpt lat="48.96946" lon="2.09791">
        <ele>40.3</ele>
        <time>2022-02-15T11:17:23Z</time>
      </trkpt>
      <trkpt lat="48.96951" lon="2.09786">
        <ele>40.8</ele>
        <time>2022-02-15T11:17:27Z</time>
      </trkpt>
      <trkpt lat="48.96957" lon="2.09781">
        <ele>41.6</ele>
        <time>2022-02-15T11:17:30Z</time>
      </trkpt>
      <trkpt lat="48.9696" lon="2.09777">
        <ele>42.3</ele>
        <time>2022-02-15T11:17:33Z</time>
      </trkpt>
      <trkpt lat="48.96965" lon="2.09771">
        <ele>43.2</ele>
        <time>2022-02-15T11:17:36Z</time>
      </trkpt>
      <trkpt lat="48.9697" lon="2.09766">
        <ele>43.4</ele>
        <time>2022-02-15T11:17:40Z</time>
      </trkpt>
      <trkpt lat="48.96973" lon="2.09759">
        <ele>43.4</ele>
        <time>2022-02-15T11:17:43Z</time>
      </trkpt>
      <trkpt lat="48.96977" lon="2.09754">
        <ele>43.4</ele>
        <time>2022-02-15T11:17:46Z</time>
      </trkpt>
      <trkpt lat="48.96981" lon="2.09749">
        <ele>43.7</ele>
        <time>2022-02-15T11:17:50Z</time>
      </trkpt>
      <trkpt lat="48.96985" lon="2.09744">
        <ele>44.5</ele>
        <time>2022-02-15T11:17:53Z</time>
      </trkpt>
      <trkpt lat="48.96989" lon="2.09743">
        <ele>44.5</ele>
        <time>2022-02-15T11:17:59Z</time>
      </trkpt>
      <trkpt lat="48.96993" lon="2.09737">
        <ele>43.5</ele>
        <time>2022-02-15T11:18:04Z</time>
      </trkpt>
      <trkpt lat="48.96997" lon="2.09729">
        <ele>43.4</ele>
        <time>2022-02-15T11:18:08Z</time>
      </trkpt>
      <trkpt lat="48.97" lon="2.09721">
        <ele>43.7</ele>
        <time>2022-02-15T11:18:11Z</time>
      </trkpt>
      <trkpt lat="48.97003" lon="2.09714">
        <ele>44</ele>
        <time>2022-02-15T11:18:15Z</time>
      </trkpt>
      <trkpt lat="48.97007" lon="2.09708">
        <ele>44.1</ele>
        <time>2022-02-15T11:18:19Z</time>
      </trkpt>
      <trkpt lat="48.9701" lon="2.09702">
        <ele>44.3</ele>
        <time>2022-02-15T11:18:23Z</time>
      </trkpt>
      <trkpt lat="48.97014" lon="2.09698">
        <ele>44.4</ele>
        <time>2022-02-15T11:18:27Z</time>
      </trkpt>
      <trkpt lat="48.97017" lon="2.09693">
        <ele>44.5</ele>
        <time>2022-02-15T11:18:31Z</time>
      </trkpt>
      <trkpt lat="48.97021" lon="2.09687">
        <ele>44.8</ele>
        <time>2022-02-15T11:18:35Z</time>
      </trkpt>
      <trkpt lat="48.97025" lon="2.09682">
        <ele>45.4</ele>
        <time>2022-02-15T11:18:39Z</time>
      </trkpt>
      <trkpt lat="48.97029" lon="2.09677">
        <ele>45.2</ele>
        <time>2022-02-15T11:18:43Z</time>
      </trkpt>
      <trkpt lat="48.97036" lon="2.09671">
        <ele>43.9</ele>
        <time>2022-02-15T11:18:52Z</time>
      </trkpt>
      <trkpt lat="48.9704" lon="2.09665">
        <ele>43.9</ele>
        <time>2022-02-15T11:18:56Z</time>
      </trkpt>
      <trkpt lat="48.97043" lon="2.09659">
        <ele>43.1</ele>
        <time>2022-02-15T11:19:00Z</time>
      </trkpt>
      <trkpt lat="48.97047" lon="2.09652">
        <ele>41.3</ele>
        <time>2022-02-15T11:19:04Z</time>
      </trkpt>
      <trkpt lat="48.97051" lon="2.09646">
        <ele>37.8</ele>
        <time>2022-02-15T11:19:08Z</time>
      </trkpt>
      <trkpt lat="48.97055" lon="2.09641">
        <ele>36.7</ele>
        <time>2022-02-15T11:19:12Z</time>
      </trkpt>
      <trkpt lat="48.97058" lon="2.09637">
        <ele>37</ele>
        <time>2022-02-15T11:19:15Z</time>
      </trkpt>
      <trkpt lat="48.97063" lon="2.09632">
        <ele>38.6</ele>
        <time>2022-02-15T11:19:19Z</time>
      </trkpt>
      <trkpt lat="48.97067" lon="2.09628">
        <ele>38.5</ele>
        <time>2022-02-15T11:19:22Z</time>
      </trkpt>
      <trkpt lat="48.97071" lon="2.09622">
        <ele>38.1</ele>
        <time>2022-02-15T11:19:26Z</time>
      </trkpt>
      <trkpt lat="48.97074" lon="2.09617">
        <ele>38.2</ele>
        <time>2022-02-15T11:19:29Z</time>
      </trkpt>
      <trkpt lat="48.97078" lon="2.09611">
        <ele>38.7</ele>
        <time>2022-02-15T11:19:33Z</time>
      </trkpt>
      <trkpt lat="48.97082" lon="2.09607">
        <ele>39.5</ele>
        <time>2022-02-15T11:19:37Z</time>
      </trkpt>
      <trkpt lat="48.97086" lon="2.09602">
        <ele>41.4</ele>
        <time>2022-02-15T11:19:41Z</time>
      </trkpt>
      <trkpt lat="48.9709" lon="2.09597">
        <ele>42.5</ele>
        <time>2022-02-15T11:19:45Z</time>
      </trkpt>
      <trkpt lat="48.97094" lon="2.09592">
        <ele>41.8</ele>
        <time>2022-02-15T11:19:49Z</time>
      </trkpt>
      <trkpt lat="48.97097" lon="2.09586">
        <ele>40.9</ele>
        <time>2022-02-15T11:19:52Z</time>
      </trkpt>
      <trkpt lat="48.971" lon="2.09581">
        <ele>40.9</ele>
        <time>2022-02-15T11:19:56Z</time>
      </trkpt>
      <trkpt lat="48.97103" lon="2.09576">
        <ele>41.9</ele>
        <time>2022-02-15T11:19:59Z</time>
      </trkpt>
      <trkpt lat="48.97107" lon="2.09571">
        <ele>42.6</ele>
        <time>2022-02-15T11:20:03Z</time>
      </trkpt>
      <trkpt lat="48.9711" lon="2.09565">
        <ele>42.4</ele>
        <time>2022-02-15T11:20:06Z</time>
      </trkpt>
      <trkpt lat="48.97113" lon="2.09559">
        <ele>41.8</ele>
        <time>2022-02-15T11:20:10Z</time>
      </trkpt>
      <trkpt lat="48.97116" lon="2.09553">
        <ele>40.9</ele>
        <time>2022-02-15T11:20:14Z</time>
      </trkpt>
      <trkpt lat="48.97121" lon="2.09549">
        <ele>39.5</ele>
        <time>2022-02-15T11:20:18Z</time>
      </trkpt>
      <trkpt lat="48.97126" lon="2.09545">
        <ele>37.9</ele>
        <time>2022-02-15T11:20:23Z</time>
      </trkpt>
      <trkpt lat="48.9713" lon="2.0954">
        <ele>37.4</ele>
        <time>2022-02-15T11:20:27Z</time>
      </trkpt>
      <trkpt lat="48.97135" lon="2.09535">
        <ele>38.2</ele>
        <time>2022-02-15T11:20:32Z</time>
      </trkpt>
      <trkpt lat="48.97139" lon="2.09528">
        <ele>39.2</ele>
        <time>2022-02-15T11:20:37Z</time>
      </trkpt>
      <trkpt lat="48.97143" lon="2.09522">
        <ele>39.5</ele>
        <time>2022-02-15T11:20:41Z</time>
      </trkpt>
      <trkpt lat="48.97147" lon="2.09516">
        <ele>40</ele>
        <time>2022-02-15T11:20:44Z</time>
      </trkpt>
      <trkpt lat="48.97152" lon="2.09511">
        <ele>41</ele>
        <time>2022-02-15T11:20:48Z</time>
      </trkpt>
      <trkpt lat="48.97155" lon="2.09505">
        <ele>41.6</ele>
        <time>2022-02-15T11:20:52Z</time>
      </trkpt>
      <trkpt lat="48.97159" lon="2.09499">
        <ele>42</ele>
        <time>2022-02-15T11:20:56Z</time>
      </trkpt>
      <trkpt lat="48.97163" lon="2.09494">
        <ele>42.1</ele>
        <time>2022-02-15T11:21:00Z</time>
      </trkpt>
      <trkpt lat="48.97168" lon="2.09488">
        <ele>41.9</ele>
        <time>2022-02-15T11:21:05Z</time>
      </trkpt>
      <trkpt lat="48.97172" lon="2.09483">
        <ele>40.8</ele>
        <time>2022-02-15T11:21:08Z</time>
      </trkpt>
      <trkpt lat="48.97176" lon="2.09478">
        <ele>40.6</ele>
        <time>2022-02-15T11:21:11Z</time>
      </trkpt>
      <trkpt lat="48.97179" lon="2.09473">
        <ele>40.4</ele>
        <time>2022-02-15T11:21:15Z</time>
      </trkpt>
      <trkpt lat="48.97183" lon="2.09467">
        <ele>41.6</ele>
        <time>2022-02-15T11:21:19Z</time>
      </trkpt>
      <trkpt lat="48.97186" lon="2.09461">
        <ele>41.8</ele>
        <time>2022-02-15T11:21:22Z</time>
      </trkpt>
      <trkpt lat="48.9719" lon="2.09456">
        <ele>40.8</ele>
        <time>2022-02-15T11:21:26Z</time>
      </trkpt>
      <trkpt lat="48.97194" lon="2.09451">
        <ele>39.2</ele>
        <time>2022-02-15T11:21:30Z</time>
      </trkpt>
      <trkpt lat="48.97198" lon="2.09446">
        <ele>39.6</ele>
        <time>2022-02-15T11:21:34Z</time>
      </trkpt>
      <trkpt lat="48.97202" lon="2.09441">
        <ele>40.4</ele>
        <time>2022-02-15T11:21:38Z</time>
      </trkpt>
      <trkpt lat="48.97206" lon="2.09437">
        <ele>40.4</ele>
        <time>2022-02-15T11:21:41Z</time>
      </trkpt>
      <trkpt lat="48.97209" lon="2.09431">
        <ele>39.1</ele>
        <time>2022-02-15T11:21:47Z</time>
      </trkpt>
      <trkpt lat="48.97214" lon="2.09429">
        <ele>39.5</ele>
        <time>2022-02-15T11:21:53Z</time>
      </trkpt>
      <trkpt lat="48.97219" lon="2.09429">
        <ele>39.7</ele>
        <time>2022-02-15T11:21:57Z</time>
      </trkpt>
      <trkpt lat="48.97224" lon="2.09429">
        <ele>39.4</ele>
        <time>2022-02-15T11:22:03Z</time>
      </trkpt>
      <trkpt lat="48.97229" lon="2.09428">
        <ele>40</ele>
        <time>2022-02-15T11:22:09Z</time>
      </trkpt>
      <trkpt lat="48.97234" lon="2.09427">
        <ele>39.9</ele>
        <time>2022-02-15T11:22:14Z</time>
      </trkpt>
      <trkpt lat="48.97238" lon="2.0943">
        <ele>38.4</ele>
        <time>2022-02-15T11:22:19Z</time>
      </trkpt>
      <trkpt lat="48.97243" lon="2.09432">
        <ele>36.8</ele>
        <time>2022-02-15T11:22:24Z</time>
      </trkpt>
      <trkpt lat="48.97247" lon="2.09437">
        <ele>36.6</ele>
        <time>2022-02-15T11:22:28Z</time>
      </trkpt>
      <trkpt lat="48.97252" lon="2.09441">
        <ele>36.6</ele>
        <time>2022-02-15T11:22:32Z</time>
      </trkpt>
      <trkpt lat="48.97257" lon="2.09444">
        <ele>36.5</ele>
        <time>2022-02-15T11:22:36Z</time>
      </trkpt>
      <trkpt lat="48.97262" lon="2.09444">
        <ele>36.6</ele>
        <time>2022-02-15T11:22:40Z</time>
      </trkpt>
      <trkpt lat="48.97267" lon="2.09448">
        <ele>36.8</ele>
        <time>2022-02-15T11:22:44Z</time>
      </trkpt>
      <trkpt lat="48.97271" lon="2.09452">
        <ele>36.9</ele>
        <time>2022-02-15T11:22:48Z</time>
      </trkpt>
      <trkpt lat="48.97275" lon="2.09455">
        <ele>37.6</ele>
        <time>2022-02-15T11:22:52Z</time>
      </trkpt>
      <trkpt lat="48.9728" lon="2.0946">
        <ele>38.2</ele>
        <time>2022-02-15T11:22:56Z</time>
      </trkpt>
      <trkpt lat="48.97285" lon="2.09464">
        <ele>39.2</ele>
        <time>2022-02-15T11:23:01Z</time>
      </trkpt>
      <trkpt lat="48.97289" lon="2.09469">
        <ele>39.9</ele>
        <time>2022-02-15T11:23:05Z</time>
      </trkpt>
      <trkpt lat="48.97294" lon="2.09471">
        <ele>41.6</ele>
        <time>2022-02-15T11:23:09Z</time>
      </trkpt>
      <trkpt lat="48.97299" lon="2.09473">
        <ele>42.2</ele>
        <time>2022-02-15T11:23:12Z</time>
      </trkpt>
      <trkpt lat="48.97304" lon="2.09473">
        <ele>42.6</ele>
        <time>2022-02-15T11:23:16Z</time>
      </trkpt>
      <trkpt lat="48.9731" lon="2.09473">
        <ele>40.7</ele>
        <time>2022-02-15T11:23:20Z</time>
      </trkpt>
      <trkpt lat="48.97316" lon="2.09474">
        <ele>38</ele>
        <time>2022-02-15T11:23:25Z</time>
      </trkpt>
      <trkpt lat="48.97321" lon="2.09476">
        <ele>36.3</ele>
        <time>2022-02-15T11:23:29Z</time>
      </trkpt>
      <trkpt lat="48.97326" lon="2.09477">
        <ele>35.9</ele>
        <time>2022-02-15T11:23:33Z</time>
      </trkpt>
      <trkpt lat="48.97331" lon="2.09479">
        <ele>36</ele>
        <time>2022-02-15T11:23:37Z</time>
      </trkpt>
      <trkpt lat="48.97335" lon="2.09481">
        <ele>35.8</ele>
        <time>2022-02-15T11:23:41Z</time>
      </trkpt>
      <trkpt lat="48.97339" lon="2.09485">
        <ele>34.3</ele>
        <time>2022-02-15T11:23:45Z</time>
      </trkpt>
      <trkpt lat="48.97343" lon="2.09491">
        <ele>34.1</ele>
        <time>2022-02-15T11:23:49Z</time>
      </trkpt>
      <trkpt lat="48.97348" lon="2.09494">
        <ele>34.4</ele>
        <time>2022-02-15T11:23:53Z</time>
      </trkpt>
      <trkpt lat="48.97353" lon="2.09496">
        <ele>33.9</ele>
        <time>2022-02-15T11:23:57Z</time>
      </trkpt>
      <trkpt lat="48.97357" lon="2.09496">
        <ele>32.3</ele>
        <time>2022-02-15T11:24:00Z</time>
      </trkpt>
      <trkpt lat="48.97362" lon="2.09494">
        <ele>30.6</ele>
        <time>2022-02-15T11:24:04Z</time>
      </trkpt>
      <trkpt lat="48.97367" lon="2.09493">
        <ele>29</ele>
        <time>2022-02-15T11:24:07Z</time>
      </trkpt>
      <trkpt lat="48.97372" lon="2.09492">
        <ele>27.6</ele>
        <time>2022-02-15T11:24:10Z</time>
      </trkpt>
      <trkpt lat="48.97376" lon="2.09493">
        <ele>26.7</ele>
        <time>2022-02-15T11:24:14Z</time>
      </trkpt>
      <trkpt lat="48.97381" lon="2.09496">
        <ele>25.8</ele>
        <time>2022-02-15T11:24:18Z</time>
      </trkpt>
      <trkpt lat="48.97387" lon="2.09498">
        <ele>25.7</ele>
        <time>2022-02-15T11:24:23Z</time>
      </trkpt>
      <trkpt lat="48.97392" lon="2.09498">
        <ele>25.1</ele>
        <time>2022-02-15T11:24:27Z</time>
      </trkpt>
      <trkpt lat="48.97396" lon="2.09503">
        <ele>25.8</ele>
        <time>2022-02-15T11:24:31Z</time>
      </trkpt>
      <trkpt lat="48.974" lon="2.09508">
        <ele>26.9</ele>
        <time>2022-02-15T11:24:33Z</time>
      </trkpt>
      <trkpt lat="48.97405" lon="2.0951">
        <ele>28.1</ele>
        <time>2022-02-15T11:24:37Z</time>
      </trkpt>
      <trkpt lat="48.97409" lon="2.0951">
        <ele>28.5</ele>
        <time>2022-02-15T11:24:40Z</time>
      </trkpt>
      <trkpt lat="48.97414" lon="2.0951">
        <ele>28.1</ele>
        <time>2022-02-15T11:24:43Z</time>
      </trkpt>
      <trkpt lat="48.9742" lon="2.09511">
        <ele>26.7</ele>
        <time>2022-02-15T11:24:47Z</time>
      </trkpt>
      <trkpt lat="48.97424" lon="2.09514">
        <ele>25.8</ele>
        <time>2022-02-15T11:24:51Z</time>
      </trkpt>
      <trkpt lat="48.97429" lon="2.09516">
        <ele>26.3</ele>
        <time>2022-02-15T11:24:55Z</time>
      </trkpt>
      <trkpt lat="48.97434" lon="2.09515">
        <ele>27.3</ele>
        <time>2022-02-15T11:24:58Z</time>
      </trkpt>
      <trkpt lat="48.9744" lon="2.09516">
        <ele>28.2</ele>
        <time>2022-02-15T11:25:02Z</time>
      </trkpt>
      <trkpt lat="48.97445" lon="2.0952">
        <ele>27.7</ele>
        <time>2022-02-15T11:25:06Z</time>
      </trkpt>
      <trkpt lat="48.9745" lon="2.09524">
        <ele>27</ele>
        <time>2022-02-15T11:25:10Z</time>
      </trkpt>
      <trkpt lat="48.97455" lon="2.09525">
        <ele>26.6</ele>
        <time>2022-02-15T11:25:14Z</time>
      </trkpt>
      <trkpt lat="48.9746" lon="2.09527">
        <ele>26.6</ele>
        <time>2022-02-15T11:25:17Z</time>
      </trkpt>
      <trkpt lat="48.97466" lon="2.09529">
        <ele>25.9</ele>
        <time>2022-02-15T11:25:22Z</time>
      </trkpt>
      <trkpt lat="48.97471" lon="2.09531">
        <ele>24.7</ele>
        <time>2022-02-15T11:25:26Z</time>
      </trkpt>
      <trkpt lat="48.97475" lon="2.09535">
        <ele>23.7</ele>
        <time>2022-02-15T11:25:30Z</time>
      </trkpt>
      <trkpt lat="48.9748" lon="2.09538">
        <ele>22.8</ele>
        <time>2022-02-15T11:25:35Z</time>
      </trkpt>
      <trkpt lat="48.97485" lon="2.09539">
        <ele>22.6</ele>
        <time>2022-02-15T11:25:38Z</time>
      </trkpt>
      <trkpt lat="48.9749" lon="2.09541">
        <ele>22.9</ele>
        <time>2022-02-15T11:25:42Z</time>
      </trkpt>
      <trkpt lat="48.97495" lon="2.09542">
        <ele>22.2</ele>
        <time>2022-02-15T11:25:46Z</time>
      </trkpt>
      <trkpt lat="48.97501" lon="2.09543">
        <ele>21.1</ele>
        <time>2022-02-15T11:25:50Z</time>
      </trkpt>
      <trkpt lat="48.97506" lon="2.09543">
        <ele>19.7</ele>
        <time>2022-02-15T11:25:55Z</time>
      </trkpt>
      <trkpt lat="48.97511" lon="2.09542">
        <ele>18.8</ele>
        <time>2022-02-15T11:25:59Z</time>
      </trkpt>
      <trkpt lat="48.97517" lon="2.09542">
        <ele>19</ele>
        <time>2022-02-15T11:26:03Z</time>
      </trkpt>
      <trkpt lat="48.97522" lon="2.09543">
        <ele>19.8</ele>
        <time>2022-02-15T11:26:07Z</time>
      </trkpt>
      <trkpt lat="48.97527" lon="2.09545">
        <ele>20.4</ele>
        <time>2022-02-15T11:26:11Z</time>
      </trkpt>
      <trkpt lat="48.97532" lon="2.09547">
        <ele>20.9</ele>
        <time>2022-02-15T11:26:14Z</time>
      </trkpt>
      <trkpt lat="48.97537" lon="2.09547">
        <ele>21.6</ele>
        <time>2022-02-15T11:26:18Z</time>
      </trkpt>
      <trkpt lat="48.97541" lon="2.09544">
        <ele>21.6</ele>
        <time>2022-02-15T11:26:21Z</time>
      </trkpt>
      <trkpt lat="48.97544" lon="2.09535">
        <ele>21.2</ele>
        <time>2022-02-15T11:26:25Z</time>
      </trkpt>
      <trkpt lat="48.97543" lon="2.09527">
        <ele>19.9</ele>
        <time>2022-02-15T11:26:28Z</time>
      </trkpt>
      <trkpt lat="48.97541" lon="2.0952">
        <ele>18.5</ele>
        <time>2022-02-15T11:26:31Z</time>
      </trkpt>
      <trkpt lat="48.97538" lon="2.09514">
        <ele>17.5</ele>
        <time>2022-02-15T11:26:34Z</time>
      </trkpt>
      <trkpt lat="48.97535" lon="2.09507">
        <ele>17</ele>
        <time>2022-02-15T11:26:38Z</time>
      </trkpt>
      <trkpt lat="48.97532" lon="2.095">
        <ele>16</ele>
        <time>2022-02-15T11:26:42Z</time>
      </trkpt>
      <trkpt lat="48.97531" lon="2.09492">
        <ele>15</ele>
        <time>2022-02-15T11:26:46Z</time>
      </trkpt>
      <trkpt lat="48.97529" lon="2.09485">
        <ele>13.5</ele>
        <time>2022-02-15T11:26:50Z</time>
      </trkpt>
      <trkpt lat="48.97526" lon="2.09478">
        <ele>11.7</ele>
        <time>2022-02-15T11:26:54Z</time>
      </trkpt>
      <trkpt lat="48.97524" lon="2.09471">
        <ele>11</ele>
        <time>2022-02-15T11:26:58Z</time>
      </trkpt>
      <trkpt lat="48.97522" lon="2.09465">
        <ele>11.4</ele>
        <time>2022-02-15T11:27:02Z</time>
      </trkpt>
      <trkpt lat="48.9752" lon="2.09458">
        <ele>12.7</ele>
        <time>2022-02-15T11:27:06Z</time>
      </trkpt>
      <trkpt lat="48.97518" lon="2.09452">
        <ele>13.7</ele>
        <time>2022-02-15T11:27:10Z</time>
      </trkpt>
      <trkpt lat="48.97516" lon="2.09444">
        <ele>13.5</ele>
        <time>2022-02-15T11:27:14Z</time>
      </trkpt>
      <trkpt lat="48.97514" lon="2.09435">
        <ele>12.5</ele>
        <time>2022-02-15T11:27:19Z</time>
      </trkpt>
      <trkpt lat="48.97512" lon="2.09427">
        <ele>12.2</ele>
        <time>2022-02-15T11:27:23Z</time>
      </trkpt>
      <trkpt lat="48.97511" lon="2.0942">
        <ele>12.1</ele>
        <time>2022-02-15T11:27:27Z</time>
      </trkpt>
      <trkpt lat="48.97508" lon="2.09412">
        <ele>12.3</ele>
        <time>2022-02-15T11:27:31Z</time>
      </trkpt>
      <trkpt lat="48.97508" lon="2.09403">
        <ele>13.5</ele>
        <time>2022-02-15T11:27:35Z</time>
      </trkpt>
      <trkpt lat="48.97508" lon="2.09395">
        <ele>15.2</ele>
        <time>2022-02-15T11:27:39Z</time>
      </trkpt>
      <trkpt lat="48.97507" lon="2.09388">
        <ele>15.7</ele>
        <time>2022-02-15T11:27:43Z</time>
      </trkpt>
      <trkpt lat="48.97506" lon="2.0938">
        <ele>16.2</ele>
        <time>2022-02-15T11:27:47Z</time>
      </trkpt>
      <trkpt lat="48.97505" lon="2.09372">
        <ele>17</ele>
        <time>2022-02-15T11:27:51Z</time>
      </trkpt>
      <trkpt lat="48.97504" lon="2.09364">
        <ele>18.3</ele>
        <time>2022-02-15T11:27:55Z</time>
      </trkpt>
      <trkpt lat="48.97503" lon="2.09355">
        <ele>20</ele>
        <time>2022-02-15T11:27:59Z</time>
      </trkpt>
      <trkpt lat="48.97501" lon="2.09347">
        <ele>20.7</ele>
        <time>2022-02-15T11:28:03Z</time>
      </trkpt>
      <trkpt lat="48.97499" lon="2.09339">
        <ele>20.8</ele>
        <time>2022-02-15T11:28:07Z</time>
      </trkpt>
      <trkpt lat="48.97497" lon="2.09331">
        <ele>20.8</ele>
        <time>2022-02-15T11:28:11Z</time>
      </trkpt>
      <trkpt lat="48.97496" lon="2.09323">
        <ele>20.9</ele>
        <time>2022-02-15T11:28:14Z</time>
      </trkpt>
      <trkpt lat="48.97495" lon="2.09316">
        <ele>21.1</ele>
        <time>2022-02-15T11:28:18Z</time>
      </trkpt>
      <trkpt lat="48.97492" lon="2.09309">
        <ele>21.1</ele>
        <time>2022-02-15T11:28:22Z</time>
      </trkpt>
      <trkpt lat="48.97489" lon="2.09302">
        <ele>21.1</ele>
        <time>2022-02-15T11:28:26Z</time>
      </trkpt>
      <trkpt lat="48.97487" lon="2.09294">
        <ele>20.7</ele>
        <time>2022-02-15T11:28:30Z</time>
      </trkpt>
      <trkpt lat="48.97484" lon="2.09287">
        <ele>19.7</ele>
        <time>2022-02-15T11:28:34Z</time>
      </trkpt>
      <trkpt lat="48.97481" lon="2.09281">
        <ele>18.4</ele>
        <time>2022-02-15T11:28:39Z</time>
      </trkpt>
      <trkpt lat="48.97479" lon="2.09274">
        <ele>17.9</ele>
        <time>2022-02-15T11:28:43Z</time>
      </trkpt>
      <trkpt lat="48.97476" lon="2.09266">
        <ele>18.7</ele>
        <time>2022-02-15T11:28:48Z</time>
      </trkpt>
      <trkpt lat="48.97474" lon="2.09259">
        <ele>19.3</ele>
        <time>2022-02-15T11:28:52Z</time>
      </trkpt>
      <trkpt lat="48.97472" lon="2.09252">
        <ele>19.5</ele>
        <time>2022-02-15T11:28:57Z</time>
      </trkpt>
      <trkpt lat="48.97469" lon="2.09247">
        <ele>19.7</ele>
        <time>2022-02-15T11:29:01Z</time>
      </trkpt>
      <trkpt lat="48.9747" lon="2.0924">
        <ele>20.5</ele>
        <time>2022-02-15T11:29:05Z</time>
      </trkpt>
      <trkpt lat="48.97472" lon="2.09232">
        <ele>21.9</ele>
        <time>2022-02-15T11:29:09Z</time>
      </trkpt>
      <trkpt lat="48.97476" lon="2.09225">
        <ele>22.2</ele>
        <time>2022-02-15T11:29:13Z</time>
      </trkpt>
      <trkpt lat="48.9748" lon="2.09219">
        <ele>21.7</ele>
        <time>2022-02-15T11:29:17Z</time>
      </trkpt>
      <trkpt lat="48.97484" lon="2.09214">
        <ele>20.6</ele>
        <time>2022-02-15T11:29:21Z</time>
      </trkpt>
      <trkpt lat="48.97487" lon="2.09208">
        <ele>19.5</ele>
        <time>2022-02-15T11:29:24Z</time>
      </trkpt>
      <trkpt lat="48.97489" lon="2.092">
        <ele>18.4</ele>
        <time>2022-02-15T11:29:28Z</time>
      </trkpt>
      <trkpt lat="48.97489" lon="2.09191">
        <ele>17.9</ele>
        <time>2022-02-15T11:29:32Z</time>
      </trkpt>
      <trkpt lat="48.97487" lon="2.09184">
        <ele>18.7</ele>
        <time>2022-02-15T11:29:35Z</time>
      </trkpt>
      <trkpt lat="48.97486" lon="2.09178">
        <ele>19.6</ele>
        <time>2022-02-15T11:29:38Z</time>
      </trkpt>
      <trkpt lat="48.97484" lon="2.09169">
        <ele>20.2</ele>
        <time>2022-02-15T11:29:42Z</time>
      </trkpt>
      <trkpt lat="48.97483" lon="2.09162">
        <ele>20.3</ele>
        <time>2022-02-15T11:29:46Z</time>
      </trkpt>
      <trkpt lat="48.97482" lon="2.09154">
        <ele>20.1</ele>
        <time>2022-02-15T11:29:50Z</time>
      </trkpt>
      <trkpt lat="48.97481" lon="2.09146">
        <ele>20.6</ele>
        <time>2022-02-15T11:29:53Z</time>
      </trkpt>
      <trkpt lat="48.97481" lon="2.09139">
        <ele>21.8</ele>
        <time>2022-02-15T11:29:57Z</time>
      </trkpt>
      <trkpt lat="48.97481" lon="2.0913">
        <ele>22.8</ele>
        <time>2022-02-15T11:30:01Z</time>
      </trkpt>
      <trkpt lat="48.97483" lon="2.09122">
        <ele>22.1</ele>
        <time>2022-02-15T11:30:04Z</time>
      </trkpt>
      <trkpt lat="48.97484" lon="2.09114">
        <ele>21.2</ele>
        <time>2022-02-15T11:30:08Z</time>
      </trkpt>
      <trkpt lat="48.97485" lon="2.09107">
        <ele>20.6</ele>
        <time>2022-02-15T11:30:12Z</time>
      </trkpt>
      <trkpt lat="48.97487" lon="2.091">
        <ele>20.1</ele>
        <time>2022-02-15T11:30:16Z</time>
      </trkpt>
      <trkpt lat="48.9749" lon="2.09093">
        <ele>19.3</ele>
        <time>2022-02-15T11:30:20Z</time>
      </trkpt>
      <trkpt lat="48.97494" lon="2.09086">
        <ele>19.2</ele>
        <time>2022-02-15T11:30:24Z</time>
      </trkpt>
      <trkpt lat="48.97496" lon="2.09079">
        <ele>20.3</ele>
        <time>2022-02-15T11:30:29Z</time>
      </trkpt>
      <trkpt lat="48.97499" lon="2.09073">
        <ele>21.1</ele>
        <time>2022-02-15T11:30:33Z</time>
      </trkpt>
      <trkpt lat="48.97503" lon="2.09069">
        <ele>20.8</ele>
        <time>2022-02-15T11:30:37Z</time>
      </trkpt>
      <trkpt lat="48.97508" lon="2.09064">
        <ele>20.3</ele>
        <time>2022-02-15T11:30:42Z</time>
      </trkpt>
      <trkpt lat="48.97512" lon="2.09059">
        <ele>19.5</ele>
        <time>2022-02-15T11:30:46Z</time>
      </trkpt>
      <trkpt lat="48.97516" lon="2.09054">
        <ele>19.1</ele>
        <time>2022-02-15T11:30:50Z</time>
      </trkpt>
      <trkpt lat="48.97521" lon="2.09047">
        <ele>19.4</ele>
        <time>2022-02-15T11:30:55Z</time>
      </trkpt>
      <trkpt lat="48.97525" lon="2.09043">
        <ele>20.8</ele>
        <time>2022-02-15T11:30:59Z</time>
      </trkpt>
      <trkpt lat="48.97528" lon="2.09035">
        <ele>22</ele>
        <time>2022-02-15T11:31:03Z</time>
      </trkpt>
      <trkpt lat="48.97533" lon="2.09031">
        <ele>22.6</ele>
        <time>2022-02-15T11:31:07Z</time>
      </trkpt>
      <trkpt lat="48.97538" lon="2.09028">
        <ele>22.6</ele>
        <time>2022-02-15T11:31:12Z</time>
      </trkpt>
      <trkpt lat="48.97543" lon="2.09025">
        <ele>22</ele>
        <time>2022-02-15T11:31:16Z</time>
      </trkpt>
      <trkpt lat="48.97548" lon="2.09021">
        <ele>20.9</ele>
        <time>2022-02-15T11:31:21Z</time>
      </trkpt>
      <trkpt lat="48.97552" lon="2.09015">
        <ele>19.6</ele>
        <time>2022-02-15T11:31:25Z</time>
      </trkpt>
      <trkpt lat="48.97557" lon="2.09011">
        <ele>18.9</ele>
        <time>2022-02-15T11:31:30Z</time>
      </trkpt>
      <trkpt lat="48.97562" lon="2.09009">
        <ele>18.7</ele>
        <time>2022-02-15T11:31:34Z</time>
      </trkpt>
      <trkpt lat="48.97566" lon="2.09005">
        <ele>18.5</ele>
        <time>2022-02-15T11:31:38Z</time>
      </trkpt>
      <trkpt lat="48.97569" lon="2.08999">
        <ele>18.2</ele>
        <time>2022-02-15T11:31:42Z</time>
      </trkpt>
      <trkpt lat="48.97572" lon="2.08993">
        <ele>18.1</ele>
        <time>2022-02-15T11:31:46Z</time>
      </trkpt>
      <trkpt lat="48.97576" lon="2.08987">
        <ele>19.6</ele>
        <time>2022-02-15T11:31:50Z</time>
      </trkpt>
      <trkpt lat="48.97579" lon="2.0898">
        <ele>20.4</ele>
        <time>2022-02-15T11:31:54Z</time>
      </trkpt>
      <trkpt lat="48.97583" lon="2.08974">
        <ele>20.1</ele>
        <time>2022-02-15T11:31:58Z</time>
      </trkpt>
      <trkpt lat="48.97587" lon="2.0897">
        <ele>19.5</ele>
        <time>2022-02-15T11:32:02Z</time>
      </trkpt>
      <trkpt lat="48.97593" lon="2.08967">
        <ele>19.3</ele>
        <time>2022-02-15T11:32:06Z</time>
      </trkpt>
      <trkpt lat="48.97597" lon="2.08965">
        <ele>19.4</ele>
        <time>2022-02-15T11:32:11Z</time>
      </trkpt>
      <trkpt lat="48.97602" lon="2.08962">
        <ele>19.9</ele>
        <time>2022-02-15T11:32:15Z</time>
      </trkpt>
      <trkpt lat="48.97607" lon="2.0896">
        <ele>19.9</ele>
        <time>2022-02-15T11:32:19Z</time>
      </trkpt>
      <trkpt lat="48.97612" lon="2.08955">
        <ele>20.2</ele>
        <time>2022-02-15T11:32:24Z</time>
      </trkpt>
      <trkpt lat="48.97616" lon="2.0895">
        <ele>20.6</ele>
        <time>2022-02-15T11:32:28Z</time>
      </trkpt>
      <trkpt lat="48.97619" lon="2.08945">
        <ele>20.3</ele>
        <time>2022-02-15T11:32:32Z</time>
      </trkpt>
      <trkpt lat="48.97623" lon="2.08941">
        <ele>19.7</ele>
        <time>2022-02-15T11:32:37Z</time>
      </trkpt>
      <trkpt lat="48.97629" lon="2.0894">
        <ele>19.2</ele>
        <time>2022-02-15T11:32:42Z</time>
      </trkpt>
      <trkpt lat="48.97634" lon="2.08942">
        <ele>18.9</ele>
        <time>2022-02-15T11:32:46Z</time>
      </trkpt>
      <trkpt lat="48.97639" lon="2.0894">
        <ele>19.6</ele>
        <time>2022-02-15T11:32:51Z</time>
      </trkpt>
      <trkpt lat="48.97644" lon="2.08936">
        <ele>20.3</ele>
        <time>2022-02-15T11:32:55Z</time>
      </trkpt>
      <trkpt lat="48.97649" lon="2.08933">
        <ele>20.5</ele>
        <time>2022-02-15T11:32:59Z</time>
      </trkpt>
      <trkpt lat="48.97653" lon="2.08929">
        <ele>20.5</ele>
        <time>2022-02-15T11:33:03Z</time>
      </trkpt>
      <trkpt lat="48.97658" lon="2.08926">
        <ele>19.9</ele>
        <time>2022-02-15T11:33:08Z</time>
      </trkpt>
      <trkpt lat="48.97662" lon="2.08924">
        <ele>19.6</ele>
        <time>2022-02-15T11:33:12Z</time>
      </trkpt>
      <trkpt lat="48.97667" lon="2.08922">
        <ele>19.3</ele>
        <time>2022-02-15T11:33:16Z</time>
      </trkpt>
      <trkpt lat="48.97672" lon="2.08918">
        <ele>19.2</ele>
        <time>2022-02-15T11:33:20Z</time>
      </trkpt>
      <trkpt lat="48.97677" lon="2.08916">
        <ele>19.1</ele>
        <time>2022-02-15T11:33:25Z</time>
      </trkpt>
      <trkpt lat="48.97681" lon="2.08913">
        <ele>19.1</ele>
        <time>2022-02-15T11:33:29Z</time>
      </trkpt>
      <trkpt lat="48.97686" lon="2.0891">
        <ele>18.9</ele>
        <time>2022-02-15T11:33:33Z</time>
      </trkpt>
      <trkpt lat="48.97691" lon="2.08913">
        <ele>18.1</ele>
        <time>2022-02-15T11:33:37Z</time>
      </trkpt>
      <trkpt lat="48.97696" lon="2.08913">
        <ele>17.7</ele>
        <time>2022-02-15T11:33:42Z</time>
      </trkpt>
      <trkpt lat="48.97701" lon="2.08912">
        <ele>18</ele>
        <time>2022-02-15T11:33:46Z</time>
      </trkpt>
      <trkpt lat="48.97706" lon="2.08908">
        <ele>18</ele>
        <time>2022-02-15T11:33:51Z</time>
      </trkpt>
      <trkpt lat="48.97711" lon="2.08907">
        <ele>18.3</ele>
        <time>2022-02-15T11:33:55Z</time>
      </trkpt>
      <trkpt lat="48.97715" lon="2.08903">
        <ele>18.6</ele>
        <time>2022-02-15T11:33:59Z</time>
      </trkpt>
      <trkpt lat="48.97721" lon="2.08901">
        <ele>18.1</ele>
        <time>2022-02-15T11:34:04Z</time>
      </trkpt>
      <trkpt lat="48.97726" lon="2.089">
        <ele>17.7</ele>
        <time>2022-02-15T11:34:09Z</time>
      </trkpt>
      <trkpt lat="48.97728" lon="2.08893">
        <ele>18.2</ele>
        <time>2022-02-15T11:34:15Z</time>
      </trkpt>
      <trkpt lat="48.97724" lon="2.08889">
        <ele>17.6</ele>
        <time>2022-02-15T11:34:51Z</time>
      </trkpt>
    </trkseg>
  </trk>
</gpx>